<?xml version="1.0" encoding="UTF-8" standalone="no" ?>
<gpx xmlns="http://www.topografix.com/GPX/1/1" xmlns:xsi="http://www.w3.org/2001/XMLSchema-instance" xsi:schemaLocation="http://www.topografix.com/GPX/1/1 http://www.topografix.com/GPX/1/1/gpx.xsd" version="1.1" creator="VisuGPX - https://www.visugpx.com">
  <metadata>
    <name>Projet vacances toussaint</name>
  </metadata>
  <trk>
    <name><![CDATA[dijon landresse]]></name>
    <extensions>
      <line xmlns="http://www.topografix.com/GPX/gpx_style/0/2">
        <color>0000FF</color>
        <width>4</width>
      </line>
    </extensions>
    <trkseg>
      <trkpt lat="47.32151" lon="5.04146">
        <ele>247.556832</ele>
        <time>2020-10-11T06:29:07.860Z</time>
      </trkpt>
      <trkpt lat="47.32144" lon="5.04144">
        <ele>247.556832</ele>
        <time>2020-10-11T06:29:09.669Z</time>
      </trkpt>
      <trkpt lat="47.32139" lon="5.04175">
        <ele>247.556832</ele>
        <time>2020-10-11T06:29:16.326Z</time>
      </trkpt>
      <trkpt lat="47.32135" lon="5.04195">
        <ele>247.556832</ele>
        <time>2020-10-11T06:29:19.777Z</time>
      </trkpt>
      <trkpt lat="47.32134" lon="5.04202">
        <ele>247.556832</ele>
        <time>2020-10-11T06:29:21.226Z</time>
      </trkpt>
      <trkpt lat="47.32126" lon="5.042">
        <ele>247.556832</ele>
        <time>2020-10-11T06:29:23.527Z</time>
      </trkpt>
      <trkpt lat="47.32116" lon="5.04194">
        <ele>247.556832</ele>
        <time>2020-10-11T06:29:26.470Z</time>
      </trkpt>
      <trkpt lat="47.32115" lon="5.04194">
        <ele>247.556832</ele>
        <time>2020-10-11T06:29:26.803Z</time>
      </trkpt>
      <trkpt lat="47.32114" lon="5.04193">
        <ele>247.556832</ele>
        <time>2020-10-11T06:29:27.054Z</time>
      </trkpt>
      <trkpt lat="47.32101" lon="5.04174">
        <ele>247.556832</ele>
        <time>2020-10-11T06:29:32.134Z</time>
      </trkpt>
      <trkpt lat="47.32094" lon="5.04145">
        <ele>247.503982</ele>
        <time>2020-10-11T06:29:37.274Z</time>
      </trkpt>
      <trkpt lat="47.32094" lon="5.04142">
        <ele>247.499496</ele>
        <time>2020-10-11T06:29:37.559Z</time>
      </trkpt>
      <trkpt lat="47.3208" lon="5.04154">
        <ele>247.45163</ele>
        <time>2020-10-11T06:29:42.188Z</time>
      </trkpt>
      <trkpt lat="47.32064" lon="5.04168">
        <ele>247.394828</ele>
        <time>2020-10-11T06:29:46.803Z</time>
      </trkpt>
      <trkpt lat="47.3205" lon="5.04176">
        <ele>247.351504</ele>
        <time>2020-10-11T06:29:50.893Z</time>
      </trkpt>
      <trkpt lat="47.32045" lon="5.04188">
        <ele>247.322999</ele>
        <time>2020-10-11T06:29:52.552Z</time>
      </trkpt>
      <trkpt lat="47.32033" lon="5.04209">
        <ele>247.267677</ele>
        <time>2020-10-11T06:29:56.119Z</time>
      </trkpt>
      <trkpt lat="47.32051" lon="5.0423">
        <ele>247.198573</ele>
        <time>2020-10-11T06:30:00.727Z</time>
      </trkpt>
      <trkpt lat="47.32064" lon="5.04251">
        <ele>247.140703</ele>
        <time>2020-10-11T06:30:04.505Z</time>
      </trkpt>
      <trkpt lat="47.32076" lon="5.04265">
        <ele>247.09459</ele>
        <time>2020-10-11T06:30:07.581Z</time>
      </trkpt>
      <trkpt lat="47.32076" lon="5.0427">
        <ele>247.086055</ele>
        <time>2020-10-11T06:30:08.108Z</time>
      </trkpt>
      <trkpt lat="47.32069" lon="5.04304">
        <ele>247.026337</ele>
        <time>2020-10-11T06:30:13.604Z</time>
      </trkpt>
      <trkpt lat="47.32068" lon="5.04306">
        <ele>247.030091</ele>
        <time>2020-10-11T06:30:13.787Z</time>
      </trkpt>
      <trkpt lat="47.32074" lon="5.04308">
        <ele>247.045573</ele>
        <time>2020-10-11T06:30:14.989Z</time>
      </trkpt>
      <trkpt lat="47.32077" lon="5.0431">
        <ele>247.054506</ele>
        <time>2020-10-11T06:30:15.801Z</time>
      </trkpt>
      <trkpt lat="47.32111" lon="5.0434">
        <ele>247.159143</ele>
        <time>2020-10-11T06:30:24.220Z</time>
      </trkpt>
      <trkpt lat="47.32121" lon="5.04346">
        <ele>247.188502</ele>
        <time>2020-10-11T06:30:26.811Z</time>
      </trkpt>
      <trkpt lat="47.3213" lon="5.04348">
        <ele>247.210882</ele>
        <time>2020-10-11T06:30:28.790Z</time>
      </trkpt>
      <trkpt lat="47.32189" lon="5.04355">
        <ele>247.368427</ele>
        <time>2020-10-11T06:30:41.217Z</time>
      </trkpt>
      <trkpt lat="47.32192" lon="5.04356">
        <ele>247.376386</ele>
        <time>2020-10-11T06:30:41.917Z</time>
      </trkpt>
      <trkpt lat="47.32237" lon="5.04362">
        <ele>247.49502</ele>
        <time>2020-10-11T06:30:53.271Z</time>
      </trkpt>
      <trkpt lat="47.32231" lon="5.04406">
        <ele>247.617273</ele>
        <time>2020-10-11T06:31:03.120Z</time>
      </trkpt>
      <trkpt lat="47.32238" lon="5.04409">
        <ele>247.644157</ele>
        <time>2020-10-11T06:31:05.010Z</time>
      </trkpt>
      <trkpt lat="47.32287" lon="5.04427">
        <ele>247.847038</ele>
        <time>2020-10-11T06:31:16.502Z</time>
      </trkpt>
      <trkpt lat="47.32291" lon="5.04429">
        <ele>247.864786</ele>
        <time>2020-10-11T06:31:17.517Z</time>
      </trkpt>
      <trkpt lat="47.32298" lon="5.04431">
        <ele>247.890025</ele>
        <time>2020-10-11T06:31:18.788Z</time>
      </trkpt>
      <trkpt lat="47.32307" lon="5.04433">
        <ele>247.929137</ele>
        <time>2020-10-11T06:31:20.812Z</time>
      </trkpt>
      <trkpt lat="47.32366" lon="5.04456">
        <ele>248.171594</ele>
        <time>2020-10-11T06:31:34.263Z</time>
      </trkpt>
      <trkpt lat="47.32382" lon="5.04454">
        <ele>248.224279</ele>
        <time>2020-10-11T06:31:37.921Z</time>
      </trkpt>
      <trkpt lat="47.32389" lon="5.04456">
        <ele>248.23675</ele>
        <time>2020-10-11T06:31:39.726Z</time>
      </trkpt>
      <trkpt lat="47.32412" lon="5.04461">
        <ele>248.278756</ele>
        <time>2020-10-11T06:31:45.164Z</time>
      </trkpt>
      <trkpt lat="47.32417" lon="5.04464">
        <ele>248.287577</ele>
        <time>2020-10-11T06:31:46.220Z</time>
      </trkpt>
      <trkpt lat="47.3244" lon="5.04476">
        <ele>248.331101</ele>
        <time>2020-10-11T06:31:51.803Z</time>
      </trkpt>
      <trkpt lat="47.32457" lon="5.04483">
        <ele>248.363047</ele>
        <time>2020-10-11T06:31:55.690Z</time>
      </trkpt>
      <trkpt lat="47.32459" lon="5.04484">
        <ele>248.3673</ele>
        <time>2020-10-11T06:31:56.181Z</time>
      </trkpt>
      <trkpt lat="47.3249" lon="5.04497">
        <ele>248.424117</ele>
        <time>2020-10-11T06:32:02.725Z</time>
      </trkpt>
      <trkpt lat="47.32524" lon="5.04511">
        <ele>248.486139</ele>
        <time>2020-10-11T06:32:10.154Z</time>
      </trkpt>
      <trkpt lat="47.32564" lon="5.04528">
        <ele>248.548237</ele>
        <time>2020-10-11T06:32:19.036Z</time>
      </trkpt>
      <trkpt lat="47.32604" lon="5.04545">
        <ele>248.586937</ele>
        <time>2020-10-11T06:32:28.010Z</time>
      </trkpt>
      <trkpt lat="47.32614" lon="5.0455">
        <ele>248.597066</ele>
        <time>2020-10-11T06:32:30.492Z</time>
      </trkpt>
      <trkpt lat="47.32616" lon="5.04552">
        <ele>248.599824</ele>
        <time>2020-10-11T06:32:30.952Z</time>
      </trkpt>
      <trkpt lat="47.32616" lon="5.04555">
        <ele>248.601968</ele>
        <time>2020-10-11T06:32:31.554Z</time>
      </trkpt>
      <trkpt lat="47.32614" lon="5.04561">
        <ele>248.605892</ele>
        <time>2020-10-11T06:32:32.586Z</time>
      </trkpt>
      <trkpt lat="47.32609" lon="5.0458">
        <ele>248.618707</ele>
        <time>2020-10-11T06:32:35.655Z</time>
      </trkpt>
      <trkpt lat="47.32609" lon="5.04594">
        <ele>248.627586</ele>
        <time>2020-10-11T06:32:37.709Z</time>
      </trkpt>
      <trkpt lat="47.3261" lon="5.04603">
        <ele>248.633652</ele>
        <time>2020-10-11T06:32:38.822Z</time>
      </trkpt>
      <trkpt lat="47.32612" lon="5.04614">
        <ele>248.640838</ele>
        <time>2020-10-11T06:32:40.641Z</time>
      </trkpt>
      <trkpt lat="47.32619" lon="5.04625">
        <ele>248.650347</ele>
        <time>2020-10-11T06:32:42.804Z</time>
      </trkpt>
      <trkpt lat="47.32625" lon="5.04632">
        <ele>248.657727</ele>
        <time>2020-10-11T06:32:44.359Z</time>
      </trkpt>
      <trkpt lat="47.32631" lon="5.04635">
        <ele>248.663412</ele>
        <time>2020-10-11T06:32:45.652Z</time>
      </trkpt>
      <trkpt lat="47.32635" lon="5.04637">
        <ele>248.667583</ele>
        <time>2020-10-11T06:32:46.364Z</time>
      </trkpt>
      <trkpt lat="47.32647" lon="5.04638">
        <ele>248.678781</ele>
        <time>2020-10-11T06:32:49.025Z</time>
      </trkpt>
      <trkpt lat="47.32655" lon="5.04634">
        <ele>248.687008</ele>
        <time>2020-10-11T06:32:50.880Z</time>
      </trkpt>
      <trkpt lat="47.32661" lon="5.04632">
        <ele>248.692807</ele>
        <time>2020-10-11T06:32:52.203Z</time>
      </trkpt>
      <trkpt lat="47.32675" lon="5.04631">
        <ele>248.706286</ele>
        <time>2020-10-11T06:32:54.922Z</time>
      </trkpt>
      <trkpt lat="47.32683" lon="5.0464">
        <ele>248.7192</ele>
        <time>2020-10-11T06:32:57.319Z</time>
      </trkpt>
      <trkpt lat="47.32779" lon="5.04903">
        <ele>248.901423</ele>
        <time>2020-10-11T06:33:40.984Z</time>
      </trkpt>
      <trkpt lat="47.32785" lon="5.04918">
        <ele>248.892939</ele>
        <time>2020-10-11T06:33:43.347Z</time>
      </trkpt>
      <trkpt lat="47.3279" lon="5.04931">
        <ele>248.885191</ele>
        <time>2020-10-11T06:33:45.364Z</time>
      </trkpt>
      <trkpt lat="47.328" lon="5.04954">
        <ele>248.870948</ele>
        <time>2020-10-11T06:33:49.856Z</time>
      </trkpt>
      <trkpt lat="47.32807" lon="5.04973">
        <ele>248.860447</ele>
        <time>2020-10-11T06:33:52.895Z</time>
      </trkpt>
      <trkpt lat="47.32832" lon="5.0504">
        <ele>248.821673</ele>
        <time>2020-10-11T06:34:04.797Z</time>
      </trkpt>
      <trkpt lat="47.32835" lon="5.05053">
        <ele>248.814602</ele>
        <time>2020-10-11T06:34:06.760Z</time>
      </trkpt>
      <trkpt lat="47.32839" lon="5.05066">
        <ele>248.807193</ele>
        <time>2020-10-11T06:34:08.319Z</time>
      </trkpt>
      <trkpt lat="47.32843" lon="5.0508">
        <ele>248.799447</ele>
        <time>2020-10-11T06:34:10.550Z</time>
      </trkpt>
      <trkpt lat="47.32839" lon="5.05085">
        <ele>248.795814</ele>
        <time>2020-10-11T06:34:11.806Z</time>
      </trkpt>
      <trkpt lat="47.32831" lon="5.05111">
        <ele>248.607287</ele>
        <time>2020-10-11T06:34:14.771Z</time>
      </trkpt>
      <trkpt lat="47.32836" lon="5.05138">
        <ele>248.374911</ele>
        <time>2020-10-11T06:34:18.451Z</time>
      </trkpt>
      <trkpt lat="47.32839" lon="5.05144">
        <ele>248.315633</ele>
        <time>2020-10-11T06:34:19.467Z</time>
      </trkpt>
      <trkpt lat="47.32842" lon="5.05148">
        <ele>248.265807</ele>
        <time>2020-10-11T06:34:20.066Z</time>
      </trkpt>
      <trkpt lat="47.32849" lon="5.05155">
        <ele>248.160297</ele>
        <time>2020-10-11T06:34:21.266Z</time>
      </trkpt>
      <trkpt lat="47.32846" lon="5.05174">
        <ele>248.003735</ele>
        <time>2020-10-11T06:34:23.901Z</time>
      </trkpt>
      <trkpt lat="47.32848" lon="5.05244">
        <ele>247.430069</ele>
        <time>2020-10-11T06:34:32.039Z</time>
      </trkpt>
      <trkpt lat="47.32849" lon="5.05257">
        <ele>247.324234</ele>
        <time>2020-10-11T06:34:33.207Z</time>
      </trkpt>
      <trkpt lat="47.32852" lon="5.05298">
        <ele>246.97924</ele>
        <time>2020-10-11T06:34:38.765Z</time>
      </trkpt>
      <trkpt lat="47.32853" lon="5.0531">
        <ele>246.886035</ele>
        <time>2020-10-11T06:34:39.788Z</time>
      </trkpt>
      <trkpt lat="47.32855" lon="5.05333">
        <ele>246.691174</ele>
        <time>2020-10-11T06:34:42.941Z</time>
      </trkpt>
      <trkpt lat="47.32857" lon="5.0536">
        <ele>246.543805</ele>
        <time>2020-10-11T06:34:45.680Z</time>
      </trkpt>
      <trkpt lat="47.32861" lon="5.05428">
        <ele>246.269885</ele>
        <time>2020-10-11T06:34:52.994Z</time>
      </trkpt>
      <trkpt lat="47.32871" lon="5.05562">
        <ele>245.728213</ele>
        <time>2020-10-11T06:35:09.794Z</time>
      </trkpt>
      <trkpt lat="47.32872" lon="5.05577">
        <ele>245.667785</ele>
        <time>2020-10-11T06:35:12.187Z</time>
      </trkpt>
      <trkpt lat="47.32873" lon="5.05585">
        <ele>245.635975</ele>
        <time>2020-10-11T06:35:13.581Z</time>
      </trkpt>
      <trkpt lat="47.32874" lon="5.05599">
        <ele>245.579536</ele>
        <time>2020-10-11T06:35:16.002Z</time>
      </trkpt>
      <trkpt lat="47.32877" lon="5.05638">
        <ele>245.936106</ele>
        <time>2020-10-11T06:35:23.258Z</time>
      </trkpt>
      <trkpt lat="47.3288" lon="5.05662">
        <ele>246.226251</ele>
        <time>2020-10-11T06:35:27.475Z</time>
      </trkpt>
      <trkpt lat="47.3288" lon="5.05708">
        <ele>246.782108</ele>
        <time>2020-10-11T06:35:36.213Z</time>
      </trkpt>
      <trkpt lat="47.3288" lon="5.05722">
        <ele>246.950108</ele>
        <time>2020-10-11T06:35:38.829Z</time>
      </trkpt>
      <trkpt lat="47.32878" lon="5.05822">
        <ele>248.155181</ele>
        <time>2020-10-11T06:36:00.788Z</time>
      </trkpt>
      <trkpt lat="47.32878" lon="5.05834">
        <ele>248.300195</ele>
        <time>2020-10-11T06:36:03.869Z</time>
      </trkpt>
      <trkpt lat="47.32877" lon="5.05845">
        <ele>248.432099</ele>
        <time>2020-10-11T06:36:06.686Z</time>
      </trkpt>
      <trkpt lat="47.32878" lon="5.05935">
        <ele>249.972786</ele>
        <time>2020-10-11T06:36:29.736Z</time>
      </trkpt>
      <trkpt lat="47.32878" lon="5.05955">
        <ele>250.354877</ele>
        <time>2020-10-11T06:36:34.627Z</time>
      </trkpt>
      <trkpt lat="47.32878" lon="5.06007">
        <ele>251.342478</ele>
        <time>2020-10-11T06:36:47.816Z</time>
      </trkpt>
      <trkpt lat="47.3288" lon="5.0628">
        <ele>255.76508</ele>
        <time>2020-10-11T06:37:54.724Z</time>
      </trkpt>
      <trkpt lat="47.3288" lon="5.06341">
        <ele>256.585246</ele>
        <time>2020-10-11T06:38:06.778Z</time>
      </trkpt>
      <trkpt lat="47.3288" lon="5.06468">
        <ele>257.626776</ele>
        <time>2020-10-11T06:38:29.325Z</time>
      </trkpt>
      <trkpt lat="47.3288" lon="5.06493">
        <ele>257.704583</ele>
        <time>2020-10-11T06:38:33.246Z</time>
      </trkpt>
      <trkpt lat="47.32882" lon="5.06498">
        <ele>257.722828</ele>
        <time>2020-10-11T06:38:34.069Z</time>
      </trkpt>
      <trkpt lat="47.32887" lon="5.06505">
        <ele>257.752105</ele>
        <time>2020-10-11T06:38:35.464Z</time>
      </trkpt>
      <trkpt lat="47.3288" lon="5.06521">
        <ele>257.812579</ele>
        <time>2020-10-11T06:38:38.271Z</time>
      </trkpt>
      <trkpt lat="47.32881" lon="5.06529">
        <ele>257.835126</ele>
        <time>2020-10-11T06:38:39.322Z</time>
      </trkpt>
      <trkpt lat="47.32881" lon="5.06567">
        <ele>257.958242</ele>
        <time>2020-10-11T06:38:45.161Z</time>
      </trkpt>
      <trkpt lat="47.32882" lon="5.06685">
        <ele>258.321974</ele>
        <time>2020-10-11T06:39:02.708Z</time>
      </trkpt>
      <trkpt lat="47.32882" lon="5.06863">
        <ele>258.824117</ele>
        <time>2020-10-11T06:39:29.760Z</time>
      </trkpt>
      <trkpt lat="47.32881" lon="5.06919">
        <ele>258.980723</ele>
        <time>2020-10-11T06:39:39.353Z</time>
      </trkpt>
      <trkpt lat="47.32881" lon="5.06932">
        <ele>259.041233</ele>
        <time>2020-10-11T06:39:41.602Z</time>
      </trkpt>
      <trkpt lat="47.32879" lon="5.06946">
        <ele>259.158557</ele>
        <time>2020-10-11T06:39:44.076Z</time>
      </trkpt>
      <trkpt lat="47.32875" lon="5.06971">
        <ele>259.365911</ele>
        <time>2020-10-11T06:39:48.645Z</time>
      </trkpt>
      <trkpt lat="47.32873" lon="5.06979">
        <ele>259.439908</ele>
        <time>2020-10-11T06:39:50.268Z</time>
      </trkpt>
      <trkpt lat="47.32865" lon="5.07018">
        <ele>259.767777</ele>
        <time>2020-10-11T06:39:57.471Z</time>
      </trkpt>
      <trkpt lat="47.32864" lon="5.07023">
        <ele>259.811222</ele>
        <time>2020-10-11T06:39:58.399Z</time>
      </trkpt>
      <trkpt lat="47.32863" lon="5.0703">
        <ele>259.862548</ele>
        <time>2020-10-11T06:39:59.638Z</time>
      </trkpt>
      <trkpt lat="47.32864" lon="5.07051">
        <ele>260.036921</ele>
        <time>2020-10-11T06:40:03.457Z</time>
      </trkpt>
      <trkpt lat="47.32866" lon="5.07061">
        <ele>260.123809</ele>
        <time>2020-10-11T06:40:05.615Z</time>
      </trkpt>
      <trkpt lat="47.32869" lon="5.07072">
        <ele>260.221675</ele>
        <time>2020-10-11T06:40:07.889Z</time>
      </trkpt>
      <trkpt lat="47.32875" lon="5.07087">
        <ele>260.359716</ele>
        <time>2020-10-11T06:40:11.048Z</time>
      </trkpt>
      <trkpt lat="47.32875" lon="5.07087">
        <ele>260.361159</ele>
        <time>2020-10-11T06:40:11.223Z</time>
      </trkpt>
      <trkpt lat="47.32886" lon="5.07101">
        <ele>260.534675</ele>
        <time>2020-10-11T06:40:15.362Z</time>
      </trkpt>
      <trkpt lat="47.32906" lon="5.07126">
        <ele>260.848651</ele>
        <time>2020-10-11T06:40:22.993Z</time>
      </trkpt>
      <trkpt lat="47.32911" lon="5.07133">
        <ele>260.929549</ele>
        <time>2020-10-11T06:40:25.071Z</time>
      </trkpt>
      <trkpt lat="47.32916" lon="5.07145">
        <ele>261.04565</ele>
        <time>2020-10-11T06:40:28.059Z</time>
      </trkpt>
      <trkpt lat="47.32919" lon="5.07161">
        <ele>261.177787</ele>
        <time>2020-10-11T06:40:31.471Z</time>
      </trkpt>
      <trkpt lat="47.32923" lon="5.07182">
        <ele>261.346231</ele>
        <time>2020-10-11T06:40:35.973Z</time>
      </trkpt>
      <trkpt lat="47.32959" lon="5.07368">
        <ele>262.826802</ele>
        <time>2020-10-11T06:41:12.152Z</time>
      </trkpt>
      <trkpt lat="47.32985" lon="5.07505">
        <ele>263.132013</ele>
        <time>2020-10-11T06:41:35.356Z</time>
      </trkpt>
      <trkpt lat="47.32995" lon="5.07557">
        <ele>263.099062</ele>
        <time>2020-10-11T06:41:42.778Z</time>
      </trkpt>
      <trkpt lat="47.33007" lon="5.07629">
        <ele>263.052603</ele>
        <time>2020-10-11T06:41:52.441Z</time>
      </trkpt>
      <trkpt lat="47.33024" lon="5.0772">
        <ele>262.47719</ele>
        <time>2020-10-11T06:42:03.262Z</time>
      </trkpt>
      <trkpt lat="47.33027" lon="5.07738">
        <ele>262.268976</ele>
        <time>2020-10-11T06:42:05.423Z</time>
      </trkpt>
      <trkpt lat="47.33029" lon="5.07757">
        <ele>262.068807</ele>
        <time>2020-10-11T06:42:07.478Z</time>
      </trkpt>
      <trkpt lat="47.3303" lon="5.07765">
        <ele>261.984327</ele>
        <time>2020-10-11T06:42:08.398Z</time>
      </trkpt>
      <trkpt lat="47.33027" lon="5.07777">
        <ele>261.845307</ele>
        <time>2020-10-11T06:42:09.904Z</time>
      </trkpt>
      <trkpt lat="47.33025" lon="5.07783">
        <ele>261.778039</ele>
        <time>2020-10-11T06:42:10.602Z</time>
      </trkpt>
      <trkpt lat="47.33024" lon="5.07789">
        <ele>261.712741</ele>
        <time>2020-10-11T06:42:11.290Z</time>
      </trkpt>
      <trkpt lat="47.33025" lon="5.07795">
        <ele>261.643279</ele>
        <time>2020-10-11T06:42:12.003Z</time>
      </trkpt>
      <trkpt lat="47.33028" lon="5.07801">
        <ele>261.574601</ele>
        <time>2020-10-11T06:42:12.714Z</time>
      </trkpt>
      <trkpt lat="47.33029" lon="5.07803">
        <ele>261.534684</ele>
        <time>2020-10-11T06:42:13.125Z</time>
      </trkpt>
      <trkpt lat="47.33033" lon="5.07806">
        <ele>261.466207</ele>
        <time>2020-10-11T06:42:13.863Z</time>
      </trkpt>
      <trkpt lat="47.3304" lon="5.07806">
        <ele>261.362674</ele>
        <time>2020-10-11T06:42:14.981Z</time>
      </trkpt>
      <trkpt lat="47.33043" lon="5.07822">
        <ele>261.192601</ele>
        <time>2020-10-11T06:42:16.702Z</time>
      </trkpt>
      <trkpt lat="47.3305" lon="5.07871">
        <ele>260.653873</ele>
        <time>2020-10-11T06:42:22.015Z</time>
      </trkpt>
      <trkpt lat="47.3306" lon="5.07938">
        <ele>259.758007</ele>
        <time>2020-10-11T06:42:29.027Z</time>
      </trkpt>
      <trkpt lat="47.33074" lon="5.08034">
        <ele>258.091195</ele>
        <time>2020-10-11T06:42:38.863Z</time>
      </trkpt>
      <trkpt lat="47.33094" lon="5.08173">
        <ele>255.669007</ele>
        <time>2020-10-11T06:42:53.041Z</time>
      </trkpt>
      <trkpt lat="47.33146" lon="5.08523">
        <ele>250.286195</ele>
        <time>2020-10-11T06:43:29.339Z</time>
      </trkpt>
      <trkpt lat="47.33158" lon="5.08596">
        <ele>249.441387</ele>
        <time>2020-10-11T06:43:37.551Z</time>
      </trkpt>
      <trkpt lat="47.33183" lon="5.08756">
        <ele>247.787058</ele>
        <time>2020-10-11T06:43:56.631Z</time>
      </trkpt>
      <trkpt lat="47.33184" lon="5.08761">
        <ele>247.747263</ele>
        <time>2020-10-11T06:43:57.203Z</time>
      </trkpt>
      <trkpt lat="47.33208" lon="5.08901">
        <ele>246.512909</ele>
        <time>2020-10-11T06:44:13.668Z</time>
      </trkpt>
      <trkpt lat="47.33219" lon="5.08982">
        <ele>245.399319</ele>
        <time>2020-10-11T06:44:22.592Z</time>
      </trkpt>
      <trkpt lat="47.33222" lon="5.09002">
        <ele>244.99229</ele>
        <time>2020-10-11T06:44:24.698Z</time>
      </trkpt>
      <trkpt lat="47.33228" lon="5.09049">
        <ele>244.041866</ele>
        <time>2020-10-11T06:44:29.564Z</time>
      </trkpt>
      <trkpt lat="47.33229" lon="5.09059">
        <ele>243.830513</ele>
        <time>2020-10-11T06:44:30.604Z</time>
      </trkpt>
      <trkpt lat="47.33247" lon="5.09148">
        <ele>241.96359</ele>
        <time>2020-10-11T06:44:39.435Z</time>
      </trkpt>
      <trkpt lat="47.33266" lon="5.0924">
        <ele>239.781411</ele>
        <time>2020-10-11T06:44:48.463Z</time>
      </trkpt>
      <trkpt lat="47.33274" lon="5.09269">
        <ele>238.965518</ele>
        <time>2020-10-11T06:44:51.356Z</time>
      </trkpt>
      <trkpt lat="47.33276" lon="5.09277">
        <ele>238.736872</ele>
        <time>2020-10-11T06:44:52.169Z</time>
      </trkpt>
      <trkpt lat="47.33279" lon="5.09287">
        <ele>238.448928</ele>
        <time>2020-10-11T06:44:53.101Z</time>
      </trkpt>
      <trkpt lat="47.33325" lon="5.09422">
        <ele>234.414162</ele>
        <time>2020-10-11T06:45:07.185Z</time>
      </trkpt>
      <trkpt lat="47.33357" lon="5.09493">
        <ele>232.55956</ele>
        <time>2020-10-11T06:45:15.147Z</time>
      </trkpt>
      <trkpt lat="47.33368" lon="5.09546">
        <ele>231.469725</ele>
        <time>2020-10-11T06:45:20.604Z</time>
      </trkpt>
      <trkpt lat="47.33377" lon="5.0955">
        <ele>231.211881</ele>
        <time>2020-10-11T06:45:21.906Z</time>
      </trkpt>
      <trkpt lat="47.33384" lon="5.09556">
        <ele>230.985823</ele>
        <time>2020-10-11T06:45:23.036Z</time>
      </trkpt>
      <trkpt lat="47.3339" lon="5.09568">
        <ele>230.679582</ele>
        <time>2020-10-11T06:45:24.555Z</time>
      </trkpt>
      <trkpt lat="47.33434" lon="5.09665">
        <ele>228.456901</ele>
        <time>2020-10-11T06:45:36.262Z</time>
      </trkpt>
      <trkpt lat="47.33475" lon="5.09756">
        <ele>227.350286</ele>
        <time>2020-10-11T06:45:48.059Z</time>
      </trkpt>
      <trkpt lat="47.33512" lon="5.09854">
        <ele>226.208009</ele>
        <time>2020-10-11T06:46:00.443Z</time>
      </trkpt>
      <trkpt lat="47.33528" lon="5.09904">
        <ele>225.724284</ele>
        <time>2020-10-11T06:46:06.877Z</time>
      </trkpt>
      <trkpt lat="47.33544" lon="5.09952">
        <ele>225.449789</ele>
        <time>2020-10-11T06:46:13.300Z</time>
      </trkpt>
      <trkpt lat="47.33571" lon="5.10029">
        <ele>225.007282</ele>
        <time>2020-10-11T06:46:23.856Z</time>
      </trkpt>
      <trkpt lat="47.33588" lon="5.10073">
        <ele>224.748016</ele>
        <time>2020-10-11T06:46:30.012Z</time>
      </trkpt>
      <trkpt lat="47.33586" lon="5.10081">
        <ele>224.700163</ele>
        <time>2020-10-11T06:46:31.539Z</time>
      </trkpt>
      <trkpt lat="47.33596" lon="5.10104">
        <ele>224.561276</ele>
        <time>2020-10-11T06:46:36.295Z</time>
      </trkpt>
      <trkpt lat="47.33622" lon="5.10156">
        <ele>224.302524</ele>
        <time>2020-10-11T06:46:47.686Z</time>
      </trkpt>
      <trkpt lat="47.33634" lon="5.10176">
        <ele>224.213732</ele>
        <time>2020-10-11T06:46:52.186Z</time>
      </trkpt>
      <trkpt lat="47.33853" lon="5.10599">
        <ele>222.204639</ele>
        <time>2020-10-11T06:48:26.213Z</time>
      </trkpt>
      <trkpt lat="47.33861" lon="5.1061">
        <ele>222.111013</ele>
        <time>2020-10-11T06:48:28.872Z</time>
      </trkpt>
      <trkpt lat="47.33858" lon="5.1062">
        <ele>222.051016</ele>
        <time>2020-10-11T06:48:30.072Z</time>
      </trkpt>
      <trkpt lat="47.33859" lon="5.10641">
        <ele>221.932503</ele>
        <time>2020-10-11T06:48:32.659Z</time>
      </trkpt>
      <trkpt lat="47.33862" lon="5.10651">
        <ele>221.872655</ele>
        <time>2020-10-11T06:48:33.894Z</time>
      </trkpt>
      <trkpt lat="47.33869" lon="5.10661">
        <ele>221.793136</ele>
        <time>2020-10-11T06:48:35.495Z</time>
      </trkpt>
      <trkpt lat="47.33873" lon="5.10664">
        <ele>221.749742</ele>
        <time>2020-10-11T06:48:36.365Z</time>
      </trkpt>
      <trkpt lat="47.33877" lon="5.10666">
        <ele>221.714345</ele>
        <time>2020-10-11T06:48:37.123Z</time>
      </trkpt>
      <trkpt lat="47.33896" lon="5.10662">
        <ele>221.55817</ele>
        <time>2020-10-11T06:48:40.478Z</time>
      </trkpt>
      <trkpt lat="47.33903" lon="5.10652">
        <ele>221.479001</ele>
        <time>2020-10-11T06:48:42.072Z</time>
      </trkpt>
      <trkpt lat="47.33939" lon="5.10692">
        <ele>221.102144</ele>
        <time>2020-10-11T06:48:49.866Z</time>
      </trkpt>
      <trkpt lat="47.33944" lon="5.10697">
        <ele>221.06257</ele>
        <time>2020-10-11T06:48:50.834Z</time>
      </trkpt>
      <trkpt lat="47.33955" lon="5.10709">
        <ele>220.958726</ele>
        <time>2020-10-11T06:48:53.245Z</time>
      </trkpt>
      <trkpt lat="47.34006" lon="5.10784">
        <ele>220.424306</ele>
        <time>2020-10-11T06:49:05.881Z</time>
      </trkpt>
      <trkpt lat="47.34037" lon="5.1083">
        <ele>220.098138</ele>
        <time>2020-10-11T06:49:13.777Z</time>
      </trkpt>
      <trkpt lat="47.3413" lon="5.11039">
        <ele>219.317449</ele>
        <time>2020-10-11T06:49:45.209Z</time>
      </trkpt>
      <trkpt lat="47.34135" lon="5.1105">
        <ele>219.284282</ele>
        <time>2020-10-11T06:49:46.801Z</time>
      </trkpt>
      <trkpt lat="47.3423" lon="5.11259">
        <ele>219.024337</ele>
        <time>2020-10-11T06:50:22.464Z</time>
      </trkpt>
      <trkpt lat="47.34317" lon="5.11437">
        <ele>218.526724</ele>
        <time>2020-10-11T06:50:51.731Z</time>
      </trkpt>
      <trkpt lat="47.34335" lon="5.11487">
        <ele>218.341564</ele>
        <time>2020-10-11T06:50:58.488Z</time>
      </trkpt>
      <trkpt lat="47.34377" lon="5.11615">
        <ele>217.823573</ele>
        <time>2020-10-11T06:51:15.703Z</time>
      </trkpt>
      <trkpt lat="47.34382" lon="5.11635">
        <ele>217.738562</ele>
        <time>2020-10-11T06:51:18.213Z</time>
      </trkpt>
      <trkpt lat="47.34385" lon="5.1165">
        <ele>217.677085</ele>
        <time>2020-10-11T06:51:20.091Z</time>
      </trkpt>
      <trkpt lat="47.34388" lon="5.11659">
        <ele>217.6358</ele>
        <time>2020-10-11T06:51:21.394Z</time>
      </trkpt>
      <trkpt lat="47.3446" lon="5.11935">
        <ele>216.727494</ele>
        <time>2020-10-11T06:51:59.120Z</time>
      </trkpt>
      <trkpt lat="47.34474" lon="5.11991">
        <ele>216.597317</ele>
        <time>2020-10-11T06:52:07.059Z</time>
      </trkpt>
      <trkpt lat="47.34512" lon="5.12137">
        <ele>216.43649</ele>
        <time>2020-10-11T06:52:28.243Z</time>
      </trkpt>
      <trkpt lat="47.34535" lon="5.12188">
        <ele>216.413212</ele>
        <time>2020-10-11T06:52:36.585Z</time>
      </trkpt>
      <trkpt lat="47.34593" lon="5.12274">
        <ele>216.462703</ele>
        <time>2020-10-11T06:52:53.722Z</time>
      </trkpt>
      <trkpt lat="47.34609" lon="5.12293">
        <ele>216.620614</ele>
        <time>2020-10-11T06:52:58.592Z</time>
      </trkpt>
      <trkpt lat="47.34607" lon="5.12296">
        <ele>216.64193</ele>
        <time>2020-10-11T06:52:59.100Z</time>
      </trkpt>
      <trkpt lat="47.34606" lon="5.12307">
        <ele>216.701706</ele>
        <time>2020-10-11T06:53:00.797Z</time>
      </trkpt>
      <trkpt lat="47.34607" lon="5.12309">
        <ele>216.712404</ele>
        <time>2020-10-11T06:53:01.038Z</time>
      </trkpt>
      <trkpt lat="47.34609" lon="5.12312">
        <ele>216.733361</ele>
        <time>2020-10-11T06:53:01.625Z</time>
      </trkpt>
      <trkpt lat="47.34611" lon="5.12314">
        <ele>216.754541</ele>
        <time>2020-10-11T06:53:02.261Z</time>
      </trkpt>
      <trkpt lat="47.34614" lon="5.12315">
        <ele>216.77728</ele>
        <time>2020-10-11T06:53:03.035Z</time>
      </trkpt>
      <trkpt lat="47.34619" lon="5.12311">
        <ele>216.817848</ele>
        <time>2020-10-11T06:53:04.296Z</time>
      </trkpt>
      <trkpt lat="47.34621" lon="5.12308">
        <ele>216.839004</ele>
        <time>2020-10-11T06:53:05.027Z</time>
      </trkpt>
      <trkpt lat="47.34671" lon="5.12389">
        <ele>217.402381</ele>
        <time>2020-10-11T06:53:23.286Z</time>
      </trkpt>
      <trkpt lat="47.34713" lon="5.12455">
        <ele>218.152207</ele>
        <time>2020-10-11T06:53:41.057Z</time>
      </trkpt>
      <trkpt lat="47.34735" lon="5.12477">
        <ele>218.769506</ele>
        <time>2020-10-11T06:53:49.221Z</time>
      </trkpt>
      <trkpt lat="47.34787" lon="5.12521">
        <ele>220.172286</ele>
        <time>2020-10-11T06:54:08.466Z</time>
      </trkpt>
      <trkpt lat="47.3483" lon="5.12565">
        <ele>221.40199</ele>
        <time>2020-10-11T06:54:28.518Z</time>
      </trkpt>
      <trkpt lat="47.34907" lon="5.12639">
        <ele>223.756885</ele>
        <time>2020-10-11T06:55:03.821Z</time>
      </trkpt>
      <trkpt lat="47.3492" lon="5.12667">
        <ele>224.365816</ele>
        <time>2020-10-11T06:55:12.485Z</time>
      </trkpt>
      <trkpt lat="47.34925" lon="5.12677">
        <ele>224.573686</ele>
        <time>2020-10-11T06:55:15.108Z</time>
      </trkpt>
      <trkpt lat="47.3493" lon="5.12712">
        <ele>225.209036</ele>
        <time>2020-10-11T06:55:23.259Z</time>
      </trkpt>
      <trkpt lat="47.34918" lon="5.12762">
        <ele>226.165376</ele>
        <time>2020-10-11T06:55:34.153Z</time>
      </trkpt>
      <trkpt lat="47.34876" lon="5.12916">
        <ele>228.599475</ele>
        <time>2020-10-11T06:56:13.064Z</time>
      </trkpt>
      <trkpt lat="47.34873" lon="5.12928">
        <ele>228.771909</ele>
        <time>2020-10-11T06:56:15.830Z</time>
      </trkpt>
      <trkpt lat="47.34871" lon="5.12939">
        <ele>228.935362</ele>
        <time>2020-10-11T06:56:17.993Z</time>
      </trkpt>
      <trkpt lat="47.3487" lon="5.12951">
        <ele>229.098439</ele>
        <time>2020-10-11T06:56:20.264Z</time>
      </trkpt>
      <trkpt lat="47.3487" lon="5.12962">
        <ele>229.255285</ele>
        <time>2020-10-11T06:56:22.422Z</time>
      </trkpt>
      <trkpt lat="47.34871" lon="5.12969">
        <ele>229.363285</ele>
        <time>2020-10-11T06:56:25.122Z</time>
      </trkpt>
      <trkpt lat="47.34874" lon="5.12997">
        <ele>229.751764</ele>
        <time>2020-10-11T06:56:30.220Z</time>
      </trkpt>
      <trkpt lat="47.34899" lon="5.1315">
        <ele>231.151596</ele>
        <time>2020-10-11T06:57:03.553Z</time>
      </trkpt>
      <trkpt lat="47.34924" lon="5.13302">
        <ele>232.151392</ele>
        <time>2020-10-11T06:57:30.141Z</time>
      </trkpt>
      <trkpt lat="47.34926" lon="5.13357">
        <ele>231.474537</ele>
        <time>2020-10-11T06:57:36.696Z</time>
      </trkpt>
      <trkpt lat="47.34922" lon="5.13409">
        <ele>230.834134</ele>
        <time>2020-10-11T06:57:42.320Z</time>
      </trkpt>
      <trkpt lat="47.34918" lon="5.13427">
        <ele>230.604781</ele>
        <time>2020-10-11T06:57:44.324Z</time>
      </trkpt>
      <trkpt lat="47.34916" lon="5.13436">
        <ele>230.494726</ele>
        <time>2020-10-11T06:57:45.152Z</time>
      </trkpt>
      <trkpt lat="47.349" lon="5.13483">
        <ele>229.852213</ele>
        <time>2020-10-11T06:57:50.513Z</time>
      </trkpt>
      <trkpt lat="47.34877" lon="5.13525">
        <ele>229.190355</ele>
        <time>2020-10-11T06:57:55.870Z</time>
      </trkpt>
      <trkpt lat="47.34839" lon="5.13567">
        <ele>227.985385</ele>
        <time>2020-10-11T06:58:02.775Z</time>
      </trkpt>
      <trkpt lat="47.34738" lon="5.13632">
        <ele>224.908196</ele>
        <time>2020-10-11T06:58:18.613Z</time>
      </trkpt>
      <trkpt lat="47.34714" lon="5.13665">
        <ele>224.002435</ele>
        <time>2020-10-11T06:58:23.377Z</time>
      </trkpt>
      <trkpt lat="47.34698" lon="5.13721">
        <ele>223.310181</ele>
        <time>2020-10-11T06:58:29.482Z</time>
      </trkpt>
      <trkpt lat="47.34676" lon="5.13868">
        <ele>221.658307</ele>
        <time>2020-10-11T06:58:45.941Z</time>
      </trkpt>
      <trkpt lat="47.34674" lon="5.13868">
        <ele>221.617823</ele>
        <time>2020-10-11T06:58:46.356Z</time>
      </trkpt>
      <trkpt lat="47.34661" lon="5.13877">
        <ele>221.381323</ele>
        <time>2020-10-11T06:58:48.878Z</time>
      </trkpt>
      <trkpt lat="47.34659" lon="5.13881">
        <ele>221.333247</ele>
        <time>2020-10-11T06:58:49.368Z</time>
      </trkpt>
      <trkpt lat="47.34657" lon="5.13887">
        <ele>221.264636</ele>
        <time>2020-10-11T06:58:50.116Z</time>
      </trkpt>
      <trkpt lat="47.34657" lon="5.13893">
        <ele>221.196853</ele>
        <time>2020-10-11T06:58:50.867Z</time>
      </trkpt>
      <trkpt lat="47.34657" lon="5.13899">
        <ele>221.128752</ele>
        <time>2020-10-11T06:58:51.589Z</time>
      </trkpt>
      <trkpt lat="47.34658" lon="5.13904">
        <ele>221.071635</ele>
        <time>2020-10-11T06:58:52.210Z</time>
      </trkpt>
      <trkpt lat="47.3466" lon="5.13909">
        <ele>221.013263</ele>
        <time>2020-10-11T06:58:52.829Z</time>
      </trkpt>
      <trkpt lat="47.34662" lon="5.13913">
        <ele>220.987797</ele>
        <time>2020-10-11T06:58:53.483Z</time>
      </trkpt>
      <trkpt lat="47.34664" lon="5.13916">
        <ele>220.964131</ele>
        <time>2020-10-11T06:58:54.100Z</time>
      </trkpt>
      <trkpt lat="47.34674" lon="5.1392">
        <ele>220.892524</ele>
        <time>2020-10-11T06:58:55.866Z</time>
      </trkpt>
      <trkpt lat="47.34678" lon="5.1392">
        <ele>220.868681</ele>
        <time>2020-10-11T06:58:56.507Z</time>
      </trkpt>
      <trkpt lat="47.3468" lon="5.13919">
        <ele>220.848299</ele>
        <time>2020-10-11T06:58:57.051Z</time>
      </trkpt>
      <trkpt lat="47.34689" lon="5.13908">
        <ele>220.767808</ele>
        <time>2020-10-11T06:58:59.087Z</time>
      </trkpt>
      <trkpt lat="47.34691" lon="5.13904">
        <ele>220.74732</ele>
        <time>2020-10-11T06:58:59.661Z</time>
      </trkpt>
      <trkpt lat="47.34699" lon="5.13909">
        <ele>220.688322</ele>
        <time>2020-10-11T06:59:01.193Z</time>
      </trkpt>
      <trkpt lat="47.34709" lon="5.13932">
        <ele>220.558883</ele>
        <time>2020-10-11T06:59:04.429Z</time>
      </trkpt>
      <trkpt lat="47.34706" lon="5.13963">
        <ele>220.414779</ele>
        <time>2020-10-11T06:59:08.160Z</time>
      </trkpt>
      <trkpt lat="47.34648" lon="5.14093">
        <ele>219.696569</ele>
        <time>2020-10-11T06:59:27.597Z</time>
      </trkpt>
      <trkpt lat="47.34641" lon="5.14113">
        <ele>219.61105</ele>
        <time>2020-10-11T06:59:30.462Z</time>
      </trkpt>
      <trkpt lat="47.34635" lon="5.14135">
        <ele>219.529491</ele>
        <time>2020-10-11T06:59:33.264Z</time>
      </trkpt>
      <trkpt lat="47.34622" lon="5.1421">
        <ele>219.248106</ele>
        <time>2020-10-11T06:59:42.854Z</time>
      </trkpt>
      <trkpt lat="47.34589" lon="5.14515">
        <ele>218.279272</ele>
        <time>2020-10-11T07:00:22.078Z</time>
      </trkpt>
      <trkpt lat="47.34477" lon="5.15176">
        <ele>216.948192</ele>
        <time>2020-10-11T07:01:51.914Z</time>
      </trkpt>
      <trkpt lat="47.34467" lon="5.15233">
        <ele>216.875232</ele>
        <time>2020-10-11T07:01:59.752Z</time>
      </trkpt>
      <trkpt lat="47.34462" lon="5.15262">
        <ele>216.839406</ele>
        <time>2020-10-11T07:02:03.642Z</time>
      </trkpt>
      <trkpt lat="47.34461" lon="5.15293">
        <ele>216.801097</ele>
        <time>2020-10-11T07:02:07.773Z</time>
      </trkpt>
      <trkpt lat="47.34462" lon="5.15326">
        <ele>216.759445</ele>
        <time>2020-10-11T07:02:12.455Z</time>
      </trkpt>
      <trkpt lat="47.34465" lon="5.15347">
        <ele>216.73351</ele>
        <time>2020-10-11T07:02:15.243Z</time>
      </trkpt>
      <trkpt lat="47.34475" lon="5.15384">
        <ele>216.693238</ele>
        <time>2020-10-11T07:02:20.897Z</time>
      </trkpt>
      <trkpt lat="47.3449" lon="5.15418">
        <ele>216.66346</ele>
        <time>2020-10-11T07:02:26.476Z</time>
      </trkpt>
      <trkpt lat="47.34546" lon="5.15494">
        <ele>216.581052</ele>
        <time>2020-10-11T07:02:41.776Z</time>
      </trkpt>
      <trkpt lat="47.34551" lon="5.15523">
        <ele>216.559024</ele>
        <time>2020-10-11T07:02:45.855Z</time>
      </trkpt>
      <trkpt lat="47.34548" lon="5.15543">
        <ele>216.544521</ele>
        <time>2020-10-11T07:02:48.464Z</time>
      </trkpt>
      <trkpt lat="47.34545" lon="5.15552">
        <ele>216.537077</ele>
        <time>2020-10-11T07:02:49.969Z</time>
      </trkpt>
      <trkpt lat="47.34536" lon="5.15559">
        <ele>216.525925</ele>
        <time>2020-10-11T07:02:52.040Z</time>
      </trkpt>
      <trkpt lat="47.34515" lon="5.15569">
        <ele>216.494157</ele>
        <time>2020-10-11T07:02:56.514Z</time>
      </trkpt>
      <trkpt lat="47.34511" lon="5.1557">
        <ele>216.485298</ele>
        <time>2020-10-11T07:02:57.406Z</time>
      </trkpt>
      <trkpt lat="47.34507" lon="5.15565">
        <ele>216.474544</ele>
        <time>2020-10-11T07:02:58.464Z</time>
      </trkpt>
      <trkpt lat="47.34493" lon="5.15556">
        <ele>216.442788</ele>
        <time>2020-10-11T07:03:01.546Z</time>
      </trkpt>
      <trkpt lat="47.34488" lon="5.15555">
        <ele>216.432004</ele>
        <time>2020-10-11T07:03:02.556Z</time>
      </trkpt>
      <trkpt lat="47.34484" lon="5.15555">
        <ele>216.423395</ele>
        <time>2020-10-11T07:03:03.397Z</time>
      </trkpt>
      <trkpt lat="47.34468" lon="5.15562">
        <ele>216.389078</ele>
        <time>2020-10-11T07:03:06.889Z</time>
      </trkpt>
      <trkpt lat="47.34465" lon="5.15566">
        <ele>216.380374</ele>
        <time>2020-10-11T07:03:07.670Z</time>
      </trkpt>
      <trkpt lat="47.34462" lon="5.1557">
        <ele>216.371913</ele>
        <time>2020-10-11T07:03:08.439Z</time>
      </trkpt>
      <trkpt lat="47.34457" lon="5.15579">
        <ele>216.355003</ele>
        <time>2020-10-11T07:03:10.022Z</time>
      </trkpt>
      <trkpt lat="47.34455" lon="5.15584">
        <ele>216.346598</ele>
        <time>2020-10-11T07:03:10.839Z</time>
      </trkpt>
      <trkpt lat="47.34453" lon="5.1559">
        <ele>216.337739</ele>
        <time>2020-10-11T07:03:11.755Z</time>
      </trkpt>
      <trkpt lat="47.34451" lon="5.15608">
        <ele>216.311368</ele>
        <time>2020-10-11T07:03:14.292Z</time>
      </trkpt>
      <trkpt lat="47.34452" lon="5.15614">
        <ele>216.302508</ele>
        <time>2020-10-11T07:03:15.077Z</time>
      </trkpt>
      <trkpt lat="47.34452" lon="5.15621">
        <ele>216.29293</ele>
        <time>2020-10-11T07:03:15.943Z</time>
      </trkpt>
      <trkpt lat="47.34459" lon="5.15639">
        <ele>216.264298</ele>
        <time>2020-10-11T07:03:18.657Z</time>
      </trkpt>
      <trkpt lat="47.34462" lon="5.15644">
        <ele>216.25469</ele>
        <time>2020-10-11T07:03:19.524Z</time>
      </trkpt>
      <trkpt lat="47.34466" lon="5.1565">
        <ele>216.242171</ele>
        <time>2020-10-11T07:03:20.766Z</time>
      </trkpt>
      <trkpt lat="47.34477" lon="5.15657">
        <ele>216.21705</ele>
        <time>2020-10-11T07:03:22.972Z</time>
      </trkpt>
      <trkpt lat="47.34483" lon="5.15659">
        <ele>216.204661</ele>
        <time>2020-10-11T07:03:24.095Z</time>
      </trkpt>
      <trkpt lat="47.34488" lon="5.15659">
        <ele>216.19332</ele>
        <time>2020-10-11T07:03:25.141Z</time>
      </trkpt>
      <trkpt lat="47.34494" lon="5.15658">
        <ele>216.181894</ele>
        <time>2020-10-11T07:03:26.115Z</time>
      </trkpt>
      <trkpt lat="47.34499" lon="5.15656">
        <ele>216.170334</ele>
        <time>2020-10-11T07:03:27.230Z</time>
      </trkpt>
      <trkpt lat="47.34506" lon="5.15658">
        <ele>216.155158</ele>
        <time>2020-10-11T07:03:28.608Z</time>
      </trkpt>
      <trkpt lat="47.34519" lon="5.15667">
        <ele>216.116633</ele>
        <time>2020-10-11T07:03:31.302Z</time>
      </trkpt>
      <trkpt lat="47.34528" lon="5.15685">
        <ele>216.056368</ele>
        <time>2020-10-11T07:03:34.363Z</time>
      </trkpt>
      <trkpt lat="47.34604" lon="5.15877">
        <ele>215.467609</ele>
        <time>2020-10-11T07:04:02.604Z</time>
      </trkpt>
      <trkpt lat="47.34624" lon="5.15943">
        <ele>215.485898</ele>
        <time>2020-10-11T07:04:12.347Z</time>
      </trkpt>
      <trkpt lat="47.34631" lon="5.15956">
        <ele>215.501704</ele>
        <time>2020-10-11T07:04:14.262Z</time>
      </trkpt>
      <trkpt lat="47.34676" lon="5.16107">
        <ele>215.667911</ele>
        <time>2020-10-11T07:04:38.949Z</time>
      </trkpt>
      <trkpt lat="47.34681" lon="5.16123">
        <ele>215.685875</ele>
        <time>2020-10-11T07:04:42.003Z</time>
      </trkpt>
      <trkpt lat="47.34722" lon="5.16259">
        <ele>216.19882</ele>
        <time>2020-10-11T07:05:06.858Z</time>
      </trkpt>
      <trkpt lat="47.34739" lon="5.16314">
        <ele>216.414839</ele>
        <time>2020-10-11T07:05:16.653Z</time>
      </trkpt>
      <trkpt lat="47.34743" lon="5.16325">
        <ele>216.459214</ele>
        <time>2020-10-11T07:05:18.676Z</time>
      </trkpt>
      <trkpt lat="47.34748" lon="5.16339">
        <ele>216.515905</ele>
        <time>2020-10-11T07:05:21.200Z</time>
      </trkpt>
      <trkpt lat="47.3476" lon="5.16375">
        <ele>216.650009</ele>
        <time>2020-10-11T07:05:27.575Z</time>
      </trkpt>
      <trkpt lat="47.34765" lon="5.16389">
        <ele>216.663545</ele>
        <time>2020-10-11T07:05:30.069Z</time>
      </trkpt>
      <trkpt lat="47.34769" lon="5.164">
        <ele>216.673368</ele>
        <time>2020-10-11T07:05:31.838Z</time>
      </trkpt>
      <trkpt lat="47.34848" lon="5.16627">
        <ele>216.841482</ele>
        <time>2020-10-11T07:06:08.336Z</time>
      </trkpt>
      <trkpt lat="47.34862" lon="5.16674">
        <ele>216.772781</ele>
        <time>2020-10-11T07:06:15.544Z</time>
      </trkpt>
      <trkpt lat="47.34887" lon="5.16767">
        <ele>216.642783</ele>
        <time>2020-10-11T07:06:28.985Z</time>
      </trkpt>
      <trkpt lat="47.34886" lon="5.16787">
        <ele>216.61642</ele>
        <time>2020-10-11T07:06:31.627Z</time>
      </trkpt>
      <trkpt lat="47.34884" lon="5.16799">
        <ele>216.60007</ele>
        <time>2020-10-11T07:06:33.263Z</time>
      </trkpt>
      <trkpt lat="47.34888" lon="5.16815">
        <ele>216.577407</ele>
        <time>2020-10-11T07:06:35.458Z</time>
      </trkpt>
      <trkpt lat="47.34896" lon="5.16825">
        <ele>216.557606</ele>
        <time>2020-10-11T07:06:37.400Z</time>
      </trkpt>
      <trkpt lat="47.34904" lon="5.16841">
        <ele>216.531225</ele>
        <time>2020-10-11T07:06:40.059Z</time>
      </trkpt>
      <trkpt lat="47.3491" lon="5.16878">
        <ele>216.471215</ele>
        <time>2020-10-11T07:06:45.001Z</time>
      </trkpt>
      <trkpt lat="47.34917" lon="5.16936">
        <ele>216.375787</ele>
        <time>2020-10-11T07:06:52.698Z</time>
      </trkpt>
      <trkpt lat="47.34918" lon="5.17027">
        <ele>216.227713</ele>
        <time>2020-10-11T07:07:04.642Z</time>
      </trkpt>
      <trkpt lat="47.3492" lon="5.17175">
        <ele>216.044546</ele>
        <time>2020-10-11T07:07:24.694Z</time>
      </trkpt>
      <trkpt lat="47.34919" lon="5.17293">
        <ele>215.962803</ele>
        <time>2020-10-11T07:07:40.911Z</time>
      </trkpt>
      <trkpt lat="47.34918" lon="5.17324">
        <ele>215.940862</ele>
        <time>2020-10-11T07:07:45.318Z</time>
      </trkpt>
      <trkpt lat="47.34914" lon="5.17365">
        <ele>215.912106</ele>
        <time>2020-10-11T07:07:51.024Z</time>
      </trkpt>
      <trkpt lat="47.34882" lon="5.17588">
        <ele>216.138107</ele>
        <time>2020-10-11T07:08:23.506Z</time>
      </trkpt>
      <trkpt lat="47.34864" lon="5.17717">
        <ele>216.567388</ele>
        <time>2020-10-11T07:08:45.301Z</time>
      </trkpt>
      <trkpt lat="47.34842" lon="5.17869">
        <ele>217.281684</ele>
        <time>2020-10-11T07:09:12.274Z</time>
      </trkpt>
      <trkpt lat="47.34837" lon="5.17908">
        <ele>217.426602</ele>
        <time>2020-10-11T07:09:18.635Z</time>
      </trkpt>
      <trkpt lat="47.34833" lon="5.17939">
        <ele>217.46891</ele>
        <time>2020-10-11T07:09:23.563Z</time>
      </trkpt>
      <trkpt lat="47.34813" lon="5.18061">
        <ele>217.636503</ele>
        <time>2020-10-11T07:09:42.047Z</time>
      </trkpt>
      <trkpt lat="47.3481" lon="5.18088">
        <ele>217.673044</ele>
        <time>2020-10-11T07:09:46.030Z</time>
      </trkpt>
      <trkpt lat="47.34809" lon="5.181">
        <ele>217.688813</ele>
        <time>2020-10-11T07:09:47.761Z</time>
      </trkpt>
      <trkpt lat="47.34806" lon="5.18119">
        <ele>217.71541</ele>
        <time>2020-10-11T07:09:50.574Z</time>
      </trkpt>
      <trkpt lat="47.34806" lon="5.18123">
        <ele>217.72075</ele>
        <time>2020-10-11T07:09:51.159Z</time>
      </trkpt>
      <trkpt lat="47.34802" lon="5.18148">
        <ele>217.755023</ele>
        <time>2020-10-11T07:09:54.763Z</time>
      </trkpt>
      <trkpt lat="47.34789" lon="5.18246">
        <ele>217.904308</ele>
        <time>2020-10-11T07:10:08.285Z</time>
      </trkpt>
      <trkpt lat="47.34788" lon="5.18254">
        <ele>217.916686</ele>
        <time>2020-10-11T07:10:09.460Z</time>
      </trkpt>
      <trkpt lat="47.34774" lon="5.18365">
        <ele>218.088708</ele>
        <time>2020-10-11T07:10:26.355Z</time>
      </trkpt>
      <trkpt lat="47.3477" lon="5.18394">
        <ele>218.133351</ele>
        <time>2020-10-11T07:10:31.087Z</time>
      </trkpt>
      <trkpt lat="47.34763" lon="5.18449">
        <ele>218.274861</ele>
        <time>2020-10-11T07:10:40.557Z</time>
      </trkpt>
      <trkpt lat="47.34753" lon="5.18514">
        <ele>218.487236</ele>
        <time>2020-10-11T07:10:51.708Z</time>
      </trkpt>
      <trkpt lat="47.34752" lon="5.18518">
        <ele>218.502019</ele>
        <time>2020-10-11T07:10:52.468Z</time>
      </trkpt>
      <trkpt lat="47.34749" lon="5.18544">
        <ele>218.58523</ele>
        <time>2020-10-11T07:10:56.588Z</time>
      </trkpt>
      <trkpt lat="47.34745" lon="5.18569">
        <ele>218.666871</ele>
        <time>2020-10-11T07:11:00.841Z</time>
      </trkpt>
      <trkpt lat="47.34699" lon="5.1891">
        <ele>219.412525</ele>
        <time>2020-10-11T07:11:53.706Z</time>
      </trkpt>
      <trkpt lat="47.34695" lon="5.18961">
        <ele>219.446293</ele>
        <time>2020-10-11T07:12:01.274Z</time>
      </trkpt>
      <trkpt lat="47.34695" lon="5.19046">
        <ele>219.407131</ele>
        <time>2020-10-11T07:12:12.910Z</time>
      </trkpt>
      <trkpt lat="47.34695" lon="5.19061">
        <ele>219.400299</ele>
        <time>2020-10-11T07:12:15.121Z</time>
      </trkpt>
      <trkpt lat="47.34691" lon="5.19157">
        <ele>219.355996</ele>
        <time>2020-10-11T07:12:27.344Z</time>
      </trkpt>
      <trkpt lat="47.3469" lon="5.19194">
        <ele>219.338738</ele>
        <time>2020-10-11T07:12:32.296Z</time>
      </trkpt>
      <trkpt lat="47.34692" lon="5.1928">
        <ele>219.898005</ele>
        <time>2020-10-11T07:12:45.827Z</time>
      </trkpt>
      <trkpt lat="47.34693" lon="5.19293">
        <ele>219.992723</ele>
        <time>2020-10-11T07:12:48.159Z</time>
      </trkpt>
      <trkpt lat="47.34696" lon="5.19369">
        <ele>220.537799</ele>
        <time>2020-10-11T07:13:01.774Z</time>
      </trkpt>
      <trkpt lat="47.34698" lon="5.19402">
        <ele>220.782351</ele>
        <time>2020-10-11T07:13:08.188Z</time>
      </trkpt>
      <trkpt lat="47.34701" lon="5.19435">
        <ele>221.019437</ele>
        <time>2020-10-11T07:13:14.588Z</time>
      </trkpt>
      <trkpt lat="47.34702" lon="5.19443">
        <ele>221.07573</ele>
        <time>2020-10-11T07:13:16.462Z</time>
      </trkpt>
      <trkpt lat="47.3471" lon="5.19487">
        <ele>221.60478</ele>
        <time>2020-10-11T07:13:26.158Z</time>
      </trkpt>
      <trkpt lat="47.34722" lon="5.19534">
        <ele>222.456769</ele>
        <time>2020-10-11T07:13:38.213Z</time>
      </trkpt>
      <trkpt lat="47.34732" lon="5.19578">
        <ele>223.234201</ele>
        <time>2020-10-11T07:13:49.971Z</time>
      </trkpt>
      <trkpt lat="47.34737" lon="5.19626">
        <ele>224.048554</ele>
        <time>2020-10-11T07:14:02.850Z</time>
      </trkpt>
      <trkpt lat="47.34738" lon="5.19771">
        <ele>226.01638</ele>
        <time>2020-10-11T07:14:36.740Z</time>
      </trkpt>
      <trkpt lat="47.34732" lon="5.19867">
        <ele>226.655491</ele>
        <time>2020-10-11T07:14:54.567Z</time>
      </trkpt>
      <trkpt lat="47.34728" lon="5.19943">
        <ele>227.156657</ele>
        <time>2020-10-11T07:15:06.648Z</time>
      </trkpt>
      <trkpt lat="47.34721" lon="5.20078">
        <ele>227.211536</ele>
        <time>2020-10-11T07:15:24.512Z</time>
      </trkpt>
      <trkpt lat="47.34693" lon="5.20409">
        <ele>225.777438</ele>
        <time>2020-10-11T07:16:06.123Z</time>
      </trkpt>
      <trkpt lat="47.34684" lon="5.20478">
        <ele>225.353385</ele>
        <time>2020-10-11T07:16:14.266Z</time>
      </trkpt>
      <trkpt lat="47.34674" lon="5.20537">
        <ele>224.861873</ele>
        <time>2020-10-11T07:16:20.986Z</time>
      </trkpt>
      <trkpt lat="47.3456" lon="5.21104">
        <ele>218.906581</ele>
        <time>2020-10-11T07:17:23.987Z</time>
      </trkpt>
      <trkpt lat="47.34525" lon="5.21282">
        <ele>218.796572</ele>
        <time>2020-10-11T07:17:53.933Z</time>
      </trkpt>
      <trkpt lat="47.34518" lon="5.21321">
        <ele>219.134595</ele>
        <time>2020-10-11T07:18:01.665Z</time>
      </trkpt>
      <trkpt lat="47.34441" lon="5.21703">
        <ele>222.649681</ele>
        <time>2020-10-11T07:19:18.341Z</time>
      </trkpt>
      <trkpt lat="47.34437" lon="5.21725">
        <ele>222.861541</ele>
        <time>2020-10-11T07:19:22.807Z</time>
      </trkpt>
      <trkpt lat="47.34306" lon="5.22381">
        <ele>229.688118</ele>
        <time>2020-10-11T07:21:37.798Z</time>
      </trkpt>
      <trkpt lat="47.34295" lon="5.22437">
        <ele>230.268874</ele>
        <time>2020-10-11T07:21:49.749Z</time>
      </trkpt>
      <trkpt lat="47.34276" lon="5.22533">
        <ele>231.251656</ele>
        <time>2020-10-11T07:22:09.409Z</time>
      </trkpt>
      <trkpt lat="47.34244" lon="5.22692">
        <ele>232.049065</ele>
        <time>2020-10-11T07:22:39.222Z</time>
      </trkpt>
      <trkpt lat="47.34173" lon="5.22871">
        <ele>232.261336</ele>
        <time>2020-10-11T07:23:09.079Z</time>
      </trkpt>
      <trkpt lat="47.3412" lon="5.23006">
        <ele>231.761203</ele>
        <time>2020-10-11T07:23:28.424Z</time>
      </trkpt>
      <trkpt lat="47.33919" lon="5.23515">
        <ele>226.836061</ele>
        <time>2020-10-11T07:24:34.334Z</time>
      </trkpt>
      <trkpt lat="47.3357" lon="5.24382">
        <ele>218.721909</ele>
        <time>2020-10-11T07:26:28.556Z</time>
      </trkpt>
      <trkpt lat="47.33561" lon="5.24403">
        <ele>218.573664</ele>
        <time>2020-10-11T07:26:31.261Z</time>
      </trkpt>
      <trkpt lat="47.33315" lon="5.25195">
        <ele>217.929938</ele>
        <time>2020-10-11T07:28:25.687Z</time>
      </trkpt>
      <trkpt lat="47.33313" lon="5.25202">
        <ele>218.020308</ele>
        <time>2020-10-11T07:28:27.191Z</time>
      </trkpt>
      <trkpt lat="47.33184" lon="5.2563">
        <ele>224.911921</ele>
        <time>2020-10-11T07:30:27.209Z</time>
      </trkpt>
      <trkpt lat="47.33082" lon="5.25959">
        <ele>221.621785</ele>
        <time>2020-10-11T07:31:06.070Z</time>
      </trkpt>
      <trkpt lat="47.33044" lon="5.26083">
        <ele>219.443887</ele>
        <time>2020-10-11T07:31:19.328Z</time>
      </trkpt>
      <trkpt lat="47.32955" lon="5.26369">
        <ele>214.850647</ele>
        <time>2020-10-11T07:31:51.084Z</time>
      </trkpt>
      <trkpt lat="47.32921" lon="5.26481">
        <ele>214.353198</ele>
        <time>2020-10-11T07:32:06.359Z</time>
      </trkpt>
      <trkpt lat="47.32903" lon="5.26535">
        <ele>214.109868</ele>
        <time>2020-10-11T07:32:15.128Z</time>
      </trkpt>
      <trkpt lat="47.32885" lon="5.26594">
        <ele>214.050082</ele>
        <time>2020-10-11T07:32:25.326Z</time>
      </trkpt>
      <trkpt lat="47.32882" lon="5.26633">
        <ele>214.188551</ele>
        <time>2020-10-11T07:32:32.261Z</time>
      </trkpt>
      <trkpt lat="47.32883" lon="5.26652">
        <ele>214.254752</ele>
        <time>2020-10-11T07:32:35.538Z</time>
      </trkpt>
      <trkpt lat="47.32934" lon="5.26786">
        <ele>214.797635</ele>
        <time>2020-10-11T07:33:02.136Z</time>
      </trkpt>
      <trkpt lat="47.32938" lon="5.268">
        <ele>214.852195</ele>
        <time>2020-10-11T07:33:04.051Z</time>
      </trkpt>
      <trkpt lat="47.32938" lon="5.26835">
        <ele>214.731579</ele>
        <time>2020-10-11T07:33:09.075Z</time>
      </trkpt>
      <trkpt lat="47.32935" lon="5.26874">
        <ele>214.4593</ele>
        <time>2020-10-11T07:33:13.795Z</time>
      </trkpt>
      <trkpt lat="47.32919" lon="5.26997">
        <ele>213.596534</ele>
        <time>2020-10-11T07:33:28.345Z</time>
      </trkpt>
      <trkpt lat="47.32916" lon="5.27013">
        <ele>213.483616</ele>
        <time>2020-10-11T07:33:29.997Z</time>
      </trkpt>
      <trkpt lat="47.32896" lon="5.27176">
        <ele>212.061401</ele>
        <time>2020-10-11T07:33:47.710Z</time>
      </trkpt>
      <trkpt lat="47.3286" lon="5.2739">
        <ele>210.186184</ele>
        <time>2020-10-11T07:34:12.756Z</time>
      </trkpt>
      <trkpt lat="47.32859" lon="5.27399">
        <ele>210.130633</ele>
        <time>2020-10-11T07:34:13.906Z</time>
      </trkpt>
      <trkpt lat="47.32821" lon="5.27602">
        <ele>208.869404</ele>
        <time>2020-10-11T07:34:39.587Z</time>
      </trkpt>
      <trkpt lat="47.3281" lon="5.27681">
        <ele>208.178624</ele>
        <time>2020-10-11T07:34:48.902Z</time>
      </trkpt>
      <trkpt lat="47.32775" lon="5.27933">
        <ele>206.630122</ele>
        <time>2020-10-11T07:35:17.038Z</time>
      </trkpt>
      <trkpt lat="47.32635" lon="5.28916">
        <ele>205.860579</ele>
        <time>2020-10-11T07:37:39.982Z</time>
      </trkpt>
      <trkpt lat="47.32574" lon="5.29345">
        <ele>204.707065</ele>
        <time>2020-10-11T07:38:35.978Z</time>
      </trkpt>
      <trkpt lat="47.32441" lon="5.30276">
        <ele>201.490843</ele>
        <time>2020-10-11T07:40:37.761Z</time>
      </trkpt>
      <trkpt lat="47.32413" lon="5.30474">
        <ele>199.660936</ele>
        <time>2020-10-11T07:40:59.947Z</time>
      </trkpt>
      <trkpt lat="47.32366" lon="5.30801">
        <ele>194.923593</ele>
        <time>2020-10-11T07:41:33.982Z</time>
      </trkpt>
      <trkpt lat="47.32322" lon="5.31111">
        <ele>192.194328</ele>
        <time>2020-10-11T07:42:08.316Z</time>
      </trkpt>
      <trkpt lat="47.32293" lon="5.31306">
        <ele>192.685608</ele>
        <time>2020-10-11T07:42:40.948Z</time>
      </trkpt>
      <trkpt lat="47.32261" lon="5.31545">
        <ele>195.710984</ele>
        <time>2020-10-11T07:43:36.003Z</time>
      </trkpt>
      <trkpt lat="47.32243" lon="5.31666">
        <ele>197.598917</ele>
        <time>2020-10-11T07:44:05.120Z</time>
      </trkpt>
      <trkpt lat="47.32241" lon="5.3168">
        <ele>197.812924</ele>
        <time>2020-10-11T07:44:08.371Z</time>
      </trkpt>
      <trkpt lat="47.3223" lon="5.3175">
        <ele>198.875094</ele>
        <time>2020-10-11T07:44:24.711Z</time>
      </trkpt>
      <trkpt lat="47.32228" lon="5.3176">
        <ele>198.985367</ele>
        <time>2020-10-11T07:44:27.011Z</time>
      </trkpt>
      <trkpt lat="47.32212" lon="5.3188">
        <ele>200.225257</ele>
        <time>2020-10-11T07:44:50.985Z</time>
      </trkpt>
      <trkpt lat="47.32202" lon="5.31936">
        <ele>200.815876</ele>
        <time>2020-10-11T07:45:01.697Z</time>
      </trkpt>
      <trkpt lat="47.32194" lon="5.31983">
        <ele>201.299468</ele>
        <time>2020-10-11T07:45:10.467Z</time>
      </trkpt>
      <trkpt lat="47.32193" lon="5.31986">
        <ele>201.337499</ele>
        <time>2020-10-11T07:45:11.018Z</time>
      </trkpt>
      <trkpt lat="47.32189" lon="5.32011">
        <ele>201.620058</ele>
        <time>2020-10-11T07:45:15.489Z</time>
      </trkpt>
      <trkpt lat="47.32125" lon="5.32362">
        <ele>206.816798</ele>
        <time>2020-10-11T07:46:33.052Z</time>
      </trkpt>
      <trkpt lat="47.3209" lon="5.32558">
        <ele>210.519083</ele>
        <time>2020-10-11T07:47:29.659Z</time>
      </trkpt>
      <trkpt lat="47.32085" lon="5.32581">
        <ele>210.860824</ele>
        <time>2020-10-11T07:47:36.328Z</time>
      </trkpt>
      <trkpt lat="47.32055" lon="5.32733">
        <ele>213.077919</ele>
        <time>2020-10-11T07:48:11.548Z</time>
      </trkpt>
      <trkpt lat="47.32019" lon="5.32885">
        <ele>212.953656</ele>
        <time>2020-10-11T07:48:32.584Z</time>
      </trkpt>
      <trkpt lat="47.31913" lon="5.33271">
        <ele>209.513669</ele>
        <time>2020-10-11T07:49:18.453Z</time>
      </trkpt>
      <trkpt lat="47.31686" lon="5.34094">
        <ele>201.504888</ele>
        <time>2020-10-11T07:50:57.014Z</time>
      </trkpt>
      <trkpt lat="47.31486" lon="5.34815">
        <ele>197.683916</ele>
        <time>2020-10-11T07:52:32.013Z</time>
      </trkpt>
      <trkpt lat="47.31273" lon="5.35585">
        <ele>195.590219</ele>
        <time>2020-10-11T07:54:20.666Z</time>
      </trkpt>
      <trkpt lat="47.31088" lon="5.36252">
        <ele>193.446758</ele>
        <time>2020-10-11T07:55:51.744Z</time>
      </trkpt>
      <trkpt lat="47.31176" lon="5.36315">
        <ele>193.313959</ele>
        <time>2020-10-11T07:56:11.484Z</time>
      </trkpt>
      <trkpt lat="47.31285" lon="5.36397">
        <ele>192.765601</ele>
        <time>2020-10-11T07:56:37.125Z</time>
      </trkpt>
      <trkpt lat="47.3132" lon="5.3642">
        <ele>192.504735</ele>
        <time>2020-10-11T07:56:44.329Z</time>
      </trkpt>
      <trkpt lat="47.31353" lon="5.36485">
        <ele>192.130102</ele>
        <time>2020-10-11T07:56:53.562Z</time>
      </trkpt>
      <trkpt lat="47.31418" lon="5.36523">
        <ele>190.776536</ele>
        <time>2020-10-11T07:57:04.551Z</time>
      </trkpt>
      <trkpt lat="47.31475" lon="5.36526">
        <ele>189.490652</ele>
        <time>2020-10-11T07:57:12.808Z</time>
      </trkpt>
      <trkpt lat="47.31502" lon="5.36528">
        <ele>188.870564</ele>
        <time>2020-10-11T07:57:16.769Z</time>
      </trkpt>
      <trkpt lat="47.31512" lon="5.3653">
        <ele>188.622061</ele>
        <time>2020-10-11T07:57:18.345Z</time>
      </trkpt>
      <trkpt lat="47.31521" lon="5.36536">
        <ele>188.414768</ele>
        <time>2020-10-11T07:57:19.698Z</time>
      </trkpt>
      <trkpt lat="47.31539" lon="5.36616">
        <ele>187.326238</ele>
        <time>2020-10-11T07:57:28.004Z</time>
      </trkpt>
      <trkpt lat="47.31566" lon="5.36756">
        <ele>185.661903</ele>
        <time>2020-10-11T07:57:43.539Z</time>
      </trkpt>
      <trkpt lat="47.31724" lon="5.37042">
        <ele>183.700828</ele>
        <time>2020-10-11T07:58:29.391Z</time>
      </trkpt>
      <trkpt lat="47.31764" lon="5.37113">
        <ele>183.500346</ele>
        <time>2020-10-11T07:58:41.438Z</time>
      </trkpt>
      <trkpt lat="47.31771" lon="5.37127">
        <ele>183.461446</ele>
        <time>2020-10-11T07:58:43.778Z</time>
      </trkpt>
      <trkpt lat="47.3179" lon="5.37164">
        <ele>183.359654</ele>
        <time>2020-10-11T07:58:49.847Z</time>
      </trkpt>
      <trkpt lat="47.31807" lon="5.37201">
        <ele>183.261081</ele>
        <time>2020-10-11T07:58:55.819Z</time>
      </trkpt>
      <trkpt lat="47.31865" lon="5.37398">
        <ele>183.140564</ele>
        <time>2020-10-11T07:59:24.726Z</time>
      </trkpt>
      <trkpt lat="47.31878" lon="5.37418">
        <ele>183.132155</ele>
        <time>2020-10-11T07:59:28.556Z</time>
      </trkpt>
      <trkpt lat="47.31954" lon="5.37482">
        <ele>183.543097</ele>
        <time>2020-10-11T07:59:48.348Z</time>
      </trkpt>
      <trkpt lat="47.31971" lon="5.37506">
        <ele>183.731172</ele>
        <time>2020-10-11T07:59:53.734Z</time>
      </trkpt>
      <trkpt lat="47.31961" lon="5.37527">
        <ele>183.873103</ele>
        <time>2020-10-11T07:59:58.065Z</time>
      </trkpt>
      <trkpt lat="47.31895" lon="5.37858">
        <ele>186.748813</ele>
        <time>2020-10-11T08:01:02.912Z</time>
      </trkpt>
      <trkpt lat="47.31888" lon="5.37893">
        <ele>187.116313</ele>
        <time>2020-10-11T08:01:11.169Z</time>
      </trkpt>
      <trkpt lat="47.31845" lon="5.38105">
        <ele>190.31815</ele>
        <time>2020-10-11T08:02:02.237Z</time>
      </trkpt>
      <trkpt lat="47.31795" lon="5.38312">
        <ele>192.814317</ele>
        <time>2020-10-11T08:02:48.608Z</time>
      </trkpt>
      <trkpt lat="47.31758" lon="5.38463">
        <ele>194.10027</ele>
        <time>2020-10-11T08:03:17.396Z</time>
      </trkpt>
      <trkpt lat="47.31692" lon="5.38748">
        <ele>195.16003</ele>
        <time>2020-10-11T08:04:05.245Z</time>
      </trkpt>
      <trkpt lat="47.31691" lon="5.38791">
        <ele>195.243638</ele>
        <time>2020-10-11T08:04:11.799Z</time>
      </trkpt>
      <trkpt lat="47.31757" lon="5.39385">
        <ele>196.068243</ele>
        <time>2020-10-11T08:05:41.722Z</time>
      </trkpt>
      <trkpt lat="47.31758" lon="5.39424">
        <ele>196.102557</ele>
        <time>2020-10-11T08:05:47.326Z</time>
      </trkpt>
      <trkpt lat="47.31752" lon="5.3946">
        <ele>196.062374</ele>
        <time>2020-10-11T08:05:52.443Z</time>
      </trkpt>
      <trkpt lat="47.31689" lon="5.39654">
        <ele>195.471825</ele>
        <time>2020-10-11T08:06:19.976Z</time>
      </trkpt>
      <trkpt lat="47.31686" lon="5.39675">
        <ele>195.413543</ele>
        <time>2020-10-11T08:06:22.539Z</time>
      </trkpt>
      <trkpt lat="47.31691" lon="5.39705">
        <ele>195.274239</ele>
        <time>2020-10-11T08:06:26.148Z</time>
      </trkpt>
      <trkpt lat="47.31721" lon="5.39798">
        <ele>194.718588</ele>
        <time>2020-10-11T08:06:38.503Z</time>
      </trkpt>
      <trkpt lat="47.31611" lon="5.39873">
        <ele>193.800182</ele>
        <time>2020-10-11T08:06:59.572Z</time>
      </trkpt>
      <trkpt lat="47.31602" lon="5.39879">
        <ele>193.741091</ele>
        <time>2020-10-11T08:07:01.196Z</time>
      </trkpt>
      <trkpt lat="47.31415" lon="5.40007">
        <ele>192.964123</ele>
        <time>2020-10-11T08:07:39.186Z</time>
      </trkpt>
      <trkpt lat="47.31411" lon="5.4001">
        <ele>192.972906</ele>
        <time>2020-10-11T08:07:39.987Z</time>
      </trkpt>
      <trkpt lat="47.31398" lon="5.40022">
        <ele>193.00358</ele>
        <time>2020-10-11T08:07:43.483Z</time>
      </trkpt>
      <trkpt lat="47.31385" lon="5.40038">
        <ele>193.037849</ele>
        <time>2020-10-11T08:07:47.264Z</time>
      </trkpt>
      <trkpt lat="47.31372" lon="5.40055">
        <ele>193.072247</ele>
        <time>2020-10-11T08:07:51.291Z</time>
      </trkpt>
      <trkpt lat="47.31353" lon="5.40084">
        <ele>193.127166</ele>
        <time>2020-10-11T08:07:57.842Z</time>
      </trkpt>
      <trkpt lat="47.31339" lon="5.40112">
        <ele>193.173568</ele>
        <time>2020-10-11T08:08:03.716Z</time>
      </trkpt>
      <trkpt lat="47.31336" lon="5.40118">
        <ele>193.182738</ele>
        <time>2020-10-11T08:08:05.004Z</time>
      </trkpt>
      <trkpt lat="47.31316" lon="5.40186">
        <ele>193.717615</ele>
        <time>2020-10-11T08:08:18.843Z</time>
      </trkpt>
      <trkpt lat="47.31238" lon="5.40515">
        <ele>195.269666</ele>
        <time>2020-10-11T08:09:25.372Z</time>
      </trkpt>
      <trkpt lat="47.3121" lon="5.40635">
        <ele>194.991981</ele>
        <time>2020-10-11T08:09:39.594Z</time>
      </trkpt>
      <trkpt lat="47.3114" lon="5.40927">
        <ele>188.484044</ele>
        <time>2020-10-11T08:10:08.690Z</time>
      </trkpt>
      <trkpt lat="47.31109" lon="5.40945">
        <ele>187.880077</ele>
        <time>2020-10-11T08:10:13.565Z</time>
      </trkpt>
      <trkpt lat="47.31089" lon="5.40961">
        <ele>187.474852</ele>
        <time>2020-10-11T08:10:16.978Z</time>
      </trkpt>
      <trkpt lat="47.31086" lon="5.40963">
        <ele>187.40094</ele>
        <time>2020-10-11T08:10:17.603Z</time>
      </trkpt>
      <trkpt lat="47.31066" lon="5.40982">
        <ele>186.98468</ele>
        <time>2020-10-11T08:10:21.391Z</time>
      </trkpt>
      <trkpt lat="47.31061" lon="5.40984">
        <ele>186.886105</ele>
        <time>2020-10-11T08:10:22.262Z</time>
      </trkpt>
      <trkpt lat="47.31017" lon="5.41001">
        <ele>186.074439</ele>
        <time>2020-10-11T08:10:30.393Z</time>
      </trkpt>
      <trkpt lat="47.31013" lon="5.41">
        <ele>185.996184</ele>
        <time>2020-10-11T08:10:31.342Z</time>
      </trkpt>
      <trkpt lat="47.30938" lon="5.41027">
        <ele>186.244123</ele>
        <time>2020-10-11T08:10:51.051Z</time>
      </trkpt>
      <trkpt lat="47.30852" lon="5.41064">
        <ele>186.711989</ele>
        <time>2020-10-11T08:11:13.468Z</time>
      </trkpt>
      <trkpt lat="47.3082" lon="5.41091">
        <ele>186.78856</ele>
        <time>2020-10-11T08:11:21.427Z</time>
      </trkpt>
      <trkpt lat="47.30806" lon="5.41104">
        <ele>186.762924</ele>
        <time>2020-10-11T08:11:25.567Z</time>
      </trkpt>
      <trkpt lat="47.3075" lon="5.4116">
        <ele>186.658122</ele>
        <time>2020-10-11T08:11:38.667Z</time>
      </trkpt>
      <trkpt lat="47.3074" lon="5.41169">
        <ele>186.638859</ele>
        <time>2020-10-11T08:11:41.287Z</time>
      </trkpt>
      <trkpt lat="47.30729" lon="5.41178">
        <ele>186.619289</ele>
        <time>2020-10-11T08:11:43.338Z</time>
      </trkpt>
      <trkpt lat="47.3072" lon="5.41184">
        <ele>186.603786</ele>
        <time>2020-10-11T08:11:45.508Z</time>
      </trkpt>
      <trkpt lat="47.30712" lon="5.41188">
        <ele>186.591533</ele>
        <time>2020-10-11T08:11:47.285Z</time>
      </trkpt>
      <trkpt lat="47.30668" lon="5.41191">
        <ele>186.528626</ele>
        <time>2020-10-11T08:11:55.442Z</time>
      </trkpt>
      <trkpt lat="47.30554" lon="5.41159">
        <ele>186.437743</ele>
        <time>2020-10-11T08:12:16.671Z</time>
      </trkpt>
      <trkpt lat="47.30523" lon="5.41155">
        <ele>186.413112</ele>
        <time>2020-10-11T08:12:24.352Z</time>
      </trkpt>
      <trkpt lat="47.3051" lon="5.41154">
        <ele>186.40269</ele>
        <time>2020-10-11T08:12:27.612Z</time>
      </trkpt>
      <trkpt lat="47.30497" lon="5.41158">
        <ele>186.406792</ele>
        <time>2020-10-11T08:12:31.252Z</time>
      </trkpt>
      <trkpt lat="47.30491" lon="5.41163">
        <ele>186.461826</ele>
        <time>2020-10-11T08:12:33.023Z</time>
      </trkpt>
      <trkpt lat="47.30489" lon="5.41161">
        <ele>186.479198</ele>
        <time>2020-10-11T08:12:33.633Z</time>
      </trkpt>
      <trkpt lat="47.30487" lon="5.4116">
        <ele>186.496193</ele>
        <time>2020-10-11T08:12:34.254Z</time>
      </trkpt>
      <trkpt lat="47.30485" lon="5.4116">
        <ele>186.513261</ele>
        <time>2020-10-11T08:12:34.850Z</time>
      </trkpt>
      <trkpt lat="47.30482" lon="5.41163">
        <ele>186.547316</ele>
        <time>2020-10-11T08:12:35.963Z</time>
      </trkpt>
      <trkpt lat="47.3048" lon="5.41165">
        <ele>186.564679</ele>
        <time>2020-10-11T08:12:36.523Z</time>
      </trkpt>
      <trkpt lat="47.3048" lon="5.41168">
        <ele>186.581917</ele>
        <time>2020-10-11T08:12:36.897Z</time>
      </trkpt>
      <trkpt lat="47.30482" lon="5.41177">
        <ele>186.632815</ele>
        <time>2020-10-11T08:12:38.666Z</time>
      </trkpt>
      <trkpt lat="47.30488" lon="5.4118">
        <ele>186.6838</ele>
        <time>2020-10-11T08:12:40.531Z</time>
      </trkpt>
      <trkpt lat="47.3049" lon="5.41179">
        <ele>186.701736</ele>
        <time>2020-10-11T08:12:40.975Z</time>
      </trkpt>
      <trkpt lat="47.30494" lon="5.41192">
        <ele>186.783416</ele>
        <time>2020-10-11T08:12:43.712Z</time>
      </trkpt>
      <trkpt lat="47.30496" lon="5.41211">
        <ele>186.889693</ele>
        <time>2020-10-11T08:12:46.966Z</time>
      </trkpt>
      <trkpt lat="47.30496" lon="5.4131">
        <ele>187.432005</ele>
        <time>2020-10-11T08:13:04.609Z</time>
      </trkpt>
      <trkpt lat="47.30497" lon="5.4135">
        <ele>187.657421</ele>
        <time>2020-10-11T08:13:11.119Z</time>
      </trkpt>
      <trkpt lat="47.30497" lon="5.41356">
        <ele>187.689937</ele>
        <time>2020-10-11T08:13:12.115Z</time>
      </trkpt>
      <trkpt lat="47.30484" lon="5.4145">
        <ele>187.832278</ele>
        <time>2020-10-11T08:13:27.619Z</time>
      </trkpt>
      <trkpt lat="47.30481" lon="5.41477">
        <ele>187.822182</ele>
        <time>2020-10-11T08:13:32.679Z</time>
      </trkpt>
      <trkpt lat="47.30481" lon="5.41483">
        <ele>187.820033</ele>
        <time>2020-10-11T08:13:33.559Z</time>
      </trkpt>
      <trkpt lat="47.30477" lon="5.41517">
        <ele>187.807707</ele>
        <time>2020-10-11T08:13:39.196Z</time>
      </trkpt>
      <trkpt lat="47.30466" lon="5.41566">
        <ele>187.789027</ele>
        <time>2020-10-11T08:13:46.307Z</time>
      </trkpt>
      <trkpt lat="47.30457" lon="5.41608">
        <ele>187.773264</ele>
        <time>2020-10-11T08:13:51.341Z</time>
      </trkpt>
      <trkpt lat="47.30446" lon="5.41663">
        <ele>187.59509</ele>
        <time>2020-10-11T08:13:57.840Z</time>
      </trkpt>
      <trkpt lat="47.30444" lon="5.41673">
        <ele>187.513613</ele>
        <time>2020-10-11T08:13:59.007Z</time>
      </trkpt>
      <trkpt lat="47.30442" lon="5.41684">
        <ele>187.431248</ele>
        <time>2020-10-11T08:14:00.154Z</time>
      </trkpt>
      <trkpt lat="47.30439" lon="5.41699">
        <ele>187.308824</ele>
        <time>2020-10-11T08:14:02.054Z</time>
      </trkpt>
      <trkpt lat="47.30436" lon="5.41715">
        <ele>187.180117</ele>
        <time>2020-10-11T08:14:04.042Z</time>
      </trkpt>
      <trkpt lat="47.30428" lon="5.41761">
        <ele>186.808347</ele>
        <time>2020-10-11T08:14:09.712Z</time>
      </trkpt>
      <trkpt lat="47.30427" lon="5.41769">
        <ele>186.751685</ele>
        <time>2020-10-11T08:14:10.566Z</time>
      </trkpt>
      <trkpt lat="47.30418" lon="5.41825">
        <ele>186.304744</ele>
        <time>2020-10-11T08:14:17.236Z</time>
      </trkpt>
      <trkpt lat="47.30417" lon="5.41835">
        <ele>186.220174</ele>
        <time>2020-10-11T08:14:18.387Z</time>
      </trkpt>
      <trkpt lat="47.30407" lon="5.4196">
        <ele>185.250844</ele>
        <time>2020-10-11T08:14:32.344Z</time>
      </trkpt>
      <trkpt lat="47.30406" lon="5.4197">
        <ele>185.172048</ele>
        <time>2020-10-11T08:14:33.459Z</time>
      </trkpt>
      <trkpt lat="47.30404" lon="5.41988">
        <ele>185.030453</ele>
        <time>2020-10-11T08:14:35.389Z</time>
      </trkpt>
      <trkpt lat="47.30397" lon="5.42106">
        <ele>184.111405</ele>
        <time>2020-10-11T08:14:49.049Z</time>
      </trkpt>
      <trkpt lat="47.30395" lon="5.42136">
        <ele>183.881172</ele>
        <time>2020-10-11T08:14:52.563Z</time>
      </trkpt>
      <trkpt lat="47.30393" lon="5.42158">
        <ele>183.705742</ele>
        <time>2020-10-11T08:14:55.287Z</time>
      </trkpt>
      <trkpt lat="47.30388" lon="5.42205">
        <ele>183.51054</ele>
        <time>2020-10-11T08:15:00.915Z</time>
      </trkpt>
      <trkpt lat="47.30388" lon="5.42211">
        <ele>183.491133</ele>
        <time>2020-10-11T08:15:01.588Z</time>
      </trkpt>
      <trkpt lat="47.30381" lon="5.42276">
        <ele>183.266516</ele>
        <time>2020-10-11T08:15:09.578Z</time>
      </trkpt>
      <trkpt lat="47.30361" lon="5.42453">
        <ele>182.814205</ele>
        <time>2020-10-11T08:15:32.865Z</time>
      </trkpt>
      <trkpt lat="47.30357" lon="5.42495">
        <ele>182.931774</ele>
        <time>2020-10-11T08:15:39.064Z</time>
      </trkpt>
      <trkpt lat="47.30342" lon="5.42633">
        <ele>183.326128</ele>
        <time>2020-10-11T08:16:02.202Z</time>
      </trkpt>
      <trkpt lat="47.30337" lon="5.42671">
        <ele>183.436072</ele>
        <time>2020-10-11T08:16:08.728Z</time>
      </trkpt>
      <trkpt lat="47.30321" lon="5.42793">
        <ele>183.901151</ele>
        <time>2020-10-11T08:16:29.260Z</time>
      </trkpt>
      <trkpt lat="47.30281" lon="5.43122">
        <ele>184.855371</ele>
        <time>2020-10-11T08:17:22.992Z</time>
      </trkpt>
      <trkpt lat="47.3023" lon="5.43408">
        <ele>184.973187</ele>
        <time>2020-10-11T08:18:03.481Z</time>
      </trkpt>
      <trkpt lat="47.30223" lon="5.43449">
        <ele>184.962303</ele>
        <time>2020-10-11T08:18:09.350Z</time>
      </trkpt>
      <trkpt lat="47.30152" lon="5.43847">
        <ele>185.428831</ele>
        <time>2020-10-11T08:19:10.600Z</time>
      </trkpt>
      <trkpt lat="47.30145" lon="5.43883">
        <ele>185.481614</ele>
        <time>2020-10-11T08:19:16.250Z</time>
      </trkpt>
      <trkpt lat="47.30088" lon="5.44101">
        <ele>185.674659</ele>
        <time>2020-10-11T08:19:51.040Z</time>
      </trkpt>
      <trkpt lat="47.30072" lon="5.44204">
        <ele>185.714328</ele>
        <time>2020-10-11T08:20:05.725Z</time>
      </trkpt>
      <trkpt lat="47.30074" lon="5.44275">
        <ele>185.633907</ele>
        <time>2020-10-11T08:20:15.334Z</time>
      </trkpt>
      <trkpt lat="47.30081" lon="5.44323">
        <ele>185.53929</ele>
        <time>2020-10-11T08:20:21.771Z</time>
      </trkpt>
      <trkpt lat="47.30118" lon="5.44459">
        <ele>185.256131</ele>
        <time>2020-10-11T08:20:40.452Z</time>
      </trkpt>
      <trkpt lat="47.3013" lon="5.445">
        <ele>185.212343</ele>
        <time>2020-10-11T08:20:46.506Z</time>
      </trkpt>
      <trkpt lat="47.30141" lon="5.44539">
        <ele>185.214669</ele>
        <time>2020-10-11T08:20:52.366Z</time>
      </trkpt>
      <trkpt lat="47.30164" lon="5.44641">
        <ele>185.220509</ele>
        <time>2020-10-11T08:21:07.632Z</time>
      </trkpt>
      <trkpt lat="47.30167" lon="5.44664">
        <ele>185.221772</ele>
        <time>2020-10-11T08:21:10.704Z</time>
      </trkpt>
      <trkpt lat="47.30168" lon="5.44696">
        <ele>185.223523</ele>
        <time>2020-10-11T08:21:15.822Z</time>
      </trkpt>
      <trkpt lat="47.30165" lon="5.44761">
        <ele>185.277259</ele>
        <time>2020-10-11T08:21:25.319Z</time>
      </trkpt>
      <trkpt lat="47.30151" lon="5.44834">
        <ele>185.425304</ele>
        <time>2020-10-11T08:21:37.099Z</time>
      </trkpt>
      <trkpt lat="47.2998" lon="5.45291">
        <ele>186.58275</ele>
        <time>2020-10-11T08:22:56.729Z</time>
      </trkpt>
      <trkpt lat="47.29867" lon="5.45486">
        <ele>187.205005</ele>
        <time>2020-10-11T08:23:38.008Z</time>
      </trkpt>
      <trkpt lat="47.29863" lon="5.45493">
        <ele>187.217628</ele>
        <time>2020-10-11T08:23:39.559Z</time>
      </trkpt>
      <trkpt lat="47.29755" lon="5.45683">
        <ele>187.339518</ele>
        <time>2020-10-11T08:24:14.877Z</time>
      </trkpt>
      <trkpt lat="47.29738" lon="5.4572">
        <ele>187.274214</ele>
        <time>2020-10-11T08:24:20.667Z</time>
      </trkpt>
      <trkpt lat="47.29727" lon="5.45767">
        <ele>187.201304</ele>
        <time>2020-10-11T08:24:27.129Z</time>
      </trkpt>
      <trkpt lat="47.2965" lon="5.46149">
        <ele>186.232361</ele>
        <time>2020-10-11T08:25:18.650Z</time>
      </trkpt>
      <trkpt lat="47.29614" lon="5.46359">
        <ele>185.464776</ele>
        <time>2020-10-11T08:25:45.461Z</time>
      </trkpt>
      <trkpt lat="47.29591" lon="5.46484">
        <ele>185.486987</ele>
        <time>2020-10-11T08:26:02.369Z</time>
      </trkpt>
      <trkpt lat="47.29584" lon="5.46507">
        <ele>185.498908</ele>
        <time>2020-10-11T08:26:06.177Z</time>
      </trkpt>
      <trkpt lat="47.29261" lon="5.47235">
        <ele>188.654807</ele>
        <time>2020-10-11T08:28:27.208Z</time>
      </trkpt>
      <trkpt lat="47.29247" lon="5.47272">
        <ele>188.864397</ele>
        <time>2020-10-11T08:28:34.789Z</time>
      </trkpt>
      <trkpt lat="47.29238" lon="5.47308">
        <ele>189.288272</ele>
        <time>2020-10-11T08:28:41.870Z</time>
      </trkpt>
      <trkpt lat="47.29131" lon="5.47852">
        <ele>197.025932</ele>
        <time>2020-10-11T08:30:42.514Z</time>
      </trkpt>
      <trkpt lat="47.29121" lon="5.479">
        <ele>198.159128</ele>
        <time>2020-10-11T08:30:56.400Z</time>
      </trkpt>
      <trkpt lat="47.29061" lon="5.48192">
        <ele>204.726394</ele>
        <time>2020-10-11T08:32:26.487Z</time>
      </trkpt>
      <trkpt lat="47.28959" lon="5.48671">
        <ele>209.384447</ele>
        <time>2020-10-11T08:34:03.276Z</time>
      </trkpt>
      <trkpt lat="47.28922" lon="5.48835">
        <ele>209.030369</ele>
        <time>2020-10-11T08:34:23.161Z</time>
      </trkpt>
      <trkpt lat="47.28857" lon="5.49112">
        <ele>205.480218</ele>
        <time>2020-10-11T08:34:54.373Z</time>
      </trkpt>
      <trkpt lat="47.28857" lon="5.49114">
        <ele>205.4546</ele>
        <time>2020-10-11T08:34:54.534Z</time>
      </trkpt>
      <trkpt lat="47.28825" lon="5.49244">
        <ele>203.473391</ele>
        <time>2020-10-11T08:35:08.964Z</time>
      </trkpt>
      <trkpt lat="47.28763" lon="5.49468">
        <ele>200.02988</ele>
        <time>2020-10-11T08:35:33.436Z</time>
      </trkpt>
      <trkpt lat="47.28741" lon="5.49544">
        <ele>198.881723</ele>
        <time>2020-10-11T08:35:42.222Z</time>
      </trkpt>
      <trkpt lat="47.28737" lon="5.4956">
        <ele>198.779834</ele>
        <time>2020-10-11T08:35:44.122Z</time>
      </trkpt>
      <trkpt lat="47.287" lon="5.49688">
        <ele>197.974035</ele>
        <time>2020-10-11T08:36:00.481Z</time>
      </trkpt>
      <trkpt lat="47.28675" lon="5.49767">
        <ele>197.478492</ele>
        <time>2020-10-11T08:36:11.432Z</time>
      </trkpt>
      <trkpt lat="47.28639" lon="5.49852">
        <ele>197.060769</ele>
        <time>2020-10-11T08:36:25.274Z</time>
      </trkpt>
      <trkpt lat="47.28562" lon="5.50021">
        <ele>196.249236</ele>
        <time>2020-10-11T08:36:50.189Z</time>
      </trkpt>
      <trkpt lat="47.28533" lon="5.5012">
        <ele>195.578397</ele>
        <time>2020-10-11T08:37:02.258Z</time>
      </trkpt>
      <trkpt lat="47.28416" lon="5.50511">
        <ele>194.308037</ele>
        <time>2020-10-11T08:37:54.228Z</time>
      </trkpt>
      <trkpt lat="47.28277" lon="5.50969">
        <ele>202.520362</ele>
        <time>2020-10-11T08:39:58.440Z</time>
      </trkpt>
      <trkpt lat="47.28227" lon="5.51138">
        <ele>204.084283</ele>
        <time>2020-10-11T08:40:35.209Z</time>
      </trkpt>
      <trkpt lat="47.28156" lon="5.51384">
        <ele>204.776618</ele>
        <time>2020-10-11T08:41:13.764Z</time>
      </trkpt>
      <trkpt lat="47.28141" lon="5.51429">
        <ele>204.773915</ele>
        <time>2020-10-11T08:41:20.378Z</time>
      </trkpt>
      <trkpt lat="47.27579" lon="5.52313">
        <ele>204.28561</ele>
        <time>2020-10-11T08:44:04.289Z</time>
      </trkpt>
      <trkpt lat="47.27121" lon="5.53034">
        <ele>210.276821</ele>
        <time>2020-10-11T08:47:00.641Z</time>
      </trkpt>
      <trkpt lat="47.26845" lon="5.53469">
        <ele>215.924831</ele>
        <time>2020-10-11T08:48:58.964Z</time>
      </trkpt>
      <trkpt lat="47.26224" lon="5.54456">
        <ele>224.683156</ele>
        <time>2020-10-11T08:53:05.433Z</time>
      </trkpt>
      <trkpt lat="47.26039" lon="5.54915">
        <ele>221.281513</ele>
        <time>2020-10-11T08:54:05.351Z</time>
      </trkpt>
      <trkpt lat="47.25925" lon="5.552">
        <ele>217.490279</ele>
        <time>2020-10-11T08:54:39.922Z</time>
      </trkpt>
      <trkpt lat="47.25835" lon="5.55423">
        <ele>215.589451</ele>
        <time>2020-10-11T08:55:10.294Z</time>
      </trkpt>
      <trkpt lat="47.25798" lon="5.5552">
        <ele>214.986782</ele>
        <time>2020-10-11T08:55:24.371Z</time>
      </trkpt>
      <trkpt lat="47.25763" lon="5.55609">
        <ele>214.502442</ele>
        <time>2020-10-11T08:55:37.353Z</time>
      </trkpt>
      <trkpt lat="47.25686" lon="5.55783">
        <ele>213.268647</ele>
        <time>2020-10-11T08:56:01.914Z</time>
      </trkpt>
      <trkpt lat="47.25636" lon="5.55881">
        <ele>212.331704</ele>
        <time>2020-10-11T08:56:15.499Z</time>
      </trkpt>
      <trkpt lat="47.25631" lon="5.5589">
        <ele>212.245205</ele>
        <time>2020-10-11T08:56:16.614Z</time>
      </trkpt>
      <trkpt lat="47.25618" lon="5.55908">
        <ele>212.041852</ele>
        <time>2020-10-11T08:56:19.867Z</time>
      </trkpt>
      <trkpt lat="47.25609" lon="5.55919">
        <ele>211.919538</ele>
        <time>2020-10-11T08:56:21.965Z</time>
      </trkpt>
      <trkpt lat="47.25604" lon="5.55922">
        <ele>211.931648</ele>
        <time>2020-10-11T08:56:22.678Z</time>
      </trkpt>
      <trkpt lat="47.25599" lon="5.55922">
        <ele>211.94601</ele>
        <time>2020-10-11T08:56:23.679Z</time>
      </trkpt>
      <trkpt lat="47.25593" lon="5.55924">
        <ele>211.960352</ele>
        <time>2020-10-11T08:56:24.788Z</time>
      </trkpt>
      <trkpt lat="47.25588" lon="5.55929">
        <ele>211.974731</ele>
        <time>2020-10-11T08:56:25.926Z</time>
      </trkpt>
      <trkpt lat="47.25583" lon="5.55939">
        <ele>211.99503</ele>
        <time>2020-10-11T08:56:27.497Z</time>
      </trkpt>
      <trkpt lat="47.25582" lon="5.55951">
        <ele>212.015291</ele>
        <time>2020-10-11T08:56:28.834Z</time>
      </trkpt>
      <trkpt lat="47.25584" lon="5.55963">
        <ele>212.037531</ele>
        <time>2020-10-11T08:56:30.365Z</time>
      </trkpt>
      <trkpt lat="47.2559" lon="5.55973">
        <ele>212.059824</ele>
        <time>2020-10-11T08:56:32.230Z</time>
      </trkpt>
      <trkpt lat="47.25594" lon="5.5599">
        <ele>212.0896</ele>
        <time>2020-10-11T08:56:34.738Z</time>
      </trkpt>
      <trkpt lat="47.25594" lon="5.56003">
        <ele>212.112611</ele>
        <time>2020-10-11T08:56:36.217Z</time>
      </trkpt>
      <trkpt lat="47.25594" lon="5.5602">
        <ele>212.140689</ele>
        <time>2020-10-11T08:56:38.645Z</time>
      </trkpt>
      <trkpt lat="47.25583" lon="5.56059">
        <ele>212.211411</ele>
        <time>2020-10-11T08:56:44.253Z</time>
      </trkpt>
      <trkpt lat="47.25496" lon="5.56301">
        <ele>214.365181</ele>
        <time>2020-10-11T08:57:42.256Z</time>
      </trkpt>
      <trkpt lat="47.25491" lon="5.56313">
        <ele>214.520746</ele>
        <time>2020-10-11T08:57:45.818Z</time>
      </trkpt>
      <trkpt lat="47.25481" lon="5.56333">
        <ele>214.793174</ele>
        <time>2020-10-11T08:57:49.875Z</time>
      </trkpt>
      <trkpt lat="47.25478" lon="5.56339">
        <ele>214.880892</ele>
        <time>2020-10-11T08:57:52.022Z</time>
      </trkpt>
      <trkpt lat="47.2547" lon="5.56344">
        <ele>215.01128</ele>
        <time>2020-10-11T08:57:54.538Z</time>
      </trkpt>
      <trkpt lat="47.25464" lon="5.56352">
        <ele>215.141466</ele>
        <time>2020-10-11T08:57:57.036Z</time>
      </trkpt>
      <trkpt lat="47.25461" lon="5.56364">
        <ele>215.246064</ele>
        <time>2020-10-11T08:57:58.900Z</time>
      </trkpt>
      <trkpt lat="47.25461" lon="5.56377">
        <ele>215.17348</ele>
        <time>2020-10-11T08:58:01.206Z</time>
      </trkpt>
      <trkpt lat="47.25463" lon="5.56385">
        <ele>215.122717</ele>
        <time>2020-10-11T08:58:03.008Z</time>
      </trkpt>
      <trkpt lat="47.25462" lon="5.56403">
        <ele>215.022133</ele>
        <time>2020-10-11T08:58:06.582Z</time>
      </trkpt>
      <trkpt lat="47.25452" lon="5.56437">
        <ele>214.815771</ele>
        <time>2020-10-11T08:58:12.259Z</time>
      </trkpt>
      <trkpt lat="47.25406" lon="5.56545">
        <ele>214.096583</ele>
        <time>2020-10-11T08:58:26.705Z</time>
      </trkpt>
      <trkpt lat="47.25378" lon="5.56616">
        <ele>213.522794</ele>
        <time>2020-10-11T08:58:34.943Z</time>
      </trkpt>
      <trkpt lat="47.25352" lon="5.56691">
        <ele>212.663843</ele>
        <time>2020-10-11T08:58:43.444Z</time>
      </trkpt>
      <trkpt lat="47.25348" lon="5.56703">
        <ele>212.530542</ele>
        <time>2020-10-11T08:58:44.747Z</time>
      </trkpt>
      <trkpt lat="47.25268" lon="5.56921">
        <ele>211.228739</ele>
        <time>2020-10-11T08:59:14.793Z</time>
      </trkpt>
      <trkpt lat="47.25172" lon="5.57215">
        <ele>211.938077</ele>
        <time>2020-10-11T09:00:11.853Z</time>
      </trkpt>
      <trkpt lat="47.25166" lon="5.57263">
        <ele>212.070594</ele>
        <time>2020-10-11T09:00:18.910Z</time>
      </trkpt>
      <trkpt lat="47.25144" lon="5.57672">
        <ele>210.584918</ele>
        <time>2020-10-11T09:01:09.192Z</time>
      </trkpt>
      <trkpt lat="47.25136" lon="5.57717">
        <ele>210.328581</ele>
        <time>2020-10-11T09:01:14.794Z</time>
      </trkpt>
      <trkpt lat="47.25124" lon="5.5775">
        <ele>210.123434</ele>
        <time>2020-10-11T09:01:19.326Z</time>
      </trkpt>
      <trkpt lat="47.25059" lon="5.57879">
        <ele>208.606246</ele>
        <time>2020-10-11T09:01:38.209Z</time>
      </trkpt>
      <trkpt lat="47.24999" lon="5.57993">
        <ele>206.601145</ele>
        <time>2020-10-11T09:01:53.096Z</time>
      </trkpt>
      <trkpt lat="47.2498" lon="5.58057">
        <ele>205.455014</ele>
        <time>2020-10-11T09:01:59.863Z</time>
      </trkpt>
      <trkpt lat="47.24957" lon="5.58108">
        <ele>204.186488</ele>
        <time>2020-10-11T09:02:05.702Z</time>
      </trkpt>
      <trkpt lat="47.24923" lon="5.58152">
        <ele>202.79569</ele>
        <time>2020-10-11T09:02:12.062Z</time>
      </trkpt>
      <trkpt lat="47.24889" lon="5.58204">
        <ele>201.269102</ele>
        <time>2020-10-11T09:02:18.987Z</time>
      </trkpt>
      <trkpt lat="47.24828" lon="5.58282">
        <ele>199.841402</ele>
        <time>2020-10-11T09:02:31.006Z</time>
      </trkpt>
      <trkpt lat="47.24689" lon="5.58479">
        <ele>199.306922</ele>
        <time>2020-10-11T09:03:07.785Z</time>
      </trkpt>
      <trkpt lat="47.24678" lon="5.58503">
        <ele>199.562955</ele>
        <time>2020-10-11T09:03:13.554Z</time>
      </trkpt>
      <trkpt lat="47.24662" lon="5.58525">
        <ele>199.838389</ele>
        <time>2020-10-11T09:03:20.623Z</time>
      </trkpt>
      <trkpt lat="47.24655" lon="5.58546">
        <ele>200.045173</ele>
        <time>2020-10-11T09:03:25.887Z</time>
      </trkpt>
      <trkpt lat="47.24644" lon="5.586">
        <ele>200.537228</ele>
        <time>2020-10-11T09:03:39.695Z</time>
      </trkpt>
      <trkpt lat="47.24644" lon="5.58659">
        <ele>201.083739</ele>
        <time>2020-10-11T09:03:53.466Z</time>
      </trkpt>
      <trkpt lat="47.24665" lon="5.58803">
        <ele>202.517103</ele>
        <time>2020-10-11T09:04:25.772Z</time>
      </trkpt>
      <trkpt lat="47.2468" lon="5.58929">
        <ele>203.276431</ele>
        <time>2020-10-11T09:04:44.589Z</time>
      </trkpt>
      <trkpt lat="47.24684" lon="5.5898">
        <ele>203.171316</ele>
        <time>2020-10-11T09:04:51.126Z</time>
      </trkpt>
      <trkpt lat="47.24677" lon="5.59104">
        <ele>202.917816</ele>
        <time>2020-10-11T09:05:05.856Z</time>
      </trkpt>
      <trkpt lat="47.24645" lon="5.59607">
        <ele>203.707699</ele>
        <time>2020-10-11T09:06:23.340Z</time>
      </trkpt>
      <trkpt lat="47.24618" lon="5.60125">
        <ele>205.036545</ele>
        <time>2020-10-11T09:07:43.404Z</time>
      </trkpt>
      <trkpt lat="47.24612" lon="5.60255">
        <ele>205.465672</ele>
        <time>2020-10-11T09:08:04.974Z</time>
      </trkpt>
      <trkpt lat="47.24602" lon="5.60434">
        <ele>206.130119</ele>
        <time>2020-10-11T09:08:35.016Z</time>
      </trkpt>
      <trkpt lat="47.24598" lon="5.6052">
        <ele>206.042441</ele>
        <time>2020-10-11T09:08:48.359Z</time>
      </trkpt>
      <trkpt lat="47.24593" lon="5.60651">
        <ele>205.433573</ele>
        <time>2020-10-11T09:09:04.682Z</time>
      </trkpt>
      <trkpt lat="47.2459" lon="5.60729">
        <ele>205.070828</ele>
        <time>2020-10-11T09:09:13.306Z</time>
      </trkpt>
      <trkpt lat="47.24588" lon="5.60777">
        <ele>204.581354</ele>
        <time>2020-10-11T09:09:18.414Z</time>
      </trkpt>
      <trkpt lat="47.24585" lon="5.60831">
        <ele>203.966345</ele>
        <time>2020-10-11T09:09:24.236Z</time>
      </trkpt>
      <trkpt lat="47.24584" lon="5.6089">
        <ele>203.299512</ele>
        <time>2020-10-11T09:09:30.564Z</time>
      </trkpt>
      <trkpt lat="47.24591" lon="5.60952">
        <ele>202.596702</ele>
        <time>2020-10-11T09:09:37.265Z</time>
      </trkpt>
      <trkpt lat="47.24606" lon="5.61034">
        <ele>201.722913</ele>
        <time>2020-10-11T09:09:46.407Z</time>
      </trkpt>
      <trkpt lat="47.24639" lon="5.61231">
        <ele>199.860884</ele>
        <time>2020-10-11T09:10:09.467Z</time>
      </trkpt>
      <trkpt lat="47.2468" lon="5.61527">
        <ele>197.310474</ele>
        <time>2020-10-11T09:10:43.028Z</time>
      </trkpt>
      <trkpt lat="47.24682" lon="5.61576">
        <ele>197.537464</ele>
        <time>2020-10-11T09:10:48.683Z</time>
      </trkpt>
      <trkpt lat="47.24679" lon="5.61613">
        <ele>197.712414</ele>
        <time>2020-10-11T09:10:53.279Z</time>
      </trkpt>
      <trkpt lat="47.24674" lon="5.61634">
        <ele>197.815035</ele>
        <time>2020-10-11T09:10:56.544Z</time>
      </trkpt>
      <trkpt lat="47.24656" lon="5.61688">
        <ele>198.099072</ele>
        <time>2020-10-11T09:11:07.156Z</time>
      </trkpt>
      <trkpt lat="47.24629" lon="5.61749">
        <ele>198.439296</ele>
        <time>2020-10-11T09:11:23.051Z</time>
      </trkpt>
      <trkpt lat="47.24607" lon="5.61803">
        <ele>199.830254</ele>
        <time>2020-10-11T09:11:39.110Z</time>
      </trkpt>
      <trkpt lat="47.246" lon="5.61819">
        <ele>200.325848</ele>
        <time>2020-10-11T09:11:44.655Z</time>
      </trkpt>
      <trkpt lat="47.24562" lon="5.61908">
        <ele>203.058483</ele>
        <time>2020-10-11T09:12:17.059Z</time>
      </trkpt>
      <trkpt lat="47.24497" lon="5.62079">
        <ele>207.221598</ele>
        <time>2020-10-11T09:13:15.904Z</time>
      </trkpt>
      <trkpt lat="47.24492" lon="5.6211">
        <ele>207.767473</ele>
        <time>2020-10-11T09:13:23.564Z</time>
      </trkpt>
      <trkpt lat="47.24493" lon="5.62186">
        <ele>209.069221</ele>
        <time>2020-10-11T09:13:40.194Z</time>
      </trkpt>
      <trkpt lat="47.24536" lon="5.6276">
        <ele>209.871956</ele>
        <time>2020-10-11T09:15:03.545Z</time>
      </trkpt>
      <trkpt lat="47.24542" lon="5.62794">
        <ele>209.446135</ele>
        <time>2020-10-11T09:15:07.480Z</time>
      </trkpt>
      <trkpt lat="47.24545" lon="5.62806">
        <ele>209.283211</ele>
        <time>2020-10-11T09:15:08.661Z</time>
      </trkpt>
      <trkpt lat="47.2468" lon="5.63298">
        <ele>202.583845</ele>
        <time>2020-10-11T09:16:03.041Z</time>
      </trkpt>
      <trkpt lat="47.24689" lon="5.63363">
        <ele>202.668214</ele>
        <time>2020-10-11T09:16:12.290Z</time>
      </trkpt>
      <trkpt lat="47.2469" lon="5.63434">
        <ele>202.759051</ele>
        <time>2020-10-11T09:16:24.374Z</time>
      </trkpt>
      <trkpt lat="47.24689" lon="5.63467">
        <ele>202.800237</ele>
        <time>2020-10-11T09:16:30.395Z</time>
      </trkpt>
      <trkpt lat="47.24685" lon="5.63492">
        <ele>202.833408</ele>
        <time>2020-10-11T09:16:35.874Z</time>
      </trkpt>
      <trkpt lat="47.24678" lon="5.6353">
        <ele>203.03075</ele>
        <time>2020-10-11T09:16:43.945Z</time>
      </trkpt>
      <trkpt lat="47.24637" lon="5.63751">
        <ele>205.452568</ele>
        <time>2020-10-11T09:17:32.094Z</time>
      </trkpt>
      <trkpt lat="47.2457" lon="5.64084">
        <ele>207.744116</ele>
        <time>2020-10-11T09:18:27.675Z</time>
      </trkpt>
      <trkpt lat="47.24485" lon="5.64536">
        <ele>215.384452</ele>
        <time>2020-10-11T09:20:18.929Z</time>
      </trkpt>
      <trkpt lat="47.24478" lon="5.64564">
        <ele>216.224426</ele>
        <time>2020-10-11T09:20:27.432Z</time>
      </trkpt>
      <trkpt lat="47.24469" lon="5.64595">
        <ele>217.195571</ele>
        <time>2020-10-11T09:20:38.046Z</time>
      </trkpt>
      <trkpt lat="47.24443" lon="5.64656">
        <ele>219.226612</ele>
        <time>2020-10-11T09:20:59.793Z</time>
      </trkpt>
      <trkpt lat="47.24426" lon="5.64684">
        <ele>220.289059</ele>
        <time>2020-10-11T09:21:12.060Z</time>
      </trkpt>
      <trkpt lat="47.24393" lon="5.64737">
        <ele>222.327141</ele>
        <time>2020-10-11T09:21:34.763Z</time>
      </trkpt>
      <trkpt lat="47.24357" lon="5.64789">
        <ele>224.387568</ele>
        <time>2020-10-11T09:21:57.723Z</time>
      </trkpt>
      <trkpt lat="47.24331" lon="5.64848">
        <ele>226.330896</ele>
        <time>2020-10-11T09:22:19.013Z</time>
      </trkpt>
      <trkpt lat="47.24309" lon="5.64954">
        <ele>229.392989</ele>
        <time>2020-10-11T09:22:51.557Z</time>
      </trkpt>
      <trkpt lat="47.24308" lon="5.65006">
        <ele>230.621224</ele>
        <time>2020-10-11T09:23:06.147Z</time>
      </trkpt>
      <trkpt lat="47.24327" lon="5.6516">
        <ele>233.594884</ele>
        <time>2020-10-11T09:23:46.752Z</time>
      </trkpt>
      <trkpt lat="47.24329" lon="5.65219">
        <ele>234.711418</ele>
        <time>2020-10-11T09:24:00.813Z</time>
      </trkpt>
      <trkpt lat="47.24322" lon="5.65277">
        <ele>235.106094</ele>
        <time>2020-10-11T09:24:14.123Z</time>
      </trkpt>
      <trkpt lat="47.24284" lon="5.6551">
        <ele>234.46629</ele>
        <time>2020-10-11T09:24:44.053Z</time>
      </trkpt>
      <trkpt lat="47.24283" lon="5.6552">
        <ele>234.242351</ele>
        <time>2020-10-11T09:24:44.950Z</time>
      </trkpt>
      <trkpt lat="47.2428" lon="5.65568">
        <ele>233.208523</ele>
        <time>2020-10-11T09:24:49.856Z</time>
      </trkpt>
      <trkpt lat="47.24289" lon="5.65713">
        <ele>230.108575</ele>
        <time>2020-10-11T09:25:03.546Z</time>
      </trkpt>
      <trkpt lat="47.24287" lon="5.65769">
        <ele>228.914117</ele>
        <time>2020-10-11T09:25:08.741Z</time>
      </trkpt>
      <trkpt lat="47.24281" lon="5.65812">
        <ele>228.072495</ele>
        <time>2020-10-11T09:25:12.940Z</time>
      </trkpt>
      <trkpt lat="47.24262" lon="5.6596">
        <ele>225.171185</ele>
        <time>2020-10-11T09:25:27.777Z</time>
      </trkpt>
      <trkpt lat="47.24215" lon="5.66324">
        <ele>219.60522</ele>
        <time>2020-10-11T09:26:06.225Z</time>
      </trkpt>
      <trkpt lat="47.24197" lon="5.66396">
        <ele>218.550084</ele>
        <time>2020-10-11T09:26:14.838Z</time>
      </trkpt>
      <trkpt lat="47.24155" lon="5.66527">
        <ele>216.551572</ele>
        <time>2020-10-11T09:26:29.835Z</time>
      </trkpt>
      <trkpt lat="47.24144" lon="5.66559">
        <ele>215.942227</ele>
        <time>2020-10-11T09:26:33.431Z</time>
      </trkpt>
      <trkpt lat="47.241" lon="5.66683">
        <ele>213.497708</ele>
        <time>2020-10-11T09:26:47.121Z</time>
      </trkpt>
      <trkpt lat="47.24099" lon="5.66686">
        <ele>213.430663</ele>
        <time>2020-10-11T09:26:47.494Z</time>
      </trkpt>
      <trkpt lat="47.24084" lon="5.66731">
        <ele>212.548841</ele>
        <time>2020-10-11T09:26:52.483Z</time>
      </trkpt>
      <trkpt lat="47.24064" lon="5.66807">
        <ele>211.928363</ele>
        <time>2020-10-11T09:27:00.778Z</time>
      </trkpt>
      <trkpt lat="47.24062" lon="5.66827">
        <ele>211.96604</ele>
        <time>2020-10-11T09:27:03.066Z</time>
      </trkpt>
      <trkpt lat="47.24067" lon="5.66887">
        <ele>212.076281</ele>
        <time>2020-10-11T09:27:10.791Z</time>
      </trkpt>
      <trkpt lat="47.24074" lon="5.66979">
        <ele>212.245824</ele>
        <time>2020-10-11T09:27:27.771Z</time>
      </trkpt>
      <trkpt lat="47.24076" lon="5.67012">
        <ele>212.307127</ele>
        <time>2020-10-11T09:27:35.162Z</time>
      </trkpt>
      <trkpt lat="47.24079" lon="5.6703">
        <ele>212.36063</ele>
        <time>2020-10-11T09:27:39.076Z</time>
      </trkpt>
      <trkpt lat="47.24087" lon="5.67059">
        <ele>212.966489</ele>
        <time>2020-10-11T09:27:46.651Z</time>
      </trkpt>
      <trkpt lat="47.24171" lon="5.6721">
        <ele>216.757095</ele>
        <time>2020-10-11T09:28:37.540Z</time>
      </trkpt>
      <trkpt lat="47.24286" lon="5.67578">
        <ele>223.522863</ele>
        <time>2020-10-11T09:30:18.509Z</time>
      </trkpt>
      <trkpt lat="47.24304" lon="5.67663">
        <ele>224.325887</ele>
        <time>2020-10-11T09:30:34.881Z</time>
      </trkpt>
      <trkpt lat="47.24327" lon="5.67867">
        <ele>224.131181</ele>
        <time>2020-10-11T09:31:01.156Z</time>
      </trkpt>
      <trkpt lat="47.24387" lon="5.68082">
        <ele>222.152776</ele>
        <time>2020-10-11T09:31:26.700Z</time>
      </trkpt>
      <trkpt lat="47.24422" lon="5.68163">
        <ele>221.069116</ele>
        <time>2020-10-11T09:31:37.129Z</time>
      </trkpt>
      <trkpt lat="47.24534" lon="5.68344">
        <ele>217.755941</ele>
        <time>2020-10-11T09:32:02.904Z</time>
      </trkpt>
      <trkpt lat="47.24571" lon="5.6845">
        <ele>216.058894</ele>
        <time>2020-10-11T09:32:14.906Z</time>
      </trkpt>
      <trkpt lat="47.24602" lon="5.68542">
        <ele>214.617338</ele>
        <time>2020-10-11T09:32:25.122Z</time>
      </trkpt>
      <trkpt lat="47.24605" lon="5.68584">
        <ele>214.014079</ele>
        <time>2020-10-11T09:32:29.502Z</time>
      </trkpt>
      <trkpt lat="47.24598" lon="5.68622">
        <ele>213.457408</ele>
        <time>2020-10-11T09:32:33.655Z</time>
      </trkpt>
      <trkpt lat="47.24583" lon="5.6865">
        <ele>212.969505</ele>
        <time>2020-10-11T09:32:37.605Z</time>
      </trkpt>
      <trkpt lat="47.24577" lon="5.68661">
        <ele>212.78025</ele>
        <time>2020-10-11T09:32:39.169Z</time>
      </trkpt>
      <trkpt lat="47.24578" lon="5.68677">
        <ele>212.788649</ele>
        <time>2020-10-11T09:32:41.090Z</time>
      </trkpt>
      <trkpt lat="47.24601" lon="5.68736">
        <ele>212.825497</ele>
        <time>2020-10-11T09:32:49.713Z</time>
      </trkpt>
      <trkpt lat="47.24603" lon="5.68742">
        <ele>212.829214</ele>
        <time>2020-10-11T09:32:50.597Z</time>
      </trkpt>
      <trkpt lat="47.24612" lon="5.68767">
        <ele>212.844592</ele>
        <time>2020-10-11T09:32:54.343Z</time>
      </trkpt>
      <trkpt lat="47.24618" lon="5.68781">
        <ele>212.853286</ele>
        <time>2020-10-11T09:32:57.275Z</time>
      </trkpt>
      <trkpt lat="47.2463" lon="5.68825">
        <ele>212.878915</ele>
        <time>2020-10-11T09:33:04.553Z</time>
      </trkpt>
      <trkpt lat="47.24629" lon="5.68856">
        <ele>212.895553</ele>
        <time>2020-10-11T09:33:09.476Z</time>
      </trkpt>
      <trkpt lat="47.24615" lon="5.68899">
        <ele>212.92098</ele>
        <time>2020-10-11T09:33:18.419Z</time>
      </trkpt>
      <trkpt lat="47.24601" lon="5.68937">
        <ele>213.047436</ele>
        <time>2020-10-11T09:33:26.729Z</time>
      </trkpt>
      <trkpt lat="47.24598" lon="5.68954">
        <ele>213.098481</ele>
        <time>2020-10-11T09:33:29.574Z</time>
      </trkpt>
      <trkpt lat="47.24602" lon="5.68978">
        <ele>213.170957</ele>
        <time>2020-10-11T09:33:34.343Z</time>
      </trkpt>
      <trkpt lat="47.24626" lon="5.69036">
        <ele>213.374509</ele>
        <time>2020-10-11T09:33:44.869Z</time>
      </trkpt>
      <trkpt lat="47.24653" lon="5.69098">
        <ele>213.595456</ele>
        <time>2020-10-11T09:33:55.888Z</time>
      </trkpt>
      <trkpt lat="47.24692" lon="5.69183">
        <ele>213.814532</ele>
        <time>2020-10-11T09:34:10.086Z</time>
      </trkpt>
      <trkpt lat="47.2474" lon="5.69281">
        <ele>214.002986</ele>
        <time>2020-10-11T09:34:25.932Z</time>
      </trkpt>
      <trkpt lat="47.24787" lon="5.69391">
        <ele>214.816155</ele>
        <time>2020-10-11T09:34:48.161Z</time>
      </trkpt>
      <trkpt lat="47.24796" lon="5.69421">
        <ele>215.284076</ele>
        <time>2020-10-11T09:34:55.590Z</time>
      </trkpt>
      <trkpt lat="47.24818" lon="5.69529">
        <ele>216.883781</ele>
        <time>2020-10-11T09:35:24.251Z</time>
      </trkpt>
      <trkpt lat="47.24826" lon="5.69572">
        <ele>217.523467</ele>
        <time>2020-10-11T09:35:34.784Z</time>
      </trkpt>
      <trkpt lat="47.24831" lon="5.69598">
        <ele>217.889687</ele>
        <time>2020-10-11T09:35:40.987Z</time>
      </trkpt>
      <trkpt lat="47.24847" lon="5.69687">
        <ele>217.912568</ele>
        <time>2020-10-11T09:35:59.912Z</time>
      </trkpt>
      <trkpt lat="47.24884" lon="5.6989">
        <ele>217.395968</ele>
        <time>2020-10-11T09:36:25.067Z</time>
      </trkpt>
      <trkpt lat="47.2489" lon="5.69926">
        <ele>216.860377</ele>
        <time>2020-10-11T09:36:28.552Z</time>
      </trkpt>
      <trkpt lat="47.24893" lon="5.6996">
        <ele>216.359161</ele>
        <time>2020-10-11T09:36:31.966Z</time>
      </trkpt>
      <trkpt lat="47.24891" lon="5.69978">
        <ele>216.093466</ele>
        <time>2020-10-11T09:36:33.683Z</time>
      </trkpt>
      <trkpt lat="47.24884" lon="5.70056">
        <ele>214.941446</ele>
        <time>2020-10-11T09:36:41.706Z</time>
      </trkpt>
      <trkpt lat="47.24885" lon="5.70122">
        <ele>214.011348</ele>
        <time>2020-10-11T09:36:48.653Z</time>
      </trkpt>
      <trkpt lat="47.24886" lon="5.70141">
        <ele>213.825505</ele>
        <time>2020-10-11T09:36:50.569Z</time>
      </trkpt>
      <trkpt lat="47.24899" lon="5.70175">
        <ele>213.453207</ele>
        <time>2020-10-11T09:36:54.798Z</time>
      </trkpt>
      <trkpt lat="47.24903" lon="5.70188">
        <ele>213.317037</ele>
        <time>2020-10-11T09:36:56.266Z</time>
      </trkpt>
      <trkpt lat="47.24958" lon="5.70296">
        <ele>212.012203</ele>
        <time>2020-10-11T09:37:11.745Z</time>
      </trkpt>
      <trkpt lat="47.24991" lon="5.70317">
        <ele>211.526758</ele>
        <time>2020-10-11T09:37:17.685Z</time>
      </trkpt>
      <trkpt lat="47.25043" lon="5.70334">
        <ele>211.382758</ele>
        <time>2020-10-11T09:37:26.824Z</time>
      </trkpt>
      <trkpt lat="47.25074" lon="5.70334">
        <ele>211.298777</ele>
        <time>2020-10-11T09:37:32.074Z</time>
      </trkpt>
      <trkpt lat="47.25083" lon="5.70339">
        <ele>211.273508</ele>
        <time>2020-10-11T09:37:33.684Z</time>
      </trkpt>
      <trkpt lat="47.25095" lon="5.70351">
        <ele>211.234705</ele>
        <time>2020-10-11T09:37:36.258Z</time>
      </trkpt>
      <trkpt lat="47.25102" lon="5.70374">
        <ele>211.188707</ele>
        <time>2020-10-11T09:37:40.199Z</time>
      </trkpt>
      <trkpt lat="47.25106" lon="5.70422">
        <ele>211.099468</ele>
        <time>2020-10-11T09:37:47.440Z</time>
      </trkpt>
      <trkpt lat="47.25111" lon="5.70483">
        <ele>211.325171</ele>
        <time>2020-10-11T09:37:59.211Z</time>
      </trkpt>
      <trkpt lat="47.2512" lon="5.70519">
        <ele>211.650119</ele>
        <time>2020-10-11T09:38:08.017Z</time>
      </trkpt>
      <trkpt lat="47.25117" lon="5.70522">
        <ele>211.693162</ele>
        <time>2020-10-11T09:38:08.927Z</time>
      </trkpt>
      <trkpt lat="47.25114" lon="5.70536">
        <ele>211.82007</ele>
        <time>2020-10-11T09:38:11.452Z</time>
      </trkpt>
      <trkpt lat="47.25115" lon="5.70541">
        <ele>211.864536</ele>
        <time>2020-10-11T09:38:12.568Z</time>
      </trkpt>
      <trkpt lat="47.25117" lon="5.70544">
        <ele>211.904139</ele>
        <time>2020-10-11T09:38:13.562Z</time>
      </trkpt>
      <trkpt lat="47.25119" lon="5.70547">
        <ele>211.943121</ele>
        <time>2020-10-11T09:38:14.518Z</time>
      </trkpt>
      <trkpt lat="47.25121" lon="5.70548">
        <ele>211.963182</ele>
        <time>2020-10-11T09:38:15.020Z</time>
      </trkpt>
      <trkpt lat="47.25123" lon="5.70559">
        <ele>212.065031</ele>
        <time>2020-10-11T09:38:18.769Z</time>
      </trkpt>
      <trkpt lat="47.25119" lon="5.70634">
        <ele>212.709659</ele>
        <time>2020-10-11T09:38:33.111Z</time>
      </trkpt>
      <trkpt lat="47.25122" lon="5.70671">
        <ele>213.022149</ele>
        <time>2020-10-11T09:38:40.966Z</time>
      </trkpt>
      <trkpt lat="47.25128" lon="5.70709">
        <ele>213.283692</ele>
        <time>2020-10-11T09:38:47.605Z</time>
      </trkpt>
      <trkpt lat="47.2516" lon="5.70904">
        <ele>212.288647</ele>
        <time>2020-10-11T09:39:13.026Z</time>
      </trkpt>
      <trkpt lat="47.25173" lon="5.70979">
        <ele>211.928659</ele>
        <time>2020-10-11T09:39:20.699Z</time>
      </trkpt>
      <trkpt lat="47.25202" lon="5.71169">
        <ele>211.233764</ele>
        <time>2020-10-11T09:39:42.465Z</time>
      </trkpt>
      <trkpt lat="47.25212" lon="5.71198">
        <ele>211.1172</ele>
        <time>2020-10-11T09:39:48.381Z</time>
      </trkpt>
      <trkpt lat="47.25282" lon="5.71356">
        <ele>215.72326</ele>
        <time>2020-10-11T09:40:39.268Z</time>
      </trkpt>
      <trkpt lat="47.2529" lon="5.71381">
        <ele>216.479862</ele>
        <time>2020-10-11T09:40:49.037Z</time>
      </trkpt>
      <trkpt lat="47.25295" lon="5.71404">
        <ele>217.169076</ele>
        <time>2020-10-11T09:40:58.907Z</time>
      </trkpt>
      <trkpt lat="47.2531" lon="5.71522">
        <ele>220.701066</ele>
        <time>2020-10-11T09:41:43.258Z</time>
      </trkpt>
      <trkpt lat="47.25321" lon="5.71608">
        <ele>223.402411</ele>
        <time>2020-10-11T09:42:13.934Z</time>
      </trkpt>
      <trkpt lat="47.25322" lon="5.71615">
        <ele>223.621604</ele>
        <time>2020-10-11T09:42:15.990Z</time>
      </trkpt>
      <trkpt lat="47.25326" lon="5.71646">
        <ele>224.567455</ele>
        <time>2020-10-11T09:42:24.520Z</time>
      </trkpt>
      <trkpt lat="47.25336" lon="5.71688">
        <ele>225.935584</ele>
        <time>2020-10-11T09:42:35.391Z</time>
      </trkpt>
      <trkpt lat="47.25339" lon="5.717">
        <ele>226.322964</ele>
        <time>2020-10-11T09:42:38.722Z</time>
      </trkpt>
      <trkpt lat="47.25344" lon="5.71715">
        <ele>226.524619</ele>
        <time>2020-10-11T09:42:42.259Z</time>
      </trkpt>
      <trkpt lat="47.25366" lon="5.71755">
        <ele>226.686862</ele>
        <time>2020-10-11T09:42:53.585Z</time>
      </trkpt>
      <trkpt lat="47.254" lon="5.71816">
        <ele>226.939693</ele>
        <time>2020-10-11T09:43:07.282Z</time>
      </trkpt>
      <trkpt lat="47.2542" lon="5.71856">
        <ele>227.096563</ele>
        <time>2020-10-11T09:43:13.394Z</time>
      </trkpt>
      <trkpt lat="47.25441" lon="5.71919">
        <ele>227.320126</ele>
        <time>2020-10-11T09:43:21.315Z</time>
      </trkpt>
      <trkpt lat="47.25452" lon="5.71994">
        <ele>226.95902</ele>
        <time>2020-10-11T09:43:30.316Z</time>
      </trkpt>
      <trkpt lat="47.25452" lon="5.72047">
        <ele>226.694669</ele>
        <time>2020-10-11T09:43:36.652Z</time>
      </trkpt>
      <trkpt lat="47.25453" lon="5.72124">
        <ele>226.30421</ele>
        <time>2020-10-11T09:43:46.315Z</time>
      </trkpt>
      <trkpt lat="47.25454" lon="5.72188">
        <ele>225.986532</ele>
        <time>2020-10-11T09:43:54.201Z</time>
      </trkpt>
      <trkpt lat="47.25458" lon="5.72264">
        <ele>225.768108</ele>
        <time>2020-10-11T09:44:03.373Z</time>
      </trkpt>
      <trkpt lat="47.25462" lon="5.72344">
        <ele>225.536416</ele>
        <time>2020-10-11T09:44:13.473Z</time>
      </trkpt>
      <trkpt lat="47.25466" lon="5.72424">
        <ele>225.305874</ele>
        <time>2020-10-11T09:44:23.956Z</time>
      </trkpt>
      <trkpt lat="47.25455" lon="5.72862">
        <ele>226.090822</ele>
        <time>2020-10-11T09:45:29.891Z</time>
      </trkpt>
      <trkpt lat="47.25451" lon="5.7296">
        <ele>226.438823</ele>
        <time>2020-10-11T09:45:46.629Z</time>
      </trkpt>
      <trkpt lat="47.25455" lon="5.73021">
        <ele>226.700189</ele>
        <time>2020-10-11T09:45:57.494Z</time>
      </trkpt>
      <trkpt lat="47.25498" lon="5.73302">
        <ele>227.453692</ele>
        <time>2020-10-11T09:46:45.578Z</time>
      </trkpt>
      <trkpt lat="47.2551" lon="5.73381">
        <ele>227.098913</ele>
        <time>2020-10-11T09:46:55.957Z</time>
      </trkpt>
      <trkpt lat="47.25516" lon="5.73415">
        <ele>226.94655</ele>
        <time>2020-10-11T09:47:00.143Z</time>
      </trkpt>
      <trkpt lat="47.25522" lon="5.73443">
        <ele>226.814165</ele>
        <time>2020-10-11T09:47:03.574Z</time>
      </trkpt>
      <trkpt lat="47.25529" lon="5.73469">
        <ele>226.691345</ele>
        <time>2020-10-11T09:47:06.655Z</time>
      </trkpt>
      <trkpt lat="47.25576" lon="5.73581">
        <ele>224.598717</ele>
        <time>2020-10-11T09:47:20.234Z</time>
      </trkpt>
      <trkpt lat="47.25733" lon="5.7382">
        <ele>217.994651</ele>
        <time>2020-10-11T09:47:52.024Z</time>
      </trkpt>
      <trkpt lat="47.25752" lon="5.73848">
        <ele>217.173119</ele>
        <time>2020-10-11T09:47:55.811Z</time>
      </trkpt>
      <trkpt lat="47.25771" lon="5.7388">
        <ele>216.288229</ele>
        <time>2020-10-11T09:48:00.048Z</time>
      </trkpt>
      <trkpt lat="47.25785" lon="5.73906">
        <ele>215.870976</ele>
        <time>2020-10-11T09:48:03.559Z</time>
      </trkpt>
      <trkpt lat="47.25795" lon="5.73928">
        <ele>215.669298</ele>
        <time>2020-10-11T09:48:06.218Z</time>
      </trkpt>
      <trkpt lat="47.2583" lon="5.74036">
        <ele>214.724753</ele>
        <time>2020-10-11T09:48:19.378Z</time>
      </trkpt>
      <trkpt lat="47.25836" lon="5.74068">
        <ele>214.4658</ele>
        <time>2020-10-11T09:48:23.751Z</time>
      </trkpt>
      <trkpt lat="47.2584" lon="5.7411">
        <ele>214.132023</ele>
        <time>2020-10-11T09:48:29.693Z</time>
      </trkpt>
      <trkpt lat="47.25847" lon="5.74165">
        <ele>213.883808</ele>
        <time>2020-10-11T09:48:38.323Z</time>
      </trkpt>
      <trkpt lat="47.25869" lon="5.74278">
        <ele>213.594987</ele>
        <time>2020-10-11T09:48:56.168Z</time>
      </trkpt>
      <trkpt lat="47.25888" lon="5.74375">
        <ele>213.348626</ele>
        <time>2020-10-11T09:49:08.340Z</time>
      </trkpt>
      <trkpt lat="47.25905" lon="5.74445">
        <ele>212.198917</ele>
        <time>2020-10-11T09:49:16.268Z</time>
      </trkpt>
      <trkpt lat="47.25914" lon="5.74476">
        <ele>211.589638</ele>
        <time>2020-10-11T09:49:19.777Z</time>
      </trkpt>
      <trkpt lat="47.25971" lon="5.74696">
        <ele>207.708388</ele>
        <time>2020-10-11T09:49:42.443Z</time>
      </trkpt>
      <trkpt lat="47.25972" lon="5.74703">
        <ele>207.614007</ele>
        <time>2020-10-11T09:49:43.031Z</time>
      </trkpt>
      <trkpt lat="47.26021" lon="5.74892">
        <ele>205.124615</ele>
        <time>2020-10-11T09:50:05.075Z</time>
      </trkpt>
      <trkpt lat="47.26028" lon="5.7492">
        <ele>205.277888</ele>
        <time>2020-10-11T09:50:10.284Z</time>
      </trkpt>
      <trkpt lat="47.2612" lon="5.75274">
        <ele>207.863186</ele>
        <time>2020-10-11T09:51:22.491Z</time>
      </trkpt>
      <trkpt lat="47.26179" lon="5.75435">
        <ele>209.74049</ele>
        <time>2020-10-11T09:51:58.902Z</time>
      </trkpt>
      <trkpt lat="47.26197" lon="5.75502">
        <ele>210.555234</ele>
        <time>2020-10-11T09:52:13.784Z</time>
      </trkpt>
      <trkpt lat="47.26202" lon="5.75562">
        <ele>211.247002</ele>
        <time>2020-10-11T09:52:26.143Z</time>
      </trkpt>
      <trkpt lat="47.26205" lon="5.75623">
        <ele>211.954582</ele>
        <time>2020-10-11T09:52:38.457Z</time>
      </trkpt>
      <trkpt lat="47.26213" lon="5.75677">
        <ele>212.709109</ele>
        <time>2020-10-11T09:52:50.344Z</time>
      </trkpt>
      <trkpt lat="47.26217" lon="5.75696">
        <ele>212.975866</ele>
        <time>2020-10-11T09:52:55.448Z</time>
      </trkpt>
      <trkpt lat="47.26226" lon="5.7572">
        <ele>213.346727</ele>
        <time>2020-10-11T09:53:01.064Z</time>
      </trkpt>
      <trkpt lat="47.26243" lon="5.75748">
        <ele>213.854551</ele>
        <time>2020-10-11T09:53:09.935Z</time>
      </trkpt>
      <trkpt lat="47.2626" lon="5.75764">
        <ele>214.252473</ele>
        <time>2020-10-11T09:53:16.913Z</time>
      </trkpt>
      <trkpt lat="47.26267" lon="5.7577">
        <ele>214.427152</ele>
        <time>2020-10-11T09:53:20.046Z</time>
      </trkpt>
      <trkpt lat="47.26262" lon="5.75804">
        <ele>214.900937</ele>
        <time>2020-10-11T09:53:27.139Z</time>
      </trkpt>
      <trkpt lat="47.26259" lon="5.75815">
        <ele>215.065055</ele>
        <time>2020-10-11T09:53:30.429Z</time>
      </trkpt>
      <trkpt lat="47.2625" lon="5.75858">
        <ele>215.59175</ele>
        <time>2020-10-11T09:53:39.128Z</time>
      </trkpt>
      <trkpt lat="47.26249" lon="5.75893">
        <ele>215.823522</ele>
        <time>2020-10-11T09:53:45.631Z</time>
      </trkpt>
      <trkpt lat="47.2625" lon="5.75903">
        <ele>215.893714</ele>
        <time>2020-10-11T09:53:48.120Z</time>
      </trkpt>
      <trkpt lat="47.26251" lon="5.75915">
        <ele>215.97456</ele>
        <time>2020-10-11T09:53:50.701Z</time>
      </trkpt>
      <trkpt lat="47.26258" lon="5.75954">
        <ele>216.240506</ele>
        <time>2020-10-11T09:53:57.837Z</time>
      </trkpt>
      <trkpt lat="47.26297" lon="5.76109">
        <ele>217.254145</ele>
        <time>2020-10-11T09:54:26.821Z</time>
      </trkpt>
      <trkpt lat="47.26342" lon="5.76288">
        <ele>216.741739</ele>
        <time>2020-10-11T09:54:50.872Z</time>
      </trkpt>
      <trkpt lat="47.26398" lon="5.76513">
        <ele>215.866743</ele>
        <time>2020-10-11T09:55:19.216Z</time>
      </trkpt>
      <trkpt lat="47.26452" lon="5.76647">
        <ele>215.739767</ele>
        <time>2020-10-11T09:55:40.439Z</time>
      </trkpt>
      <trkpt lat="47.26493" lon="5.76739">
        <ele>216.137352</ele>
        <time>2020-10-11T09:55:58.803Z</time>
      </trkpt>
      <trkpt lat="47.26527" lon="5.76809">
        <ele>216.442375</ele>
        <time>2020-10-11T09:56:13.952Z</time>
      </trkpt>
      <trkpt lat="47.26534" lon="5.76829">
        <ele>216.542931</ele>
        <time>2020-10-11T09:56:18.154Z</time>
      </trkpt>
      <trkpt lat="47.26565" lon="5.76978">
        <ele>217.261633</ele>
        <time>2020-10-11T09:56:45.084Z</time>
      </trkpt>
      <trkpt lat="47.2658" lon="5.77073">
        <ele>217.700179</ele>
        <time>2020-10-11T09:56:59.268Z</time>
      </trkpt>
      <trkpt lat="47.26588" lon="5.77251">
        <ele>218.23712</ele>
        <time>2020-10-11T09:57:28.998Z</time>
      </trkpt>
      <trkpt lat="47.26589" lon="5.77275">
        <ele>218.307417</ele>
        <time>2020-10-11T09:57:32.990Z</time>
      </trkpt>
      <trkpt lat="47.2659" lon="5.77311">
        <ele>218.415283</ele>
        <time>2020-10-11T09:57:38.558Z</time>
      </trkpt>
      <trkpt lat="47.26591" lon="5.7733">
        <ele>218.472387</ele>
        <time>2020-10-11T09:57:41.181Z</time>
      </trkpt>
      <trkpt lat="47.26592" lon="5.77363">
        <ele>218.577217</ele>
        <time>2020-10-11T09:57:45.640Z</time>
      </trkpt>
      <trkpt lat="47.266" lon="5.77389">
        <ele>218.664355</ele>
        <time>2020-10-11T09:57:49.478Z</time>
      </trkpt>
      <trkpt lat="47.26624" lon="5.7743">
        <ele>218.835571</ele>
        <time>2020-10-11T09:57:57.506Z</time>
      </trkpt>
      <trkpt lat="47.26638" lon="5.77446">
        <ele>218.913106</ele>
        <time>2020-10-11T09:58:01.667Z</time>
      </trkpt>
      <trkpt lat="47.26701" lon="5.77485">
        <ele>219.228468</ele>
        <time>2020-10-11T09:58:18.823Z</time>
      </trkpt>
      <trkpt lat="47.26737" lon="5.7751">
        <ele>219.701153</ele>
        <time>2020-10-11T09:58:28.269Z</time>
      </trkpt>
      <trkpt lat="47.26749" lon="5.77518">
        <ele>219.908393</ele>
        <time>2020-10-11T09:58:31.004Z</time>
      </trkpt>
      <trkpt lat="47.26747" lon="5.77531">
        <ele>220.060996</ele>
        <time>2020-10-11T09:58:34.008Z</time>
      </trkpt>
      <trkpt lat="47.26753" lon="5.7771">
        <ele>222.03852</ele>
        <time>2020-10-11T09:59:10.456Z</time>
      </trkpt>
      <trkpt lat="47.26753" lon="5.77732">
        <ele>222.365033</ele>
        <time>2020-10-11T09:59:16.457Z</time>
      </trkpt>
      <trkpt lat="47.26738" lon="5.77755">
        <ele>223.176044</ele>
        <time>2020-10-11T09:59:24.669Z</time>
      </trkpt>
      <trkpt lat="47.26732" lon="5.77773">
        <ele>223.675915</ele>
        <time>2020-10-11T09:59:29.884Z</time>
      </trkpt>
      <trkpt lat="47.26733" lon="5.7778">
        <ele>223.855083</ele>
        <time>2020-10-11T09:59:31.743Z</time>
      </trkpt>
      <trkpt lat="47.26738" lon="5.77826">
        <ele>225.052246</ele>
        <time>2020-10-11T09:59:44.579Z</time>
      </trkpt>
      <trkpt lat="47.26758" lon="5.77978">
        <ele>228.973056</ele>
        <time>2020-10-11T10:00:31.201Z</time>
      </trkpt>
      <trkpt lat="47.26757" lon="5.78028">
        <ele>230.515474</ele>
        <time>2020-10-11T10:00:47.325Z</time>
      </trkpt>
      <trkpt lat="47.26747" lon="5.78075">
        <ele>232.040595</ele>
        <time>2020-10-11T10:01:03.461Z</time>
      </trkpt>
      <trkpt lat="47.26728" lon="5.78141">
        <ele>234.265525</ele>
        <time>2020-10-11T10:01:27.023Z</time>
      </trkpt>
      <trkpt lat="47.26714" lon="5.78236">
        <ele>237.249626</ele>
        <time>2020-10-11T10:01:58.353Z</time>
      </trkpt>
      <trkpt lat="47.26713" lon="5.78244">
        <ele>237.372548</ele>
        <time>2020-10-11T10:02:01.265Z</time>
      </trkpt>
      <trkpt lat="47.26686" lon="5.78443">
        <ele>240.675735</ele>
        <time>2020-10-11T10:02:51.614Z</time>
      </trkpt>
      <trkpt lat="47.26681" lon="5.78482">
        <ele>241.308894</ele>
        <time>2020-10-11T10:02:58.933Z</time>
      </trkpt>
      <trkpt lat="47.26608" lon="5.78825">
        <ele>239.503591</ele>
        <time>2020-10-11T10:03:40.812Z</time>
      </trkpt>
      <trkpt lat="47.26596" lon="5.78901">
        <ele>238.824557</ele>
        <time>2020-10-11T10:03:49.205Z</time>
      </trkpt>
      <trkpt lat="47.26595" lon="5.78922">
        <ele>238.638854</ele>
        <time>2020-10-11T10:03:51.427Z</time>
      </trkpt>
      <trkpt lat="47.26595" lon="5.78944">
        <ele>238.44198</ele>
        <time>2020-10-11T10:03:53.921Z</time>
      </trkpt>
      <trkpt lat="47.26599" lon="5.79">
        <ele>237.954369</ele>
        <time>2020-10-11T10:04:00.150Z</time>
      </trkpt>
      <trkpt lat="47.26618" lon="5.79388">
        <ele>234.998136</ele>
        <time>2020-10-11T10:04:47.229Z</time>
      </trkpt>
      <trkpt lat="47.26611" lon="5.79516">
        <ele>233.496921</ele>
        <time>2020-10-11T10:05:00.294Z</time>
      </trkpt>
      <trkpt lat="47.2659" lon="5.79729">
        <ele>229.631202</ele>
        <time>2020-10-11T10:05:21.201Z</time>
      </trkpt>
      <trkpt lat="47.26585" lon="5.79783">
        <ele>228.638806</ele>
        <time>2020-10-11T10:05:26.609Z</time>
      </trkpt>
      <trkpt lat="47.26582" lon="5.79808">
        <ele>228.382115</ele>
        <time>2020-10-11T10:05:29.334Z</time>
      </trkpt>
      <trkpt lat="47.26578" lon="5.7983">
        <ele>228.324197</ele>
        <time>2020-10-11T10:05:31.777Z</time>
      </trkpt>
      <trkpt lat="47.26574" lon="5.79849">
        <ele>228.274197</ele>
        <time>2020-10-11T10:05:34.075Z</time>
      </trkpt>
      <trkpt lat="47.26556" lon="5.79944">
        <ele>228.028534</ele>
        <time>2020-10-11T10:05:46.405Z</time>
      </trkpt>
      <trkpt lat="47.26548" lon="5.79985">
        <ele>227.922631</ele>
        <time>2020-10-11T10:05:53.073Z</time>
      </trkpt>
      <trkpt lat="47.26523" lon="5.80068">
        <ele>227.949719</ele>
        <time>2020-10-11T10:06:08.859Z</time>
      </trkpt>
      <trkpt lat="47.26512" lon="5.80128">
        <ele>228.480308</ele>
        <time>2020-10-11T10:06:20.932Z</time>
      </trkpt>
      <trkpt lat="47.26492" lon="5.80327">
        <ele>230.098091</ele>
        <time>2020-10-11T10:06:59.998Z</time>
      </trkpt>
      <trkpt lat="47.26494" lon="5.80366">
        <ele>230.250797</ele>
        <time>2020-10-11T10:07:07.010Z</time>
      </trkpt>
      <trkpt lat="47.26501" lon="5.80421">
        <ele>230.46765</ele>
        <time>2020-10-11T10:07:16.699Z</time>
      </trkpt>
      <trkpt lat="47.2659" lon="5.81216">
        <ele>232.239749</ele>
        <time>2020-10-11T10:09:23.416Z</time>
      </trkpt>
      <trkpt lat="47.26594" lon="5.81247">
        <ele>232.093321</ele>
        <time>2020-10-11T10:09:27.262Z</time>
      </trkpt>
      <trkpt lat="47.26642" lon="5.81528">
        <ele>228.346746</ele>
        <time>2020-10-11T10:09:57.659Z</time>
      </trkpt>
      <trkpt lat="47.26649" lon="5.81558">
        <ele>227.779142</ele>
        <time>2020-10-11T10:10:00.664Z</time>
      </trkpt>
      <trkpt lat="47.26665" lon="5.81592">
        <ele>227.046928</ele>
        <time>2020-10-11T10:10:04.595Z</time>
      </trkpt>
      <trkpt lat="47.26921" lon="5.81892">
        <ele>213.213644</ele>
        <time>2020-10-11T10:10:48.556Z</time>
      </trkpt>
      <trkpt lat="47.26929" lon="5.81908">
        <ele>212.659004</ele>
        <time>2020-10-11T10:10:50.469Z</time>
      </trkpt>
      <trkpt lat="47.2693" lon="5.8192">
        <ele>212.312562</ele>
        <time>2020-10-11T10:10:51.568Z</time>
      </trkpt>
      <trkpt lat="47.26916" lon="5.82017">
        <ele>210.683028</ele>
        <time>2020-10-11T10:11:01.313Z</time>
      </trkpt>
      <trkpt lat="47.27073" lon="5.82081">
        <ele>208.375262</ele>
        <time>2020-10-11T10:11:27.995Z</time>
      </trkpt>
      <trkpt lat="47.27089" lon="5.82091">
        <ele>208.426378</ele>
        <time>2020-10-11T10:11:31.647Z</time>
      </trkpt>
      <trkpt lat="47.27155" lon="5.82167">
        <ele>208.659673</ele>
        <time>2020-10-11T10:11:50.584Z</time>
      </trkpt>
      <trkpt lat="47.27168" lon="5.82177">
        <ele>208.700739</ele>
        <time>2020-10-11T10:11:54.376Z</time>
      </trkpt>
      <trkpt lat="47.27171" lon="5.822">
        <ele>208.745495</ele>
        <time>2020-10-11T10:11:58.933Z</time>
      </trkpt>
      <trkpt lat="47.27174" lon="5.8222">
        <ele>208.783832</ele>
        <time>2020-10-11T10:12:02.922Z</time>
      </trkpt>
      <trkpt lat="47.27177" lon="5.82232">
        <ele>209.032732</ele>
        <time>2020-10-11T10:12:05.512Z</time>
      </trkpt>
      <trkpt lat="47.27182" lon="5.82255">
        <ele>209.541484</ele>
        <time>2020-10-11T10:12:10.636Z</time>
      </trkpt>
      <trkpt lat="47.27188" lon="5.82291">
        <ele>210.346902</ele>
        <time>2020-10-11T10:12:18.716Z</time>
      </trkpt>
      <trkpt lat="47.272" lon="5.82352">
        <ele>211.698166</ele>
        <time>2020-10-11T10:12:33.958Z</time>
      </trkpt>
      <trkpt lat="47.27265" lon="5.82682">
        <ele>220.41527</ele>
        <time>2020-10-11T10:14:20.037Z</time>
      </trkpt>
      <trkpt lat="47.27267" lon="5.82692">
        <ele>220.711909</ele>
        <time>2020-10-11T10:14:23.918Z</time>
      </trkpt>
      <trkpt lat="47.27278" lon="5.82744">
        <ele>221.982236</ele>
        <time>2020-10-11T10:14:37.575Z</time>
      </trkpt>
      <trkpt lat="47.2728" lon="5.82755">
        <ele>222.126911</ele>
        <time>2020-10-11T10:14:40.363Z</time>
      </trkpt>
      <trkpt lat="47.27282" lon="5.82767">
        <ele>222.268984</ele>
        <time>2020-10-11T10:14:42.984Z</time>
      </trkpt>
      <trkpt lat="47.27297" lon="5.82847">
        <ele>223.262845</ele>
        <time>2020-10-11T10:15:02.292Z</time>
      </trkpt>
      <trkpt lat="47.27301" lon="5.82877">
        <ele>223.632118</ele>
        <time>2020-10-11T10:15:08.167Z</time>
      </trkpt>
      <trkpt lat="47.27305" lon="5.82927">
        <ele>224.229577</ele>
        <time>2020-10-11T10:15:18.258Z</time>
      </trkpt>
      <trkpt lat="47.27304" lon="5.82939">
        <ele>224.366492</ele>
        <time>2020-10-11T10:15:20.063Z</time>
      </trkpt>
      <trkpt lat="47.27302" lon="5.82945">
        <ele>224.448905</ele>
        <time>2020-10-11T10:15:21.244Z</time>
      </trkpt>
      <trkpt lat="47.27248" lon="5.83101">
        <ele>225.390622</ele>
        <time>2020-10-11T10:15:47.720Z</time>
      </trkpt>
      <trkpt lat="47.27215" lon="5.83192">
        <ele>225.712117</ele>
        <time>2020-10-11T10:16:04.852Z</time>
      </trkpt>
      <trkpt lat="47.27183" lon="5.83265">
        <ele>225.885396</ele>
        <time>2020-10-11T10:16:18.785Z</time>
      </trkpt>
      <trkpt lat="47.27174" lon="5.83288">
        <ele>225.922035</ele>
        <time>2020-10-11T10:16:22.815Z</time>
      </trkpt>
      <trkpt lat="47.2717" lon="5.83295">
        <ele>225.935479</ele>
        <time>2020-10-11T10:16:24.294Z</time>
      </trkpt>
      <trkpt lat="47.27112" lon="5.83401">
        <ele>226.124836</ele>
        <time>2020-10-11T10:16:43.878Z</time>
      </trkpt>
      <trkpt lat="47.271" lon="5.83426">
        <ele>226.167718</ele>
        <time>2020-10-11T10:16:47.928Z</time>
      </trkpt>
      <trkpt lat="47.27085" lon="5.83455">
        <ele>226.218417</ele>
        <time>2020-10-11T10:16:52.752Z</time>
      </trkpt>
      <trkpt lat="47.27017" lon="5.83654">
        <ele>226.529525</ele>
        <time>2020-10-11T10:17:26.427Z</time>
      </trkpt>
      <trkpt lat="47.27006" lon="5.83686">
        <ele>226.588705</ele>
        <time>2020-10-11T10:17:32.189Z</time>
      </trkpt>
      <trkpt lat="47.26965" lon="5.83815">
        <ele>226.845747</ele>
        <time>2020-10-11T10:17:53.944Z</time>
      </trkpt>
      <trkpt lat="47.26955" lon="5.83845">
        <ele>226.906558</ele>
        <time>2020-10-11T10:17:58.879Z</time>
      </trkpt>
      <trkpt lat="47.26945" lon="5.83875">
        <ele>226.965549</ele>
        <time>2020-10-11T10:18:03.258Z</time>
      </trkpt>
      <trkpt lat="47.2689" lon="5.84057">
        <ele>227.586935</ele>
        <time>2020-10-11T10:18:34.491Z</time>
      </trkpt>
      <trkpt lat="47.26881" lon="5.84079">
        <ele>227.671748</ele>
        <time>2020-10-11T10:18:38.709Z</time>
      </trkpt>
      <trkpt lat="47.26873" lon="5.84087">
        <ele>227.721374</ele>
        <time>2020-10-11T10:18:41.464Z</time>
      </trkpt>
      <trkpt lat="47.26863" lon="5.84092">
        <ele>227.772503</ele>
        <time>2020-10-11T10:18:43.797Z</time>
      </trkpt>
      <trkpt lat="47.26851" lon="5.84093">
        <ele>227.835727</ele>
        <time>2020-10-11T10:18:46.965Z</time>
      </trkpt>
      <trkpt lat="47.26848" lon="5.84177">
        <ele>227.776863</ele>
        <time>2020-10-11T10:19:01.050Z</time>
      </trkpt>
      <trkpt lat="47.26845" lon="5.84215">
        <ele>227.683901</ele>
        <time>2020-10-11T10:19:07.640Z</time>
      </trkpt>
      <trkpt lat="47.2684" lon="5.84247">
        <ele>227.60511</ele>
        <time>2020-10-11T10:19:12.814Z</time>
      </trkpt>
      <trkpt lat="47.26761" lon="5.8465">
        <ele>224.504412</ele>
        <time>2020-10-11T10:19:59.805Z</time>
      </trkpt>
      <trkpt lat="47.26717" lon="5.8491">
        <ele>221.966162</ele>
        <time>2020-10-11T10:20:27.319Z</time>
      </trkpt>
      <trkpt lat="47.2669" lon="5.85072">
        <ele>224.526282</ele>
        <time>2020-10-11T10:21:00.683Z</time>
      </trkpt>
      <trkpt lat="47.2667" lon="5.85175">
        <ele>227.238663</ele>
        <time>2020-10-11T10:21:38.592Z</time>
      </trkpt>
      <trkpt lat="47.26649" lon="5.85287">
        <ele>232.888468</ele>
        <time>2020-10-11T10:22:27.768Z</time>
      </trkpt>
      <trkpt lat="47.26602" lon="5.85449">
        <ele>241.249269</ele>
        <time>2020-10-11T10:23:46.570Z</time>
      </trkpt>
      <trkpt lat="47.26491" lon="5.85745">
        <ele>255.589189</ele>
        <time>2020-10-11T10:25:52.418Z</time>
      </trkpt>
      <trkpt lat="47.26465" lon="5.858">
        <ele>258.179528</ele>
        <time>2020-10-11T10:26:15.728Z</time>
      </trkpt>
      <trkpt lat="47.26415" lon="5.85896">
        <ele>262.201654</ele>
        <time>2020-10-11T10:26:57.964Z</time>
      </trkpt>
      <trkpt lat="47.26387" lon="5.85944">
        <ele>263.892938</ele>
        <time>2020-10-11T10:27:18.966Z</time>
      </trkpt>
      <trkpt lat="47.26336" lon="5.86012">
        <ele>266.582938</ele>
        <time>2020-10-11T10:27:47.180Z</time>
      </trkpt>
      <trkpt lat="47.26322" lon="5.86028">
        <ele>267.29135</ele>
        <time>2020-10-11T10:27:54.113Z</time>
      </trkpt>
      <trkpt lat="47.26309" lon="5.86047">
        <ele>267.795193</ele>
        <time>2020-10-11T10:27:59.077Z</time>
      </trkpt>
      <trkpt lat="47.26289" lon="5.8611">
        <ele>267.664581</ele>
        <time>2020-10-11T10:28:12.089Z</time>
      </trkpt>
      <trkpt lat="47.26287" lon="5.86131">
        <ele>267.623335</ele>
        <time>2020-10-11T10:28:15.348Z</time>
      </trkpt>
      <trkpt lat="47.26279" lon="5.86219">
        <ele>267.45684</ele>
        <time>2020-10-11T10:28:26.596Z</time>
      </trkpt>
      <trkpt lat="47.26268" lon="5.86307">
        <ele>267.151336</ele>
        <time>2020-10-11T10:28:35.779Z</time>
      </trkpt>
      <trkpt lat="47.26245" lon="5.86437">
        <ele>265.263903</ele>
        <time>2020-10-11T10:28:49.519Z</time>
      </trkpt>
      <trkpt lat="47.26234" lon="5.86492">
        <ele>264.455597</ele>
        <time>2020-10-11T10:28:55.579Z</time>
      </trkpt>
      <trkpt lat="47.26205" lon="5.86638">
        <ele>262.500553</ele>
        <time>2020-10-11T10:29:11.785Z</time>
      </trkpt>
      <trkpt lat="47.26155" lon="5.86855">
        <ele>259.25179</ele>
        <time>2020-10-11T10:29:36.441Z</time>
      </trkpt>
      <trkpt lat="47.26151" lon="5.86916">
        <ele>257.932065</ele>
        <time>2020-10-11T10:29:42.412Z</time>
      </trkpt>
      <trkpt lat="47.26158" lon="5.86962">
        <ele>256.922903</ele>
        <time>2020-10-11T10:29:46.944Z</time>
      </trkpt>
      <trkpt lat="47.26164" lon="5.87006">
        <ele>255.969245</ele>
        <time>2020-10-11T10:29:51.233Z</time>
      </trkpt>
      <trkpt lat="47.26166" lon="5.8702">
        <ele>255.662266</ele>
        <time>2020-10-11T10:29:52.569Z</time>
      </trkpt>
      <trkpt lat="47.26173" lon="5.87094">
        <ele>253.609682</ele>
        <time>2020-10-11T10:29:59.536Z</time>
      </trkpt>
      <trkpt lat="47.26179" lon="5.87114">
        <ele>252.840203</ele>
        <time>2020-10-11T10:30:01.414Z</time>
      </trkpt>
      <trkpt lat="47.26241" lon="5.87244">
        <ele>247.069183</ele>
        <time>2020-10-11T10:30:15.475Z</time>
      </trkpt>
      <trkpt lat="47.26257" lon="5.87272">
        <ele>245.725944</ele>
        <time>2020-10-11T10:30:18.734Z</time>
      </trkpt>
      <trkpt lat="47.26282" lon="5.8732">
        <ele>243.258462</ele>
        <time>2020-10-11T10:30:23.999Z</time>
      </trkpt>
      <trkpt lat="47.26297" lon="5.87402">
        <ele>239.671854</ele>
        <time>2020-10-11T10:30:31.316Z</time>
      </trkpt>
      <trkpt lat="47.26301" lon="5.87448">
        <ele>237.714696</ele>
        <time>2020-10-11T10:30:35.283Z</time>
      </trkpt>
      <trkpt lat="47.26302" lon="5.8751">
        <ele>235.065117</ele>
        <time>2020-10-11T10:30:40.700Z</time>
      </trkpt>
      <trkpt lat="47.26299" lon="5.8757">
        <ele>232.777772</ele>
        <time>2020-10-11T10:30:45.973Z</time>
      </trkpt>
      <trkpt lat="47.26284" lon="5.87689">
        <ele>228.618874</ele>
        <time>2020-10-11T10:30:56.630Z</time>
      </trkpt>
      <trkpt lat="47.26241" lon="5.87899">
        <ele>223.408419</ele>
        <time>2020-10-11T10:31:17.043Z</time>
      </trkpt>
      <trkpt lat="47.26238" lon="5.87947">
        <ele>222.803992</ele>
        <time>2020-10-11T10:31:22.112Z</time>
      </trkpt>
      <trkpt lat="47.26235" lon="5.88003">
        <ele>222.091991</ele>
        <time>2020-10-11T10:31:29.093Z</time>
      </trkpt>
      <trkpt lat="47.26233" lon="5.88041">
        <ele>221.612201</ele>
        <time>2020-10-11T10:31:34.687Z</time>
      </trkpt>
      <trkpt lat="47.26228" lon="5.88109">
        <ele>222.22418</ele>
        <time>2020-10-11T10:31:47.094Z</time>
      </trkpt>
      <trkpt lat="47.26218" lon="5.88162">
        <ele>223.045208</ele>
        <time>2020-10-11T10:31:59.351Z</time>
      </trkpt>
      <trkpt lat="47.26203" lon="5.88209">
        <ele>223.835827</ele>
        <time>2020-10-11T10:32:12.680Z</time>
      </trkpt>
      <trkpt lat="47.26183" lon="5.88259">
        <ele>224.699554</ele>
        <time>2020-10-11T10:32:28.479Z</time>
      </trkpt>
      <trkpt lat="47.26116" lon="5.8842">
        <ele>226.706844</ele>
        <time>2020-10-11T10:33:12.900Z</time>
      </trkpt>
      <trkpt lat="47.26099" lon="5.88481">
        <ele>227.318685</ele>
        <time>2020-10-11T10:33:23.985Z</time>
      </trkpt>
      <trkpt lat="47.26093" lon="5.88538">
        <ele>227.838669</ele>
        <time>2020-10-11T10:33:32.198Z</time>
      </trkpt>
      <trkpt lat="47.26095" lon="5.88936">
        <ele>225.493926</ele>
        <time>2020-10-11T10:34:16.648Z</time>
      </trkpt>
      <trkpt lat="47.26091" lon="5.89089">
        <ele>225.677872</ele>
        <time>2020-10-11T10:34:41.246Z</time>
      </trkpt>
      <trkpt lat="47.2609" lon="5.89102">
        <ele>225.948036</ele>
        <time>2020-10-11T10:34:43.970Z</time>
      </trkpt>
      <trkpt lat="47.26087" lon="5.89155">
        <ele>226.990778</ele>
        <time>2020-10-11T10:34:55.450Z</time>
      </trkpt>
      <trkpt lat="47.26043" lon="5.89666">
        <ele>238.565377</ele>
        <time>2020-10-11T10:37:23.036Z</time>
      </trkpt>
      <trkpt lat="47.26008" lon="5.8997">
        <ele>243.185104</ele>
        <time>2020-10-11T10:38:29.560Z</time>
      </trkpt>
      <trkpt lat="47.26003" lon="5.89985">
        <ele>243.380434</ele>
        <time>2020-10-11T10:38:32.962Z</time>
      </trkpt>
      <trkpt lat="47.25996" lon="5.89983">
        <ele>243.487576</ele>
        <time>2020-10-11T10:38:34.600Z</time>
      </trkpt>
      <trkpt lat="47.25991" lon="5.89988">
        <ele>243.595255</ele>
        <time>2020-10-11T10:38:36.223Z</time>
      </trkpt>
      <trkpt lat="47.25989" lon="5.89993">
        <ele>243.665961</ele>
        <time>2020-10-11T10:38:37.405Z</time>
      </trkpt>
      <trkpt lat="47.25989" lon="5.9">
        <ele>243.738159</ele>
        <time>2020-10-11T10:38:38.623Z</time>
      </trkpt>
      <trkpt lat="47.25992" lon="5.90007">
        <ele>243.840563</ele>
        <time>2020-10-11T10:38:40.576Z</time>
      </trkpt>
      <trkpt lat="47.25997" lon="5.90022">
        <ele>244.028946</ele>
        <time>2020-10-11T10:38:43.707Z</time>
      </trkpt>
      <trkpt lat="47.26003" lon="5.90046">
        <ele>244.327443</ele>
        <time>2020-10-11T10:38:48.393Z</time>
      </trkpt>
      <trkpt lat="47.26003" lon="5.90063">
        <ele>244.524507</ele>
        <time>2020-10-11T10:38:51.996Z</time>
      </trkpt>
      <trkpt lat="47.26009" lon="5.90274">
        <ele>247.716633</ele>
        <time>2020-10-11T10:39:36.470Z</time>
      </trkpt>
      <trkpt lat="47.26003" lon="5.90332">
        <ele>248.644587</ele>
        <time>2020-10-11T10:39:51.693Z</time>
      </trkpt>
      <trkpt lat="47.25989" lon="5.90401">
        <ele>249.907811</ele>
        <time>2020-10-11T10:40:12.197Z</time>
      </trkpt>
      <trkpt lat="47.25985" lon="5.90423">
        <ele>250.331551</ele>
        <time>2020-10-11T10:40:19.023Z</time>
      </trkpt>
      <trkpt lat="47.25926" lon="5.907">
        <ele>253.006104</ele>
        <time>2020-10-11T10:41:26.908Z</time>
      </trkpt>
      <trkpt lat="47.25922" lon="5.90717">
        <ele>252.818898</ele>
        <time>2020-10-11T10:41:28.856Z</time>
      </trkpt>
      <trkpt lat="47.25917" lon="5.90739">
        <ele>252.567889</ele>
        <time>2020-10-11T10:41:31.482Z</time>
      </trkpt>
      <trkpt lat="47.25902" lon="5.90817">
        <ele>251.721852</ele>
        <time>2020-10-11T10:41:39.277Z</time>
      </trkpt>
      <trkpt lat="47.2588" lon="5.90941">
        <ele>248.23165</ele>
        <time>2020-10-11T10:41:50.534Z</time>
      </trkpt>
      <trkpt lat="47.25862" lon="5.91065">
        <ele>243.460808</ele>
        <time>2020-10-11T10:42:01.598Z</time>
      </trkpt>
      <trkpt lat="47.25842" lon="5.91203">
        <ele>239.486798</ele>
        <time>2020-10-11T10:42:14.267Z</time>
      </trkpt>
      <trkpt lat="47.25816" lon="5.9139">
        <ele>235.642655</ele>
        <time>2020-10-11T10:42:33.198Z</time>
      </trkpt>
      <trkpt lat="47.25808" lon="5.91444">
        <ele>236.151427</ele>
        <time>2020-10-11T10:42:41.276Z</time>
      </trkpt>
      <trkpt lat="47.25798" lon="5.91518">
        <ele>236.836498</ele>
        <time>2020-10-11T10:42:56.403Z</time>
      </trkpt>
      <trkpt lat="47.25782" lon="5.91617">
        <ele>237.766639</ele>
        <time>2020-10-11T10:43:21.237Z</time>
      </trkpt>
      <trkpt lat="47.25763" lon="5.91747">
        <ele>238.905813</ele>
        <time>2020-10-11T10:43:54.786Z</time>
      </trkpt>
      <trkpt lat="47.25749" lon="5.91842">
        <ele>239.717595</ele>
        <time>2020-10-11T10:44:12.886Z</time>
      </trkpt>
      <trkpt lat="47.25744" lon="5.91872">
        <ele>239.973344</ele>
        <time>2020-10-11T10:44:16.472Z</time>
      </trkpt>
      <trkpt lat="47.25717" lon="5.91952">
        <ele>239.885597</ele>
        <time>2020-10-11T10:44:26.612Z</time>
      </trkpt>
      <trkpt lat="47.25683" lon="5.92012">
        <ele>239.460477</ele>
        <time>2020-10-11T10:44:34.969Z</time>
      </trkpt>
      <trkpt lat="47.25656" lon="5.92059">
        <ele>239.122247</ele>
        <time>2020-10-11T10:44:41.905Z</time>
      </trkpt>
      <trkpt lat="47.25632" lon="5.92117">
        <ele>238.79201</ele>
        <time>2020-10-11T10:44:50.868Z</time>
      </trkpt>
      <trkpt lat="47.25568" lon="5.92381">
        <ele>240.956258</ele>
        <time>2020-10-11T10:45:43.702Z</time>
      </trkpt>
      <trkpt lat="47.25545" lon="5.92572">
        <ele>243.746495</ele>
        <time>2020-10-11T10:46:26.209Z</time>
      </trkpt>
      <trkpt lat="47.25542" lon="5.92606">
        <ele>244.239475</ele>
        <time>2020-10-11T10:46:34.064Z</time>
      </trkpt>
      <trkpt lat="47.25534" lon="5.92607">
        <ele>244.408065</ele>
        <time>2020-10-11T10:46:36.913Z</time>
      </trkpt>
      <trkpt lat="47.25524" lon="5.92624">
        <ele>244.833848</ele>
        <time>2020-10-11T10:46:42.850Z</time>
      </trkpt>
      <trkpt lat="47.25528" lon="5.92645">
        <ele>245.304116</ele>
        <time>2020-10-11T10:46:47.610Z</time>
      </trkpt>
      <trkpt lat="47.25535" lon="5.92651">
        <ele>245.549221</ele>
        <time>2020-10-11T10:46:50.767Z</time>
      </trkpt>
      <trkpt lat="47.25534" lon="5.92669">
        <ele>245.91653</ele>
        <time>2020-10-11T10:46:56.451Z</time>
      </trkpt>
      <trkpt lat="47.25531" lon="5.92771">
        <ele>248.055795</ele>
        <time>2020-10-11T10:47:24.443Z</time>
      </trkpt>
      <trkpt lat="47.2554" lon="5.92856">
        <ele>249.86295</ele>
        <time>2020-10-11T10:47:46.897Z</time>
      </trkpt>
      <trkpt lat="47.25545" lon="5.92897">
        <ele>250.253706</ele>
        <time>2020-10-11T10:47:58.335Z</time>
      </trkpt>
      <trkpt lat="47.25564" lon="5.93038">
        <ele>251.099015</ele>
        <time>2020-10-11T10:48:25.927Z</time>
      </trkpt>
      <trkpt lat="47.25571" lon="5.93078">
        <ele>251.343424</ele>
        <time>2020-10-11T10:48:31.975Z</time>
      </trkpt>
      <trkpt lat="47.25602" lon="5.93245">
        <ele>250.325443</ele>
        <time>2020-10-11T10:48:50.527Z</time>
      </trkpt>
      <trkpt lat="47.25605" lon="5.93257">
        <ele>250.195908</ele>
        <time>2020-10-11T10:48:51.887Z</time>
      </trkpt>
      <trkpt lat="47.25607" lon="5.93269">
        <ele>250.067771</ele>
        <time>2020-10-11T10:48:53.206Z</time>
      </trkpt>
      <trkpt lat="47.25617" lon="5.93316">
        <ele>249.565452</ele>
        <time>2020-10-11T10:48:58.311Z</time>
      </trkpt>
      <trkpt lat="47.25623" lon="5.9334">
        <ele>249.299224</ele>
        <time>2020-10-11T10:49:01.006Z</time>
      </trkpt>
      <trkpt lat="47.25632" lon="5.93373">
        <ele>248.934402</ele>
        <time>2020-10-11T10:49:04.865Z</time>
      </trkpt>
      <trkpt lat="47.25634" lon="5.93386">
        <ele>248.926002</ele>
        <time>2020-10-11T10:49:06.370Z</time>
      </trkpt>
      <trkpt lat="47.25634" lon="5.93394">
        <ele>248.953644</ele>
        <time>2020-10-11T10:49:07.196Z</time>
      </trkpt>
      <trkpt lat="47.25633" lon="5.93404">
        <ele>248.990704</ele>
        <time>2020-10-11T10:49:08.546Z</time>
      </trkpt>
      <trkpt lat="47.25542" lon="5.93534">
        <ele>249.624132</ele>
        <time>2020-10-11T10:49:36.176Z</time>
      </trkpt>
      <trkpt lat="47.25514" lon="5.9357">
        <ele>249.928994</ele>
        <time>2020-10-11T10:49:48.981Z</time>
      </trkpt>
      <trkpt lat="47.25519" lon="5.93584">
        <ele>250.35382</ele>
        <time>2020-10-11T10:49:53.911Z</time>
      </trkpt>
      <trkpt lat="47.25512" lon="5.93651">
        <ele>252.184216</ele>
        <time>2020-10-11T10:50:15.522Z</time>
      </trkpt>
      <trkpt lat="47.2551" lon="5.9367">
        <ele>252.694262</ele>
        <time>2020-10-11T10:50:22.126Z</time>
      </trkpt>
      <trkpt lat="47.25505" lon="5.93726">
        <ele>254.21315</ele>
        <time>2020-10-11T10:50:42.036Z</time>
      </trkpt>
      <trkpt lat="47.25504" lon="5.93751">
        <ele>254.913497</ele>
        <time>2020-10-11T10:50:51.566Z</time>
      </trkpt>
      <trkpt lat="47.25499" lon="5.9389">
        <ele>259.563899</ele>
        <time>2020-10-11T10:51:44.757Z</time>
      </trkpt>
      <trkpt lat="47.25495" lon="5.94028">
        <ele>265.270829</ele>
        <time>2020-10-11T10:52:43.913Z</time>
      </trkpt>
      <trkpt lat="47.255" lon="5.94083">
        <ele>267.56275</ele>
        <time>2020-10-11T10:53:09.569Z</time>
      </trkpt>
      <trkpt lat="47.25511" lon="5.94149">
        <ele>270.638041</ele>
        <time>2020-10-11T10:53:38.980Z</time>
      </trkpt>
      <trkpt lat="47.25514" lon="5.94149">
        <ele>270.789505</ele>
        <time>2020-10-11T10:53:42.342Z</time>
      </trkpt>
      <trkpt lat="47.25513" lon="5.94153">
        <ele>270.962851</ele>
        <time>2020-10-11T10:53:46.338Z</time>
      </trkpt>
      <trkpt lat="47.25525" lon="5.942">
        <ele>273.232549</ele>
        <time>2020-10-11T10:54:05.739Z</time>
      </trkpt>
      <trkpt lat="47.25543" lon="5.94243">
        <ele>275.599377</ele>
        <time>2020-10-11T10:54:28.522Z</time>
      </trkpt>
      <trkpt lat="47.25542" lon="5.94247">
        <ele>275.794018</ele>
        <time>2020-10-11T10:54:33.104Z</time>
      </trkpt>
      <trkpt lat="47.25569" lon="5.94277">
        <ele>278.097064</ele>
        <time>2020-10-11T10:54:50.636Z</time>
      </trkpt>
      <trkpt lat="47.25586" lon="5.94308">
        <ele>279.903368</ele>
        <time>2020-10-11T10:55:05.043Z</time>
      </trkpt>
      <trkpt lat="47.25599" lon="5.9437">
        <ele>282.487659</ele>
        <time>2020-10-11T10:55:29.516Z</time>
      </trkpt>
      <trkpt lat="47.25601" lon="5.94385">
        <ele>283.078028</ele>
        <time>2020-10-11T10:55:37.711Z</time>
      </trkpt>
      <trkpt lat="47.256" lon="5.94399">
        <ele>283.623036</ele>
        <time>2020-10-11T10:55:41.737Z</time>
      </trkpt>
      <trkpt lat="47.25588" lon="5.94451">
        <ele>285.761175</ele>
        <time>2020-10-11T10:56:02.163Z</time>
      </trkpt>
      <trkpt lat="47.25552" lon="5.94537">
        <ele>289.750083</ele>
        <time>2020-10-11T10:56:36.893Z</time>
      </trkpt>
      <trkpt lat="47.25545" lon="5.94554">
        <ele>290.50063</ele>
        <time>2020-10-11T10:56:42.590Z</time>
      </trkpt>
      <trkpt lat="47.25539" lon="5.94572">
        <ele>291.027479</ele>
        <time>2020-10-11T10:56:51.043Z</time>
      </trkpt>
      <trkpt lat="47.25525" lon="5.94647">
        <ele>293.113537</ele>
        <time>2020-10-11T10:57:14.565Z</time>
      </trkpt>
      <trkpt lat="47.25521" lon="5.94751">
        <ele>295.938898</ele>
        <time>2020-10-11T10:57:46.475Z</time>
      </trkpt>
      <trkpt lat="47.25508" lon="5.94799">
        <ele>297.322105</ele>
        <time>2020-10-11T10:58:01.031Z</time>
      </trkpt>
      <trkpt lat="47.25485" lon="5.94835">
        <ele>297.649923</ele>
        <time>2020-10-11T10:58:11.008Z</time>
      </trkpt>
      <trkpt lat="47.25402" lon="5.94911">
        <ele>297.933632</ele>
        <time>2020-10-11T10:58:33.407Z</time>
      </trkpt>
      <trkpt lat="47.25378" lon="5.94936">
        <ele>298.016656</ele>
        <time>2020-10-11T10:58:38.242Z</time>
      </trkpt>
      <trkpt lat="47.25367" lon="5.94958">
        <ele>298.072166</ele>
        <time>2020-10-11T10:58:41.367Z</time>
      </trkpt>
      <trkpt lat="47.25355" lon="5.94981">
        <ele>297.875165</ele>
        <time>2020-10-11T10:58:44.543Z</time>
      </trkpt>
      <trkpt lat="47.25348" lon="5.95">
        <ele>297.626033</ele>
        <time>2020-10-11T10:58:46.817Z</time>
      </trkpt>
      <trkpt lat="47.25342" lon="5.95019">
        <ele>297.388122</ele>
        <time>2020-10-11T10:58:48.974Z</time>
      </trkpt>
      <trkpt lat="47.25339" lon="5.95032">
        <ele>297.232186</ele>
        <time>2020-10-11T10:58:50.376Z</time>
      </trkpt>
      <trkpt lat="47.25335" lon="5.95087">
        <ele>296.590043</ele>
        <time>2020-10-11T10:58:56.161Z</time>
      </trkpt>
      <trkpt lat="47.25337" lon="5.9511">
        <ele>296.321701</ele>
        <time>2020-10-11T10:58:58.519Z</time>
      </trkpt>
      <trkpt lat="47.25343" lon="5.95166">
        <ele>295.660187</ele>
        <time>2020-10-11T10:59:04.694Z</time>
      </trkpt>
      <trkpt lat="47.25347" lon="5.952">
        <ele>295.265728</ele>
        <time>2020-10-11T10:59:08.460Z</time>
      </trkpt>
      <trkpt lat="47.2535" lon="5.95223">
        <ele>294.9979</ele>
        <time>2020-10-11T10:59:11.080Z</time>
      </trkpt>
      <trkpt lat="47.25351" lon="5.95231">
        <ele>294.907488</ele>
        <time>2020-10-11T10:59:12.018Z</time>
      </trkpt>
      <trkpt lat="47.25354" lon="5.95285">
        <ele>294.294513</ele>
        <time>2020-10-11T10:59:18.011Z</time>
      </trkpt>
      <trkpt lat="47.25354" lon="5.95306">
        <ele>294.060282</ele>
        <time>2020-10-11T10:59:20.195Z</time>
      </trkpt>
      <trkpt lat="47.25354" lon="5.95332">
        <ele>293.769276</ele>
        <time>2020-10-11T10:59:22.932Z</time>
      </trkpt>
      <trkpt lat="47.25353" lon="5.95359">
        <ele>293.476934</ele>
        <time>2020-10-11T10:59:25.750Z</time>
      </trkpt>
      <trkpt lat="47.25351" lon="5.95388">
        <ele>293.142386</ele>
        <time>2020-10-11T10:59:28.995Z</time>
      </trkpt>
      <trkpt lat="47.25345" lon="5.95417">
        <ele>292.814423</ele>
        <time>2020-10-11T10:59:32.166Z</time>
      </trkpt>
      <trkpt lat="47.25332" lon="5.95498">
        <ele>291.923707</ele>
        <time>2020-10-11T10:59:41.369Z</time>
      </trkpt>
      <trkpt lat="47.25324" lon="5.95543">
        <ele>291.527267</ele>
        <time>2020-10-11T10:59:46.356Z</time>
      </trkpt>
      <trkpt lat="47.25317" lon="5.95593">
        <ele>291.082436</ele>
        <time>2020-10-11T10:59:51.842Z</time>
      </trkpt>
      <trkpt lat="47.2529" lon="5.95804">
        <ele>289.341444</ele>
        <time>2020-10-11T11:00:16.774Z</time>
      </trkpt>
      <trkpt lat="47.25285" lon="5.95826">
        <ele>289.179003</ele>
        <time>2020-10-11T11:00:20.230Z</time>
      </trkpt>
      <trkpt lat="47.25263" lon="5.95917">
        <ele>288.505084</ele>
        <time>2020-10-11T11:00:31.433Z</time>
      </trkpt>
      <trkpt lat="47.25257" lon="5.95924">
        <ele>288.429502</ele>
        <time>2020-10-11T11:00:33.153Z</time>
      </trkpt>
      <trkpt lat="47.25253" lon="5.95926">
        <ele>288.381878</ele>
        <time>2020-10-11T11:00:33.959Z</time>
      </trkpt>
      <trkpt lat="47.25249" lon="5.95928">
        <ele>288.334739</ele>
        <time>2020-10-11T11:00:34.738Z</time>
      </trkpt>
      <trkpt lat="47.25245" lon="5.95932">
        <ele>288.287173</ele>
        <time>2020-10-11T11:00:35.424Z</time>
      </trkpt>
      <trkpt lat="47.2524" lon="5.95937">
        <ele>288.227307</ele>
        <time>2020-10-11T11:00:36.255Z</time>
      </trkpt>
      <trkpt lat="47.25229" lon="5.95957">
        <ele>288.050105</ele>
        <time>2020-10-11T11:00:39.636Z</time>
      </trkpt>
      <trkpt lat="47.25227" lon="5.95964">
        <ele>287.991068</ele>
        <time>2020-10-11T11:00:40.626Z</time>
      </trkpt>
      <trkpt lat="47.25226" lon="5.95972">
        <ele>287.934931</ele>
        <time>2020-10-11T11:00:41.469Z</time>
      </trkpt>
      <trkpt lat="47.25225" lon="5.9598">
        <ele>287.817239</ele>
        <time>2020-10-11T11:00:42.170Z</time>
      </trkpt>
      <trkpt lat="47.25225" lon="5.95987">
        <ele>287.701615</ele>
        <time>2020-10-11T11:00:43.010Z</time>
      </trkpt>
      <trkpt lat="47.25226" lon="5.95995">
        <ele>287.584926</ele>
        <time>2020-10-11T11:00:43.953Z</time>
      </trkpt>
      <trkpt lat="47.25227" lon="5.96002">
        <ele>287.469484</ele>
        <time>2020-10-11T11:00:44.968Z</time>
      </trkpt>
      <trkpt lat="47.25229" lon="5.96009">
        <ele>287.35384</ele>
        <time>2020-10-11T11:00:45.957Z</time>
      </trkpt>
      <trkpt lat="47.25232" lon="5.96015">
        <ele>287.23638</ele>
        <time>2020-10-11T11:00:46.808Z</time>
      </trkpt>
      <trkpt lat="47.25235" lon="5.96021">
        <ele>287.120156</ele>
        <time>2020-10-11T11:00:47.622Z</time>
      </trkpt>
      <trkpt lat="47.25235" lon="5.96029">
        <ele>286.999909</ele>
        <time>2020-10-11T11:00:48.339Z</time>
      </trkpt>
      <trkpt lat="47.25228" lon="5.96111">
        <ele>285.729383</ele>
        <time>2020-10-11T11:00:56.891Z</time>
      </trkpt>
      <trkpt lat="47.2523" lon="5.96227">
        <ele>283.942537</ele>
        <time>2020-10-11T11:01:08.287Z</time>
      </trkpt>
      <trkpt lat="47.25226" lon="5.96304">
        <ele>282.776189</ele>
        <time>2020-10-11T11:01:16.021Z</time>
      </trkpt>
      <trkpt lat="47.25221" lon="5.96337">
        <ele>282.287189</ele>
        <time>2020-10-11T11:01:19.317Z</time>
      </trkpt>
      <trkpt lat="47.25221" lon="5.96354">
        <ele>282.023369</ele>
        <time>2020-10-11T11:01:21.153Z</time>
      </trkpt>
      <trkpt lat="47.25224" lon="5.96362">
        <ele>281.901128</ele>
        <time>2020-10-11T11:01:21.996Z</time>
      </trkpt>
      <trkpt lat="47.25233" lon="5.96367">
        <ele>281.68457</ele>
        <time>2020-10-11T11:01:23.551Z</time>
      </trkpt>
      <trkpt lat="47.25271" lon="5.96364">
        <ele>280.840084</ele>
        <time>2020-10-11T11:01:29.355Z</time>
      </trkpt>
      <trkpt lat="47.25274" lon="5.96381">
        <ele>280.58307</ele>
        <time>2020-10-11T11:01:31.004Z</time>
      </trkpt>
      <trkpt lat="47.25292" lon="5.96537">
        <ele>280.166722</ele>
        <time>2020-10-11T11:01:49.247Z</time>
      </trkpt>
      <trkpt lat="47.253" lon="5.96631">
        <ele>280.384616</ele>
        <time>2020-10-11T11:02:05.594Z</time>
      </trkpt>
      <trkpt lat="47.25305" lon="5.96735">
        <ele>282.095826</ele>
        <time>2020-10-11T11:02:34.245Z</time>
      </trkpt>
      <trkpt lat="47.25304" lon="5.96758">
        <ele>282.86885</ele>
        <time>2020-10-11T11:02:41.298Z</time>
      </trkpt>
      <trkpt lat="47.25299" lon="5.96781">
        <ele>283.669148</ele>
        <time>2020-10-11T11:02:50.206Z</time>
      </trkpt>
      <trkpt lat="47.25276" lon="5.96869">
        <ele>286.838135</ele>
        <time>2020-10-11T11:03:27.947Z</time>
      </trkpt>
      <trkpt lat="47.25247" lon="5.96971">
        <ele>290.909788</ele>
        <time>2020-10-11T11:04:19.198Z</time>
      </trkpt>
      <trkpt lat="47.25215" lon="5.97081">
        <ele>296.250511</ele>
        <time>2020-10-11T11:05:13.166Z</time>
      </trkpt>
      <trkpt lat="47.25211" lon="5.97093">
        <ele>296.871734</ele>
        <time>2020-10-11T11:05:20.697Z</time>
      </trkpt>
      <trkpt lat="47.25194" lon="5.97152">
        <ele>299.751007</ele>
        <time>2020-10-11T11:05:49.299Z</time>
      </trkpt>
      <trkpt lat="47.25124" lon="5.97378">
        <ele>308.026071</ele>
        <time>2020-10-11T11:07:25.171Z</time>
      </trkpt>
      <trkpt lat="47.25108" lon="5.97429">
        <ele>309.657963</ele>
        <time>2020-10-11T11:07:42.653Z</time>
      </trkpt>
      <trkpt lat="47.25085" lon="5.97489">
        <ele>310.339444</ele>
        <time>2020-10-11T11:08:02.530Z</time>
      </trkpt>
      <trkpt lat="47.2508" lon="5.97501">
        <ele>310.472935</ele>
        <time>2020-10-11T11:08:06.084Z</time>
      </trkpt>
      <trkpt lat="47.25075" lon="5.97511">
        <ele>310.599139</ele>
        <time>2020-10-11T11:08:09.326Z</time>
      </trkpt>
      <trkpt lat="47.25045" lon="5.97563">
        <ele>311.256721</ele>
        <time>2020-10-11T11:08:25.614Z</time>
      </trkpt>
      <trkpt lat="47.25039" lon="5.9758">
        <ele>311.443638</ele>
        <time>2020-10-11T11:08:29.867Z</time>
      </trkpt>
      <trkpt lat="47.25026" lon="5.97616">
        <ele>311.849434</ele>
        <time>2020-10-11T11:08:38.775Z</time>
      </trkpt>
      <trkpt lat="47.25016" lon="5.97646">
        <ele>312.1733</ele>
        <time>2020-10-11T11:08:45.248Z</time>
      </trkpt>
      <trkpt lat="47.25" lon="5.97695">
        <ele>311.467768</ele>
        <time>2020-10-11T11:08:55.204Z</time>
      </trkpt>
      <trkpt lat="47.24985" lon="5.97744">
        <ele>310.733113</ele>
        <time>2020-10-11T11:09:04.393Z</time>
      </trkpt>
      <trkpt lat="47.24975" lon="5.97792">
        <ele>310.041367</ele>
        <time>2020-10-11T11:09:12.843Z</time>
      </trkpt>
      <trkpt lat="47.24954" lon="5.97995">
        <ele>304.521685</ele>
        <time>2020-10-11T11:09:40.064Z</time>
      </trkpt>
      <trkpt lat="47.24954" lon="5.98027">
        <ele>303.214884</ele>
        <time>2020-10-11T11:09:44.099Z</time>
      </trkpt>
      <trkpt lat="47.24955" lon="5.98056">
        <ele>302.002669</ele>
        <time>2020-10-11T11:09:47.592Z</time>
      </trkpt>
      <trkpt lat="47.24966" lon="5.98131">
        <ele>298.797419</ele>
        <time>2020-10-11T11:09:56.918Z</time>
      </trkpt>
      <trkpt lat="47.24965" lon="5.98196">
        <ele>296.401275</ele>
        <time>2020-10-11T11:10:04.630Z</time>
      </trkpt>
      <trkpt lat="47.24943" lon="5.98295">
        <ele>293.007838</ele>
        <time>2020-10-11T11:10:17.405Z</time>
      </trkpt>
      <trkpt lat="47.24942" lon="5.98306">
        <ele>292.637844</ele>
        <time>2020-10-11T11:10:18.741Z</time>
      </trkpt>
      <trkpt lat="47.24936" lon="5.98305">
        <ele>292.3827</ele>
        <time>2020-10-11T11:10:19.923Z</time>
      </trkpt>
      <trkpt lat="47.24931" lon="5.98306">
        <ele>292.122732</ele>
        <time>2020-10-11T11:10:21.133Z</time>
      </trkpt>
      <trkpt lat="47.24926" lon="5.98309">
        <ele>291.869003</ele>
        <time>2020-10-11T11:10:22.279Z</time>
      </trkpt>
      <trkpt lat="47.24923" lon="5.98314">
        <ele>291.636418</ele>
        <time>2020-10-11T11:10:23.371Z</time>
      </trkpt>
      <trkpt lat="47.2492" lon="5.9832">
        <ele>291.404346</ele>
        <time>2020-10-11T11:10:24.484Z</time>
      </trkpt>
      <trkpt lat="47.24919" lon="5.98327">
        <ele>291.170718</ele>
        <time>2020-10-11T11:10:25.407Z</time>
      </trkpt>
      <trkpt lat="47.24919" lon="5.98335">
        <ele>290.916373</ele>
        <time>2020-10-11T11:10:26.353Z</time>
      </trkpt>
      <trkpt lat="47.24925" lon="5.98348">
        <ele>290.413159</ele>
        <time>2020-10-11T11:10:29.166Z</time>
      </trkpt>
      <trkpt lat="47.2493" lon="5.98351">
        <ele>290.160537</ele>
        <time>2020-10-11T11:10:30.469Z</time>
      </trkpt>
      <trkpt lat="47.24924" lon="5.9837">
        <ele>289.513607</ele>
        <time>2020-10-11T11:10:33.865Z</time>
      </trkpt>
      <trkpt lat="47.24914" lon="5.98407">
        <ele>289.443519</ele>
        <time>2020-10-11T11:10:40.901Z</time>
      </trkpt>
      <trkpt lat="47.24909" lon="5.98412">
        <ele>289.663805</ele>
        <time>2020-10-11T11:10:43.088Z</time>
      </trkpt>
      <trkpt lat="47.24899" lon="5.98424">
        <ele>290.139039</ele>
        <time>2020-10-11T11:10:45.932Z</time>
      </trkpt>
      <trkpt lat="47.24894" lon="5.98427">
        <ele>290.332578</ele>
        <time>2020-10-11T11:10:47.990Z</time>
      </trkpt>
      <trkpt lat="47.2489" lon="5.98432">
        <ele>290.530595</ele>
        <time>2020-10-11T11:10:49.708Z</time>
      </trkpt>
      <trkpt lat="47.24888" lon="5.98439">
        <ele>290.727665</ele>
        <time>2020-10-11T11:10:51.680Z</time>
      </trkpt>
      <trkpt lat="47.24887" lon="5.98445">
        <ele>290.88003</ele>
        <time>2020-10-11T11:10:53.308Z</time>
      </trkpt>
      <trkpt lat="47.24887" lon="5.98451">
        <ele>291.031391</ele>
        <time>2020-10-11T11:10:54.738Z</time>
      </trkpt>
      <trkpt lat="47.24888" lon="5.98456">
        <ele>291.181759</ele>
        <time>2020-10-11T11:10:55.372Z</time>
      </trkpt>
      <trkpt lat="47.24886" lon="5.98474">
        <ele>291.633276</ele>
        <time>2020-10-11T11:10:59.121Z</time>
      </trkpt>
      <trkpt lat="47.24887" lon="5.98492">
        <ele>292.072462</ele>
        <time>2020-10-11T11:11:04.498Z</time>
      </trkpt>
      <trkpt lat="47.24889" lon="5.98502">
        <ele>292.350219</ele>
        <time>2020-10-11T11:11:08.243Z</time>
      </trkpt>
      <trkpt lat="47.24885" lon="5.98517">
        <ele>292.741348</ele>
        <time>2020-10-11T11:11:13.539Z</time>
      </trkpt>
      <trkpt lat="47.24879" lon="5.98538">
        <ele>293.335466</ele>
        <time>2020-10-11T11:11:21.812Z</time>
      </trkpt>
      <trkpt lat="47.24856" lon="5.98618">
        <ele>295.5136</ele>
        <time>2020-10-11T11:11:56.984Z</time>
      </trkpt>
      <trkpt lat="47.24844" lon="5.98669">
        <ele>296.930504</ele>
        <time>2020-10-11T11:12:19.546Z</time>
      </trkpt>
      <trkpt lat="47.24842" lon="5.98679">
        <ele>297.197764</ele>
        <time>2020-10-11T11:12:23.705Z</time>
      </trkpt>
      <trkpt lat="47.24837" lon="5.98701">
        <ele>297.813521</ele>
        <time>2020-10-11T11:12:32.678Z</time>
      </trkpt>
      <trkpt lat="47.24831" lon="5.98725">
        <ele>298.482926</ele>
        <time>2020-10-11T11:12:41.829Z</time>
      </trkpt>
      <trkpt lat="47.2483" lon="5.98732">
        <ele>298.689162</ele>
        <time>2020-10-11T11:12:44.931Z</time>
      </trkpt>
      <trkpt lat="47.24826" lon="5.98747">
        <ele>299.112615</ele>
        <time>2020-10-11T11:12:49.965Z</time>
      </trkpt>
      <trkpt lat="47.24825" lon="5.98754">
        <ele>299.300047</ele>
        <time>2020-10-11T11:12:52.256Z</time>
      </trkpt>
      <trkpt lat="47.24818" lon="5.98789">
        <ele>300.248437</ele>
        <time>2020-10-11T11:13:02.322Z</time>
      </trkpt>
      <trkpt lat="47.24809" lon="5.98823">
        <ele>301.220575</ele>
        <time>2020-10-11T11:13:10.673Z</time>
      </trkpt>
      <trkpt lat="47.24807" lon="5.98832">
        <ele>301.471603</ele>
        <time>2020-10-11T11:13:12.846Z</time>
      </trkpt>
      <trkpt lat="47.24796" lon="5.98881">
        <ele>302.307266</ele>
        <time>2020-10-11T11:13:20.425Z</time>
      </trkpt>
      <trkpt lat="47.24782" lon="5.9894">
        <ele>300.613903</ele>
        <time>2020-10-11T11:13:26.979Z</time>
      </trkpt>
      <trkpt lat="47.24777" lon="5.98964">
        <ele>299.946966</ele>
        <time>2020-10-11T11:13:29.363Z</time>
      </trkpt>
      <trkpt lat="47.24775" lon="5.98978">
        <ele>299.557801</ele>
        <time>2020-10-11T11:13:30.684Z</time>
      </trkpt>
      <trkpt lat="47.24768" lon="5.99025">
        <ele>298.267702</ele>
        <time>2020-10-11T11:13:35.003Z</time>
      </trkpt>
      <trkpt lat="47.24763" lon="5.99068">
        <ele>297.080844</ele>
        <time>2020-10-11T11:13:38.893Z</time>
      </trkpt>
      <trkpt lat="47.24752" lon="5.99141">
        <ele>295.016223</ele>
        <time>2020-10-11T11:13:45.260Z</time>
      </trkpt>
      <trkpt lat="47.24739" lon="5.99232">
        <ele>291.987142</ele>
        <time>2020-10-11T11:13:53.428Z</time>
      </trkpt>
      <trkpt lat="47.24737" lon="5.9925">
        <ele>291.411645</ele>
        <time>2020-10-11T11:13:55.014Z</time>
      </trkpt>
      <trkpt lat="47.24735" lon="5.99259">
        <ele>291.085851</ele>
        <time>2020-10-11T11:13:55.920Z</time>
      </trkpt>
      <trkpt lat="47.24729" lon="5.99287">
        <ele>290.162034</ele>
        <time>2020-10-11T11:13:58.480Z</time>
      </trkpt>
      <trkpt lat="47.24723" lon="5.9931">
        <ele>289.380475</ele>
        <time>2020-10-11T11:14:00.731Z</time>
      </trkpt>
      <trkpt lat="47.24716" lon="5.99342">
        <ele>288.290028</ele>
        <time>2020-10-11T11:14:05.278Z</time>
      </trkpt>
      <trkpt lat="47.24708" lon="5.9938">
        <ele>286.97162</ele>
        <time>2020-10-11T11:14:09.345Z</time>
      </trkpt>
      <trkpt lat="47.24706" lon="5.99388">
        <ele>286.83637</ele>
        <time>2020-10-11T11:14:10.191Z</time>
      </trkpt>
      <trkpt lat="47.24704" lon="5.99397">
        <ele>286.771853</ele>
        <time>2020-10-11T11:14:11.185Z</time>
      </trkpt>
      <trkpt lat="47.247" lon="5.99418">
        <ele>286.627466</ele>
        <time>2020-10-11T11:14:13.400Z</time>
      </trkpt>
      <trkpt lat="47.24694" lon="5.99465">
        <ele>286.313045</ele>
        <time>2020-10-11T11:14:18.565Z</time>
      </trkpt>
      <trkpt lat="47.24693" lon="5.99476">
        <ele>286.235336</ele>
        <time>2020-10-11T11:14:19.829Z</time>
      </trkpt>
      <trkpt lat="47.24689" lon="5.99517">
        <ele>285.956044</ele>
        <time>2020-10-11T11:14:24.886Z</time>
      </trkpt>
      <trkpt lat="47.24687" lon="5.99547">
        <ele>285.755618</ele>
        <time>2020-10-11T11:14:28.676Z</time>
      </trkpt>
      <trkpt lat="47.24683" lon="5.99591">
        <ele>285.460513</ele>
        <time>2020-10-11T11:14:35.042Z</time>
      </trkpt>
      <trkpt lat="47.24682" lon="5.99609">
        <ele>285.338065</ele>
        <time>2020-10-11T11:14:37.500Z</time>
      </trkpt>
      <trkpt lat="47.24679" lon="5.99635">
        <ele>285.163071</ele>
        <time>2020-10-11T11:14:40.958Z</time>
      </trkpt>
      <trkpt lat="47.24676" lon="5.99659">
        <ele>285.097021</ele>
        <time>2020-10-11T11:14:44.869Z</time>
      </trkpt>
      <trkpt lat="47.24674" lon="5.99672">
        <ele>285.093834</ele>
        <time>2020-10-11T11:14:46.709Z</time>
      </trkpt>
      <trkpt lat="47.24673" lon="5.99689">
        <ele>285.089899</ele>
        <time>2020-10-11T11:14:49.241Z</time>
      </trkpt>
      <trkpt lat="47.24671" lon="5.99698">
        <ele>285.0877</ele>
        <time>2020-10-11T11:14:50.746Z</time>
      </trkpt>
      <trkpt lat="47.24664" lon="5.99727">
        <ele>285.080279</ele>
        <time>2020-10-11T11:14:54.801Z</time>
      </trkpt>
      <trkpt lat="47.24656" lon="5.99752">
        <ele>285.07369</ele>
        <time>2020-10-11T11:14:59.185Z</time>
      </trkpt>
      <trkpt lat="47.24645" lon="5.99776">
        <ele>285.066962</ele>
        <time>2020-10-11T11:15:03.272Z</time>
      </trkpt>
      <trkpt lat="47.24643" lon="5.99781">
        <ele>285.065515</ele>
        <time>2020-10-11T11:15:04.324Z</time>
      </trkpt>
      <trkpt lat="47.24638" lon="5.99792">
        <ele>285.062501</ele>
        <time>2020-10-11T11:15:06.522Z</time>
      </trkpt>
      <trkpt lat="47.24632" lon="5.99805">
        <ele>285.058861</ele>
        <time>2020-10-11T11:15:08.718Z</time>
      </trkpt>
      <trkpt lat="47.24629" lon="5.99814">
        <ele>285.056339</ele>
        <time>2020-10-11T11:15:10.233Z</time>
      </trkpt>
      <trkpt lat="47.24623" lon="5.99835">
        <ele>285.050949</ele>
        <time>2020-10-11T11:15:14.302Z</time>
      </trkpt>
      <trkpt lat="47.24619" lon="5.99889">
        <ele>285.038162</ele>
        <time>2020-10-11T11:15:21.656Z</time>
      </trkpt>
      <trkpt lat="47.24619" lon="5.99892">
        <ele>285.023349</ele>
        <time>2020-10-11T11:15:21.962Z</time>
      </trkpt>
      <trkpt lat="47.24618" lon="5.99904">
        <ele>284.925621</ele>
        <time>2020-10-11T11:15:23.449Z</time>
      </trkpt>
      <trkpt lat="47.24617" lon="5.99918">
        <ele>284.821198</ele>
        <time>2020-10-11T11:15:24.931Z</time>
      </trkpt>
      <trkpt lat="47.24616" lon="5.99921">
        <ele>284.796461</ele>
        <time>2020-10-11T11:15:25.265Z</time>
      </trkpt>
      <trkpt lat="47.24614" lon="5.99956">
        <ele>284.517323</ele>
        <time>2020-10-11T11:15:29.286Z</time>
      </trkpt>
      <trkpt lat="47.24612" lon="5.99995">
        <ele>284.206068</ele>
        <time>2020-10-11T11:15:33.588Z</time>
      </trkpt>
      <trkpt lat="47.24607" lon="6.00024">
        <ele>283.970756</ele>
        <time>2020-10-11T11:15:36.609Z</time>
      </trkpt>
      <trkpt lat="47.24602" lon="6.00039">
        <ele>283.837123</ele>
        <time>2020-10-11T11:15:38.556Z</time>
      </trkpt>
      <trkpt lat="47.246" lon="6.00046">
        <ele>283.782398</ele>
        <time>2020-10-11T11:15:39.238Z</time>
      </trkpt>
      <trkpt lat="47.24596" lon="6.0006">
        <ele>283.658124</ele>
        <time>2020-10-11T11:15:40.891Z</time>
      </trkpt>
      <trkpt lat="47.24595" lon="6.00062">
        <ele>283.63893</ele>
        <time>2020-10-11T11:15:41.222Z</time>
      </trkpt>
      <trkpt lat="47.24588" lon="6.00086">
        <ele>283.434537</ele>
        <time>2020-10-11T11:15:44.591Z</time>
      </trkpt>
      <trkpt lat="47.24565" lon="6.00154">
        <ele>282.878156</ele>
        <time>2020-10-11T11:15:53.396Z</time>
      </trkpt>
      <trkpt lat="47.24551" lon="6.00182">
        <ele>282.723617</ele>
        <time>2020-10-11T11:15:59.504Z</time>
      </trkpt>
      <trkpt lat="47.24541" lon="6.00192">
        <ele>282.642903</ele>
        <time>2020-10-11T11:16:02.279Z</time>
      </trkpt>
      <trkpt lat="47.24539" lon="6.00202">
        <ele>282.59317</ele>
        <time>2020-10-11T11:16:03.756Z</time>
      </trkpt>
      <trkpt lat="47.24525" lon="6.00247">
        <ele>282.369159</ele>
        <time>2020-10-11T11:16:09.632Z</time>
      </trkpt>
      <trkpt lat="47.24518" lon="6.00264">
        <ele>282.277176</ele>
        <time>2020-10-11T11:16:12.219Z</time>
      </trkpt>
      <trkpt lat="47.24514" lon="6.00271">
        <ele>282.236008</ele>
        <time>2020-10-11T11:16:13.296Z</time>
      </trkpt>
      <trkpt lat="47.24505" lon="6.00291">
        <ele>282.127613</ele>
        <time>2020-10-11T11:16:16.225Z</time>
      </trkpt>
      <trkpt lat="47.24467" lon="6.00367">
        <ele>281.700642</ele>
        <time>2020-10-11T11:16:28.096Z</time>
      </trkpt>
      <trkpt lat="47.24441" lon="6.00414">
        <ele>281.451689</ele>
        <time>2020-10-11T11:16:35.984Z</time>
      </trkpt>
      <trkpt lat="47.24419" lon="6.00447">
        <ele>281.260439</ele>
        <time>2020-10-11T11:16:41.880Z</time>
      </trkpt>
      <trkpt lat="47.24415" lon="6.00454">
        <ele>281.225905</ele>
        <time>2020-10-11T11:16:42.906Z</time>
      </trkpt>
      <trkpt lat="47.24407" lon="6.00472">
        <ele>281.13548</ele>
        <time>2020-10-11T11:16:45.466Z</time>
      </trkpt>
      <trkpt lat="47.244" lon="6.00491">
        <ele>281.048466</ele>
        <time>2020-10-11T11:16:47.922Z</time>
      </trkpt>
      <trkpt lat="47.24398" lon="6.00495">
        <ele>281.026677</ele>
        <time>2020-10-11T11:16:48.502Z</time>
      </trkpt>
      <trkpt lat="47.24395" lon="6.00508">
        <ele>280.973597</ele>
        <time>2020-10-11T11:16:50.075Z</time>
      </trkpt>
      <trkpt lat="47.24392" lon="6.00531">
        <ele>280.875531</ele>
        <time>2020-10-11T11:16:52.950Z</time>
      </trkpt>
      <trkpt lat="47.24387" lon="6.00567">
        <ele>280.724412</ele>
        <time>2020-10-11T11:16:57.473Z</time>
      </trkpt>
      <trkpt lat="47.24381" lon="6.006">
        <ele>280.695743</ele>
        <time>2020-10-11T11:17:01.595Z</time>
      </trkpt>
      <trkpt lat="47.24378" lon="6.00616">
        <ele>280.744634</ele>
        <time>2020-10-11T11:17:03.783Z</time>
      </trkpt>
      <trkpt lat="47.24377" lon="6.00618">
        <ele>280.752886</ele>
        <time>2020-10-11T11:17:04.231Z</time>
      </trkpt>
      <trkpt lat="47.24374" lon="6.00626">
        <ele>280.779726</ele>
        <time>2020-10-11T11:17:05.485Z</time>
      </trkpt>
      <trkpt lat="47.24348" lon="6.00673">
        <ele>280.957772</ele>
        <time>2020-10-11T11:17:14.002Z</time>
      </trkpt>
      <trkpt lat="47.24321" lon="6.00713">
        <ele>281.121058</ele>
        <time>2020-10-11T11:17:23.041Z</time>
      </trkpt>
      <trkpt lat="47.24308" lon="6.00733">
        <ele>281.20321</ele>
        <time>2020-10-11T11:17:27.949Z</time>
      </trkpt>
      <trkpt lat="47.24297" lon="6.00748">
        <ele>281.265235</ele>
        <time>2020-10-11T11:17:32.116Z</time>
      </trkpt>
      <trkpt lat="47.24293" lon="6.00754">
        <ele>281.292532</ele>
        <time>2020-10-11T11:17:34.032Z</time>
      </trkpt>
      <trkpt lat="47.24289" lon="6.00758">
        <ele>281.312079</ele>
        <time>2020-10-11T11:17:35.191Z</time>
      </trkpt>
      <trkpt lat="47.24286" lon="6.00759">
        <ele>281.32668</ele>
        <time>2020-10-11T11:17:36.052Z</time>
      </trkpt>
      <trkpt lat="47.24283" lon="6.00762">
        <ele>281.342072</ele>
        <time>2020-10-11T11:17:37.009Z</time>
      </trkpt>
      <trkpt lat="47.24278" lon="6.00771">
        <ele>281.374814</ele>
        <time>2020-10-11T11:17:39.120Z</time>
      </trkpt>
      <trkpt lat="47.24274" lon="6.00779">
        <ele>281.402091</ele>
        <time>2020-10-11T11:17:40.953Z</time>
      </trkpt>
      <trkpt lat="47.24274" lon="6.00791">
        <ele>281.460668</ele>
        <time>2020-10-11T11:17:43.332Z</time>
      </trkpt>
      <trkpt lat="47.24276" lon="6.00793">
        <ele>281.48444</ele>
        <time>2020-10-11T11:17:43.895Z</time>
      </trkpt>
      <trkpt lat="47.24276" lon="6.00795">
        <ele>281.499954</ele>
        <time>2020-10-11T11:17:44.224Z</time>
      </trkpt>
      <trkpt lat="47.24283" lon="6.00799">
        <ele>281.583033</ele>
        <time>2020-10-11T11:17:46.009Z</time>
      </trkpt>
      <trkpt lat="47.24284" lon="6.00799">
        <ele>281.600944</ele>
        <time>2020-10-11T11:17:46.393Z</time>
      </trkpt>
      <trkpt lat="47.24279" lon="6.00811">
        <ele>281.713254</ele>
        <time>2020-10-11T11:17:49.620Z</time>
      </trkpt>
      <trkpt lat="47.24272" lon="6.00822">
        <ele>281.83629</ele>
        <time>2020-10-11T11:17:52.499Z</time>
      </trkpt>
      <trkpt lat="47.24268" lon="6.00827">
        <ele>281.900041</ele>
        <time>2020-10-11T11:17:54.145Z</time>
      </trkpt>
      <trkpt lat="47.2426" lon="6.0084">
        <ele>282.036647</ele>
        <time>2020-10-11T11:17:57.133Z</time>
      </trkpt>
      <trkpt lat="47.24249" lon="6.0086">
        <ele>282.246663</ele>
        <time>2020-10-11T11:18:01.919Z</time>
      </trkpt>
      <trkpt lat="47.24245" lon="6.00872">
        <ele>282.346716</ele>
        <time>2020-10-11T11:18:04.352Z</time>
      </trkpt>
      <trkpt lat="47.24246" lon="6.00887">
        <ele>282.468901</ele>
        <time>2020-10-11T11:18:07.032Z</time>
      </trkpt>
      <trkpt lat="47.24245" lon="6.00899">
        <ele>282.562825</ele>
        <time>2020-10-11T11:18:09.061Z</time>
      </trkpt>
      <trkpt lat="47.24242" lon="6.0092">
        <ele>282.73971</ele>
        <time>2020-10-11T11:18:13.335Z</time>
      </trkpt>
      <trkpt lat="47.24243" lon="6.00924">
        <ele>282.766961</ele>
        <time>2020-10-11T11:18:13.938Z</time>
      </trkpt>
      <trkpt lat="47.24285" lon="6.01074">
        <ele>283.320271</ele>
        <time>2020-10-11T11:18:45.206Z</time>
      </trkpt>
      <trkpt lat="47.24293" lon="6.0112">
        <ele>283.168356</ele>
        <time>2020-10-11T11:18:52.614Z</time>
      </trkpt>
      <trkpt lat="47.24297" lon="6.01131">
        <ele>283.126038</ele>
        <time>2020-10-11T11:18:54.691Z</time>
      </trkpt>
      <trkpt lat="47.24295" lon="6.01135">
        <ele>283.109612</ele>
        <time>2020-10-11T11:18:55.557Z</time>
      </trkpt>
      <trkpt lat="47.24293" lon="6.01141">
        <ele>283.089657</ele>
        <time>2020-10-11T11:18:56.628Z</time>
      </trkpt>
      <trkpt lat="47.2429" lon="6.01149">
        <ele>283.059219</ele>
        <time>2020-10-11T11:18:57.897Z</time>
      </trkpt>
      <trkpt lat="47.24288" lon="6.01154">
        <ele>283.040628</ele>
        <time>2020-10-11T11:18:58.576Z</time>
      </trkpt>
      <trkpt lat="47.2428" lon="6.01213">
        <ele>282.843172</ele>
        <time>2020-10-11T11:19:05.381Z</time>
      </trkpt>
      <trkpt lat="47.24258" lon="6.01296">
        <ele>281.647261</ele>
        <time>2020-10-11T11:19:14.375Z</time>
      </trkpt>
      <trkpt lat="47.24256" lon="6.01303">
        <ele>281.420205</ele>
        <time>2020-10-11T11:19:15.154Z</time>
      </trkpt>
      <trkpt lat="47.24252" lon="6.01317">
        <ele>281.022471</ele>
        <time>2020-10-11T11:19:16.417Z</time>
      </trkpt>
      <trkpt lat="47.24245" lon="6.01344">
        <ele>280.209542</ele>
        <time>2020-10-11T11:19:19.235Z</time>
      </trkpt>
      <trkpt lat="47.24243" lon="6.01355">
        <ele>279.893646</ele>
        <time>2020-10-11T11:19:20.314Z</time>
      </trkpt>
      <trkpt lat="47.2424" lon="6.01367">
        <ele>279.542448</ele>
        <time>2020-10-11T11:19:21.412Z</time>
      </trkpt>
      <trkpt lat="47.24238" lon="6.01377">
        <ele>279.252348</ele>
        <time>2020-10-11T11:19:22.390Z</time>
      </trkpt>
      <trkpt lat="47.24233" lon="6.01392">
        <ele>278.792552</ele>
        <time>2020-10-11T11:19:23.920Z</time>
      </trkpt>
      <trkpt lat="47.24223" lon="6.0143">
        <ele>277.649054</ele>
        <time>2020-10-11T11:19:27.625Z</time>
      </trkpt>
      <trkpt lat="47.24227" lon="6.01461">
        <ele>276.778199</ele>
        <time>2020-10-11T11:19:30.559Z</time>
      </trkpt>
      <trkpt lat="47.24229" lon="6.01465">
        <ele>276.638539</ele>
        <time>2020-10-11T11:19:30.961Z</time>
      </trkpt>
      <trkpt lat="47.24226" lon="6.01469">
        <ele>276.467807</ele>
        <time>2020-10-11T11:19:36.851Z</time>
      </trkpt>
      <trkpt lat="47.24221" lon="6.01468">
        <ele>276.28188</ele>
        <time>2020-10-11T11:19:37.430Z</time>
      </trkpt>
      <trkpt lat="47.2421" lon="6.01475">
        <ele>275.759139</ele>
        <time>2020-10-11T11:19:39.208Z</time>
      </trkpt>
      <trkpt lat="47.24207" lon="6.01483">
        <ele>275.515475</ele>
        <time>2020-10-11T11:19:39.989Z</time>
      </trkpt>
      <trkpt lat="47.24214" lon="6.0151">
        <ele>274.95812</ele>
        <time>2020-10-11T11:19:42.507Z</time>
      </trkpt>
      <trkpt lat="47.24215" lon="6.01516">
        <ele>274.840932</ele>
        <time>2020-10-11T11:19:43.159Z</time>
      </trkpt>
      <trkpt lat="47.24223" lon="6.01535">
        <ele>274.466672</ele>
        <time>2020-10-11T11:19:45.323Z</time>
      </trkpt>
      <trkpt lat="47.24228" lon="6.01544">
        <ele>274.264577</ele>
        <time>2020-10-11T11:19:46.340Z</time>
      </trkpt>
      <trkpt lat="47.24233" lon="6.01553">
        <ele>274.074066</ele>
        <time>2020-10-11T11:19:47.354Z</time>
      </trkpt>
      <trkpt lat="47.24239" lon="6.01565">
        <ele>273.81272</ele>
        <time>2020-10-11T11:19:48.893Z</time>
      </trkpt>
      <trkpt lat="47.24245" lon="6.0158">
        <ele>273.513899</ele>
        <time>2020-10-11T11:19:50.688Z</time>
      </trkpt>
      <trkpt lat="47.24256" lon="6.01612">
        <ele>272.913962</ele>
        <time>2020-10-11T11:19:54.268Z</time>
      </trkpt>
      <trkpt lat="47.24261" lon="6.01646">
        <ele>272.319649</ele>
        <time>2020-10-11T11:19:57.595Z</time>
      </trkpt>
      <trkpt lat="47.24266" lon="6.01673">
        <ele>271.835688</ele>
        <time>2020-10-11T11:20:01.547Z</time>
      </trkpt>
      <trkpt lat="47.24272" lon="6.01689">
        <ele>271.535166</ele>
        <time>2020-10-11T11:20:03.440Z</time>
      </trkpt>
      <trkpt lat="47.2428" lon="6.01698">
        <ele>271.287407</ele>
        <time>2020-10-11T11:20:05.235Z</time>
      </trkpt>
      <trkpt lat="47.2429" lon="6.01704">
        <ele>270.992672</ele>
        <time>2020-10-11T11:20:08.354Z</time>
      </trkpt>
      <trkpt lat="47.24337" lon="6.01727">
        <ele>270.362272</ele>
        <time>2020-10-11T11:20:18.234Z</time>
      </trkpt>
      <trkpt lat="47.24361" lon="6.01743">
        <ele>270.066742</ele>
        <time>2020-10-11T11:20:23.867Z</time>
      </trkpt>
      <trkpt lat="47.24421" lon="6.01782">
        <ele>269.340908</ele>
        <time>2020-10-11T11:20:34.860Z</time>
      </trkpt>
      <trkpt lat="47.24432" lon="6.01811">
        <ele>269.090955</ele>
        <time>2020-10-11T11:20:38.355Z</time>
      </trkpt>
      <trkpt lat="47.24432" lon="6.01839">
        <ele>268.881983</ele>
        <time>2020-10-11T11:20:41.313Z</time>
      </trkpt>
      <trkpt lat="47.24431" lon="6.01938">
        <ele>267.087613</ele>
        <time>2020-10-11T11:20:51.259Z</time>
      </trkpt>
      <trkpt lat="47.24431" lon="6.01969">
        <ele>266.506714</ele>
        <time>2020-10-11T11:20:54.354Z</time>
      </trkpt>
      <trkpt lat="47.24431" lon="6.01989">
        <ele>266.131865</ele>
        <time>2020-10-11T11:20:56.420Z</time>
      </trkpt>
      <trkpt lat="47.24431" lon="6.0204">
        <ele>265.183727</ele>
        <time>2020-10-11T11:21:01.454Z</time>
      </trkpt>
      <trkpt lat="47.24432" lon="6.02057">
        <ele>264.853202</ele>
        <time>2020-10-11T11:21:03.130Z</time>
      </trkpt>
      <trkpt lat="47.24434" lon="6.0208">
        <ele>264.424633</ele>
        <time>2020-10-11T11:21:05.353Z</time>
      </trkpt>
      <trkpt lat="47.24446" lon="6.02146">
        <ele>262.734935</ele>
        <time>2020-10-11T11:21:11.978Z</time>
      </trkpt>
      <trkpt lat="47.24448" lon="6.02152">
        <ele>262.545912</ele>
        <time>2020-10-11T11:21:12.540Z</time>
      </trkpt>
      <trkpt lat="47.24451" lon="6.02164">
        <ele>262.181595</ele>
        <time>2020-10-11T11:21:13.603Z</time>
      </trkpt>
      <trkpt lat="47.24454" lon="6.02174">
        <ele>261.857706</ele>
        <time>2020-10-11T11:21:14.702Z</time>
      </trkpt>
      <trkpt lat="47.24459" lon="6.02186">
        <ele>261.423794</ele>
        <time>2020-10-11T11:21:16.277Z</time>
      </trkpt>
      <trkpt lat="47.24471" lon="6.02215">
        <ele>260.451478</ele>
        <time>2020-10-11T11:21:19.293Z</time>
      </trkpt>
      <trkpt lat="47.24481" lon="6.02248">
        <ele>259.411962</ele>
        <time>2020-10-11T11:21:22.829Z</time>
      </trkpt>
      <trkpt lat="47.24496" lon="6.02313">
        <ele>257.391453</ele>
        <time>2020-10-11T11:21:29.061Z</time>
      </trkpt>
      <trkpt lat="47.24499" lon="6.02342">
        <ele>256.557149</ele>
        <time>2020-10-11T11:21:31.747Z</time>
      </trkpt>
      <trkpt lat="47.24496" lon="6.02349">
        <ele>256.300647</ele>
        <time>2020-10-11T11:21:32.509Z</time>
      </trkpt>
      <trkpt lat="47.24493" lon="6.02354">
        <ele>256.080918</ele>
        <time>2020-10-11T11:21:33.096Z</time>
      </trkpt>
      <trkpt lat="47.24422" lon="6.02371">
        <ele>252.435793</ele>
        <time>2020-10-11T11:21:42.378Z</time>
      </trkpt>
      <trkpt lat="47.24407" lon="6.02372">
        <ele>251.671617</ele>
        <time>2020-10-11T11:21:44.342Z</time>
      </trkpt>
      <trkpt lat="47.24363" lon="6.0238">
        <ele>249.423965</ele>
        <time>2020-10-11T11:21:50.173Z</time>
      </trkpt>
      <trkpt lat="47.24324" lon="6.02399">
        <ele>247.335639</ele>
        <time>2020-10-11T11:21:55.628Z</time>
      </trkpt>
      <trkpt lat="47.243" lon="6.02432">
        <ele>246.457657</ele>
        <time>2020-10-11T11:22:00.110Z</time>
      </trkpt>
      <trkpt lat="47.24284" lon="6.02476">
        <ele>245.736836</ele>
        <time>2020-10-11T11:22:04.775Z</time>
      </trkpt>
      <trkpt lat="47.24277" lon="6.02535">
        <ele>244.873159</ele>
        <time>2020-10-11T11:22:10.953Z</time>
      </trkpt>
      <trkpt lat="47.24274" lon="6.02551">
        <ele>244.636817</ele>
        <time>2020-10-11T11:22:12.754Z</time>
      </trkpt>
      <trkpt lat="47.24272" lon="6.0257">
        <ele>244.3598</ele>
        <time>2020-10-11T11:22:15.664Z</time>
      </trkpt>
      <trkpt lat="47.24272" lon="6.0258">
        <ele>244.212728</ele>
        <time>2020-10-11T11:22:17.174Z</time>
      </trkpt>
      <trkpt lat="47.24257" lon="6.02575">
        <ele>243.888389</ele>
        <time>2020-10-11T11:22:19.692Z</time>
      </trkpt>
      <trkpt lat="47.24196" lon="6.0256">
        <ele>243.328026</ele>
        <time>2020-10-11T11:22:32.748Z</time>
      </trkpt>
      <trkpt lat="47.24167" lon="6.02553">
        <ele>243.434202</ele>
        <time>2020-10-11T11:22:39.447Z</time>
      </trkpt>
      <trkpt lat="47.24141" lon="6.02551">
        <ele>243.531139</ele>
        <time>2020-10-11T11:22:44.738Z</time>
      </trkpt>
      <trkpt lat="47.24137" lon="6.0255">
        <ele>243.547792</ele>
        <time>2020-10-11T11:22:46.249Z</time>
      </trkpt>
      <trkpt lat="47.24133" lon="6.0255">
        <ele>243.562973</ele>
        <time>2020-10-11T11:22:47.284Z</time>
      </trkpt>
      <trkpt lat="47.24125" lon="6.02549">
        <ele>243.591866</ele>
        <time>2020-10-11T11:22:48.859Z</time>
      </trkpt>
      <trkpt lat="47.24123" lon="6.02566">
        <ele>243.635469</ele>
        <time>2020-10-11T11:22:51.321Z</time>
      </trkpt>
      <trkpt lat="47.24122" lon="6.02569">
        <ele>243.644675</ele>
        <time>2020-10-11T11:22:51.903Z</time>
      </trkpt>
      <trkpt lat="47.24118" lon="6.02601">
        <ele>243.726083</ele>
        <time>2020-10-11T11:22:57.640Z</time>
      </trkpt>
      <trkpt lat="47.24108" lon="6.02658">
        <ele>243.872849</ele>
        <time>2020-10-11T11:23:07.932Z</time>
      </trkpt>
      <trkpt lat="47.24105" lon="6.02675">
        <ele>243.895453</ele>
        <time>2020-10-11T11:23:11.005Z</time>
      </trkpt>
      <trkpt lat="47.24104" lon="6.0268">
        <ele>243.900615</ele>
        <time>2020-10-11T11:23:11.858Z</time>
      </trkpt>
      <trkpt lat="47.24091" lon="6.0276">
        <ele>243.989652</ele>
        <time>2020-10-11T11:23:24.882Z</time>
      </trkpt>
      <trkpt lat="47.24088" lon="6.02778">
        <ele>244.009783</ele>
        <time>2020-10-11T11:23:27.278Z</time>
      </trkpt>
      <trkpt lat="47.24079" lon="6.02796">
        <ele>244.03358</ele>
        <time>2020-10-11T11:23:30.034Z</time>
      </trkpt>
      <trkpt lat="47.24068" lon="6.028">
        <ele>244.051742</ele>
        <time>2020-10-11T11:23:32.518Z</time>
      </trkpt>
      <trkpt lat="47.24064" lon="6.02811">
        <ele>244.064677</ele>
        <time>2020-10-11T11:23:34.290Z</time>
      </trkpt>
      <trkpt lat="47.24051" lon="6.02841">
        <ele>244.10295</ele>
        <time>2020-10-11T11:23:39.036Z</time>
      </trkpt>
      <trkpt lat="47.24041" lon="6.02863">
        <ele>244.131008</ele>
        <time>2020-10-11T11:23:42.764Z</time>
      </trkpt>
      <trkpt lat="47.24037" lon="6.02872">
        <ele>244.142287</ele>
        <time>2020-10-11T11:23:44.034Z</time>
      </trkpt>
      <trkpt lat="47.2402" lon="6.02911">
        <ele>244.255496</ele>
        <time>2020-10-11T11:23:50.707Z</time>
      </trkpt>
      <trkpt lat="47.24012" lon="6.02929">
        <ele>244.330049</ele>
        <time>2020-10-11T11:23:54.184Z</time>
      </trkpt>
      <trkpt lat="47.24006" lon="6.02942">
        <ele>244.383827</ele>
        <time>2020-10-11T11:23:56.529Z</time>
      </trkpt>
      <trkpt lat="47.24" lon="6.02955">
        <ele>244.437919</ele>
        <time>2020-10-11T11:23:58.645Z</time>
      </trkpt>
      <trkpt lat="47.23998" lon="6.02959">
        <ele>244.456712</ele>
        <time>2020-10-11T11:23:59.374Z</time>
      </trkpt>
      <trkpt lat="47.23982" lon="6.02986">
        <ele>244.579704</ele>
        <time>2020-10-11T11:24:05.330Z</time>
      </trkpt>
      <trkpt lat="47.23941" lon="6.03041">
        <ele>244.860192</ele>
        <time>2020-10-11T11:24:18.425Z</time>
      </trkpt>
      <trkpt lat="47.23937" lon="6.03046">
        <ele>244.886911</ele>
        <time>2020-10-11T11:24:20.346Z</time>
      </trkpt>
      <trkpt lat="47.23928" lon="6.03055">
        <ele>244.940351</ele>
        <time>2020-10-11T11:24:22.825Z</time>
      </trkpt>
      <trkpt lat="47.23793" lon="6.03196">
        <ele>246.356075</ele>
        <time>2020-10-11T11:25:05.843Z</time>
      </trkpt>
      <trkpt lat="47.23782" lon="6.03207">
        <ele>246.485073</ele>
        <time>2020-10-11T11:25:09.787Z</time>
      </trkpt>
      <trkpt lat="47.23774" lon="6.03209">
        <ele>246.559503</ele>
        <time>2020-10-11T11:25:11.932Z</time>
      </trkpt>
      <trkpt lat="47.23762" lon="6.03209">
        <ele>246.668417</ele>
        <time>2020-10-11T11:25:14.947Z</time>
      </trkpt>
      <trkpt lat="47.23757" lon="6.03212">
        <ele>246.722138</ele>
        <time>2020-10-11T11:25:16.429Z</time>
      </trkpt>
      <trkpt lat="47.2374" lon="6.03227">
        <ele>246.785952</ele>
        <time>2020-10-11T11:25:21.688Z</time>
      </trkpt>
      <trkpt lat="47.23722" lon="6.03242">
        <ele>246.84109</ele>
        <time>2020-10-11T11:25:26.516Z</time>
      </trkpt>
      <trkpt lat="47.23701" lon="6.03256">
        <ele>246.906139</ele>
        <time>2020-10-11T11:25:32.180Z</time>
      </trkpt>
      <trkpt lat="47.23644" lon="6.03293">
        <ele>247.078756</ele>
        <time>2020-10-11T11:25:46.237Z</time>
      </trkpt>
      <trkpt lat="47.2364" lon="6.03296">
        <ele>247.091827</ele>
        <time>2020-10-11T11:25:47.180Z</time>
      </trkpt>
      <trkpt lat="47.23638" lon="6.03298">
        <ele>247.098653</ele>
        <time>2020-10-11T11:25:47.622Z</time>
      </trkpt>
      <trkpt lat="47.23636" lon="6.03299">
        <ele>247.103649</ele>
        <time>2020-10-11T11:25:47.911Z</time>
      </trkpt>
      <trkpt lat="47.23629" lon="6.03305">
        <ele>247.128207</ele>
        <time>2020-10-11T11:25:49.511Z</time>
      </trkpt>
      <trkpt lat="47.23623" lon="6.03309">
        <ele>247.146273</ele>
        <time>2020-10-11T11:25:50.867Z</time>
      </trkpt>
      <trkpt lat="47.23506" lon="6.03381">
        <ele>247.000931</ele>
        <time>2020-10-11T11:26:15.499Z</time>
      </trkpt>
      <trkpt lat="47.23502" lon="6.03383">
        <ele>246.990213</ele>
        <time>2020-10-11T11:26:16.153Z</time>
      </trkpt>
      <trkpt lat="47.23494" lon="6.03388">
        <ele>246.968714</ele>
        <time>2020-10-11T11:26:17.785Z</time>
      </trkpt>
      <trkpt lat="47.23488" lon="6.03392">
        <ele>246.950417</ele>
        <time>2020-10-11T11:26:19.186Z</time>
      </trkpt>
      <trkpt lat="47.23453" lon="6.03411">
        <ele>246.85983</ele>
        <time>2020-10-11T11:26:25.913Z</time>
      </trkpt>
      <trkpt lat="47.23432" lon="6.03425">
        <ele>246.802879</ele>
        <time>2020-10-11T11:26:30.729Z</time>
      </trkpt>
      <trkpt lat="47.23398" lon="6.03446">
        <ele>247.002531</ele>
        <time>2020-10-11T11:26:38.660Z</time>
      </trkpt>
      <trkpt lat="47.23351" lon="6.03477">
        <ele>247.347864</ele>
        <time>2020-10-11T11:26:50.652Z</time>
      </trkpt>
      <trkpt lat="47.2332" lon="6.03492">
        <ele>247.561554</ele>
        <time>2020-10-11T11:26:58.703Z</time>
      </trkpt>
      <trkpt lat="47.23311" lon="6.03494">
        <ele>247.628797</ele>
        <time>2020-10-11T11:27:02.024Z</time>
      </trkpt>
      <trkpt lat="47.23307" lon="6.03492">
        <ele>247.656984</ele>
        <time>2020-10-11T11:27:03.864Z</time>
      </trkpt>
      <trkpt lat="47.23294" lon="6.03496">
        <ele>247.742351</ele>
        <time>2020-10-11T11:27:07.843Z</time>
      </trkpt>
      <trkpt lat="47.23291" lon="6.03501">
        <ele>247.772072</ele>
        <time>2020-10-11T11:27:09.166Z</time>
      </trkpt>
      <trkpt lat="47.2329" lon="6.03505">
        <ele>247.793692</ele>
        <time>2020-10-11T11:27:10.156Z</time>
      </trkpt>
      <trkpt lat="47.23289" lon="6.0351">
        <ele>247.815325</ele>
        <time>2020-10-11T11:27:11.282Z</time>
      </trkpt>
      <trkpt lat="47.23283" lon="6.03517">
        <ele>247.866418</ele>
        <time>2020-10-11T11:27:14.098Z</time>
      </trkpt>
      <trkpt lat="47.23279" lon="6.03523">
        <ele>247.903935</ele>
        <time>2020-10-11T11:27:16.248Z</time>
      </trkpt>
      <trkpt lat="47.23275" lon="6.03528">
        <ele>247.940946</ele>
        <time>2020-10-11T11:27:17.851Z</time>
      </trkpt>
      <trkpt lat="47.23224" lon="6.03562">
        <ele>248.312765</ele>
        <time>2020-10-11T11:27:28.500Z</time>
      </trkpt>
      <trkpt lat="47.23185" lon="6.03558">
        <ele>248.570295</ele>
        <time>2020-10-11T11:27:35.746Z</time>
      </trkpt>
      <trkpt lat="47.2318" lon="6.03556">
        <ele>248.608043</ele>
        <time>2020-10-11T11:27:37.524Z</time>
      </trkpt>
      <trkpt lat="47.23169" lon="6.03557">
        <ele>248.676406</ele>
        <time>2020-10-11T11:27:40.901Z</time>
      </trkpt>
      <trkpt lat="47.23161" lon="6.03559">
        <ele>248.732838</ele>
        <time>2020-10-11T11:27:42.903Z</time>
      </trkpt>
      <trkpt lat="47.23152" lon="6.03565">
        <ele>248.800917</ele>
        <time>2020-10-11T11:27:44.368Z</time>
      </trkpt>
      <trkpt lat="47.23136" lon="6.03583">
        <ele>248.932073</ele>
        <time>2020-10-11T11:27:50.805Z</time>
      </trkpt>
      <trkpt lat="47.23132" lon="6.03587">
        <ele>248.967968</ele>
        <time>2020-10-11T11:27:52.340Z</time>
      </trkpt>
      <trkpt lat="47.23131" lon="6.03602">
        <ele>249.033271</ele>
        <time>2020-10-11T11:27:54.519Z</time>
      </trkpt>
      <trkpt lat="47.2313" lon="6.0361">
        <ele>249.072508</ele>
        <time>2020-10-11T11:27:56.060Z</time>
      </trkpt>
      <trkpt lat="47.23119" lon="6.03636">
        <ele>249.267268</ele>
        <time>2020-10-11T11:28:03.961Z</time>
      </trkpt>
      <trkpt lat="47.23117" lon="6.03646">
        <ele>249.448661</ele>
        <time>2020-10-11T11:28:05.047Z</time>
      </trkpt>
      <trkpt lat="47.23102" lon="6.03662">
        <ele>249.917328</ele>
        <time>2020-10-11T11:28:12.407Z</time>
      </trkpt>
      <trkpt lat="47.23083" lon="6.03678">
        <ele>250.468437</ele>
        <time>2020-10-11T11:28:17.763Z</time>
      </trkpt>
      <trkpt lat="47.23064" lon="6.03693">
        <ele>251.016923</ele>
        <time>2020-10-11T11:28:27.031Z</time>
      </trkpt>
      <trkpt lat="47.23017" lon="6.03731">
        <ele>252.373263</ele>
        <time>2020-10-11T11:28:40.577Z</time>
      </trkpt>
      <trkpt lat="47.22973" lon="6.03767">
        <ele>253.649312</ele>
        <time>2020-10-11T11:29:02.256Z</time>
      </trkpt>
      <trkpt lat="47.22872" lon="6.03853">
        <ele>260.168652</ele>
        <time>2020-10-11T11:30:02.953Z</time>
      </trkpt>
      <trkpt lat="47.228" lon="6.03889">
        <ele>264.587258</ele>
        <time>2020-10-11T11:30:46.057Z</time>
      </trkpt>
      <trkpt lat="47.22779" lon="6.03906">
        <ele>266.147327</ele>
        <time>2020-10-11T11:31:00.210Z</time>
      </trkpt>
      <trkpt lat="47.2275" lon="6.0394">
        <ele>268.638543</ele>
        <time>2020-10-11T11:31:22.311Z</time>
      </trkpt>
      <trkpt lat="47.22673" lon="6.0409">
        <ele>276.798874</ele>
        <time>2020-10-11T11:32:38.565Z</time>
      </trkpt>
      <trkpt lat="47.22609" lon="6.043">
        <ele>284.461536</ele>
        <time>2020-10-11T11:33:50.929Z</time>
      </trkpt>
      <trkpt lat="47.22587" lon="6.04448">
        <ele>288.358048</ele>
        <time>2020-10-11T11:34:35.380Z</time>
      </trkpt>
      <trkpt lat="47.22582" lon="6.04498">
        <ele>289.641135</ele>
        <time>2020-10-11T11:34:49.846Z</time>
      </trkpt>
      <trkpt lat="47.22583" lon="6.04546">
        <ele>290.838197</ele>
        <time>2020-10-11T11:35:03.126Z</time>
      </trkpt>
      <trkpt lat="47.2261" lon="6.04841">
        <ele>295.576381</ele>
        <time>2020-10-11T11:36:13.907Z</time>
      </trkpt>
      <trkpt lat="47.22673" lon="6.05088">
        <ele>295.290124</ele>
        <time>2020-10-11T11:36:48.295Z</time>
      </trkpt>
      <trkpt lat="47.22738" lon="6.05309">
        <ele>292.338268</ele>
        <time>2020-10-11T11:37:13.559Z</time>
      </trkpt>
      <trkpt lat="47.22775" lon="6.05404">
        <ele>290.208368</ele>
        <time>2020-10-11T11:37:24.567Z</time>
      </trkpt>
      <trkpt lat="47.22821" lon="6.05498">
        <ele>287.798832</ele>
        <time>2020-10-11T11:37:35.813Z</time>
      </trkpt>
      <trkpt lat="47.22872" lon="6.05583">
        <ele>285.003383</ele>
        <time>2020-10-11T11:37:46.382Z</time>
      </trkpt>
      <trkpt lat="47.22899" lon="6.05626">
        <ele>283.312332</ele>
        <time>2020-10-11T11:37:51.843Z</time>
      </trkpt>
      <trkpt lat="47.22909" lon="6.05641">
        <ele>282.729201</ele>
        <time>2020-10-11T11:37:53.684Z</time>
      </trkpt>
      <trkpt lat="47.22975" lon="6.05729">
        <ele>278.969622</ele>
        <time>2020-10-11T11:38:05.756Z</time>
      </trkpt>
      <trkpt lat="47.23038" lon="6.05793">
        <ele>275.374552</ele>
        <time>2020-10-11T11:38:16.088Z</time>
      </trkpt>
      <trkpt lat="47.23062" lon="6.05814">
        <ele>274.054727</ele>
        <time>2020-10-11T11:38:19.674Z</time>
      </trkpt>
      <trkpt lat="47.23053" lon="6.0583">
        <ele>273.378215</ele>
        <time>2020-10-11T11:38:42.342Z</time>
      </trkpt>
      <trkpt lat="47.23072" lon="6.05853">
        <ele>272.207471</ele>
        <time>2020-10-11T11:38:45.467Z</time>
      </trkpt>
      <trkpt lat="47.23089" lon="6.05869">
        <ele>271.275305</ele>
        <time>2020-10-11T11:38:48.045Z</time>
      </trkpt>
      <trkpt lat="47.23116" lon="6.05893">
        <ele>270.061723</ele>
        <time>2020-10-11T11:38:52.204Z</time>
      </trkpt>
      <trkpt lat="47.23119" lon="6.05895">
        <ele>269.941943</ele>
        <time>2020-10-11T11:38:52.657Z</time>
      </trkpt>
      <trkpt lat="47.2318" lon="6.05974">
        <ele>267.362292</ele>
        <time>2020-10-11T11:39:03.694Z</time>
      </trkpt>
      <trkpt lat="47.23192" lon="6.0599">
        <ele>266.83546</ele>
        <time>2020-10-11T11:39:06.840Z</time>
      </trkpt>
      <trkpt lat="47.23195" lon="6.05993">
        <ele>266.708817</ele>
        <time>2020-10-11T11:39:07.573Z</time>
      </trkpt>
      <trkpt lat="47.23209" lon="6.06015">
        <ele>266.051378</ele>
        <time>2020-10-11T11:39:11.551Z</time>
      </trkpt>
      <trkpt lat="47.23219" lon="6.06044">
        <ele>265.355188</ele>
        <time>2020-10-11T11:39:16.952Z</time>
      </trkpt>
      <trkpt lat="47.23223" lon="6.06055">
        <ele>265.094696</ele>
        <time>2020-10-11T11:39:18.850Z</time>
      </trkpt>
      <trkpt lat="47.23234" lon="6.06068">
        <ele>265.260925</ele>
        <time>2020-10-11T11:39:22.284Z</time>
      </trkpt>
      <trkpt lat="47.23242" lon="6.06072">
        <ele>265.675463</ele>
        <time>2020-10-11T11:39:25.233Z</time>
      </trkpt>
      <trkpt lat="47.23337" lon="6.06125">
        <ele>270.63477</ele>
        <time>2020-10-11T11:40:09.371Z</time>
      </trkpt>
      <trkpt lat="47.23344" lon="6.06124">
        <ele>270.951346</ele>
        <time>2020-10-11T11:40:14.521Z</time>
      </trkpt>
      <trkpt lat="47.23344" lon="6.06131">
        <ele>271.179542</ele>
        <time>2020-10-11T11:40:19.768Z</time>
      </trkpt>
      <trkpt lat="47.23356" lon="6.06143">
        <ele>271.907049</ele>
        <time>2020-10-11T11:40:28.526Z</time>
      </trkpt>
      <trkpt lat="47.23383" lon="6.0616">
        <ele>273.344899</ele>
        <time>2020-10-11T11:40:52.010Z</time>
      </trkpt>
      <trkpt lat="47.23412" lon="6.06174">
        <ele>275.940826</ele>
        <time>2020-10-11T11:41:15.956Z</time>
      </trkpt>
      <trkpt lat="47.23442" lon="6.06195">
        <ele>279.135832</ele>
        <time>2020-10-11T11:41:43.563Z</time>
      </trkpt>
      <trkpt lat="47.23533" lon="6.06284">
        <ele>289.603327</ele>
        <time>2020-10-11T11:43:13.738Z</time>
      </trkpt>
      <trkpt lat="47.23543" lon="6.06307">
        <ele>291.480725</ele>
        <time>2020-10-11T11:43:29.369Z</time>
      </trkpt>
      <trkpt lat="47.23591" lon="6.065">
        <ele>308.361737</ele>
        <time>2020-10-11T11:45:31.778Z</time>
      </trkpt>
      <trkpt lat="47.23596" lon="6.06508">
        <ele>309.296199</ele>
        <time>2020-10-11T11:45:43.138Z</time>
      </trkpt>
      <trkpt lat="47.23607" lon="6.0652">
        <ele>310.911664</ele>
        <time>2020-10-11T11:45:57.487Z</time>
      </trkpt>
      <trkpt lat="47.23615" lon="6.06531">
        <ele>312.216989</ele>
        <time>2020-10-11T11:46:07.757Z</time>
      </trkpt>
      <trkpt lat="47.2362" lon="6.06546">
        <ele>314.141388</ele>
        <time>2020-10-11T11:46:25.136Z</time>
      </trkpt>
      <trkpt lat="47.23637" lon="6.06591">
        <ele>320.530462</ele>
        <time>2020-10-11T11:47:09.091Z</time>
      </trkpt>
      <trkpt lat="47.23639" lon="6.06598">
        <ele>321.471423</ele>
        <time>2020-10-11T11:47:17.113Z</time>
      </trkpt>
      <trkpt lat="47.23648" lon="6.06621">
        <ele>324.81628</ele>
        <time>2020-10-11T11:47:38.361Z</time>
      </trkpt>
      <trkpt lat="47.23652" lon="6.06634">
        <ele>326.655895</ele>
        <time>2020-10-11T11:47:51.213Z</time>
      </trkpt>
      <trkpt lat="47.23655" lon="6.06649">
        <ele>328.501156</ele>
        <time>2020-10-11T11:48:06.946Z</time>
      </trkpt>
      <trkpt lat="47.2366" lon="6.06677">
        <ele>332.195874</ele>
        <time>2020-10-11T11:48:30.844Z</time>
      </trkpt>
      <trkpt lat="47.23664" lon="6.06719">
        <ele>337.496368</ele>
        <time>2020-10-11T11:49:12.422Z</time>
      </trkpt>
      <trkpt lat="47.23663" lon="6.06773">
        <ele>344.254055</ele>
        <time>2020-10-11T11:50:04.879Z</time>
      </trkpt>
      <trkpt lat="47.23687" lon="6.06853">
        <ele>353.192716</ele>
        <time>2020-10-11T11:51:25.854Z</time>
      </trkpt>
      <trkpt lat="47.2368" lon="6.0686">
        <ele>354.526386</ele>
        <time>2020-10-11T11:51:38.049Z</time>
      </trkpt>
      <trkpt lat="47.23654" lon="6.06848">
        <ele>358.445978</ele>
        <time>2020-10-11T11:52:10.779Z</time>
      </trkpt>
      <trkpt lat="47.23603" lon="6.06793">
        <ele>367.79302</ele>
        <time>2020-10-11T11:53:18.691Z</time>
      </trkpt>
      <trkpt lat="47.23483" lon="6.06714">
        <ele>378.824248</ele>
        <time>2020-10-11T11:54:44.768Z</time>
      </trkpt>
      <trkpt lat="47.23368" lon="6.06603">
        <ele>389.633973</ele>
        <time>2020-10-11T11:56:05.105Z</time>
      </trkpt>
      <trkpt lat="47.23363" lon="6.066">
        <ele>390.196639</ele>
        <time>2020-10-11T11:56:14.062Z</time>
      </trkpt>
      <trkpt lat="47.23358" lon="6.06597">
        <ele>390.656372</ele>
        <time>2020-10-11T11:56:16.138Z</time>
      </trkpt>
      <trkpt lat="47.23353" lon="6.06594">
        <ele>391.215727</ele>
        <time>2020-10-11T11:56:19.972Z</time>
      </trkpt>
      <trkpt lat="47.23347" lon="6.06594">
        <ele>391.730887</ele>
        <time>2020-10-11T11:56:21.863Z</time>
      </trkpt>
      <trkpt lat="47.23344" lon="6.06598">
        <ele>392.165337</ele>
        <time>2020-10-11T11:56:25.302Z</time>
      </trkpt>
      <trkpt lat="47.23342" lon="6.06603">
        <ele>392.53755</ele>
        <time>2020-10-11T11:56:28.041Z</time>
      </trkpt>
      <trkpt lat="47.23342" lon="6.06608">
        <ele>392.88776</ele>
        <time>2020-10-11T11:56:31.006Z</time>
      </trkpt>
      <trkpt lat="47.23343" lon="6.06613">
        <ele>393.209386</ele>
        <time>2020-10-11T11:56:33.342Z</time>
      </trkpt>
      <trkpt lat="47.23346" lon="6.06618">
        <ele>393.649226</ele>
        <time>2020-10-11T11:56:40.768Z</time>
      </trkpt>
      <trkpt lat="47.2336" lon="6.06639">
        <ele>395.532074</ele>
        <time>2020-10-11T11:56:53.196Z</time>
      </trkpt>
      <trkpt lat="47.23376" lon="6.06707">
        <ele>400.195458</ele>
        <time>2020-10-11T11:57:41.634Z</time>
      </trkpt>
      <trkpt lat="47.23457" lon="6.06852">
        <ele>416.678774</ele>
        <time>2020-10-11T12:00:07.738Z</time>
      </trkpt>
      <trkpt lat="47.23547" lon="6.07057">
        <ele>433.139125</ele>
        <time>2020-10-11T12:02:30.188Z</time>
      </trkpt>
      <trkpt lat="47.23545" lon="6.07063">
        <ele>433.491372</ele>
        <time>2020-10-11T12:02:35.272Z</time>
      </trkpt>
      <trkpt lat="47.23541" lon="6.07069">
        <ele>433.92692</ele>
        <time>2020-10-11T12:02:38.384Z</time>
      </trkpt>
      <trkpt lat="47.23532" lon="6.0707">
        <ele>434.661125</ele>
        <time>2020-10-11T12:02:40.489Z</time>
      </trkpt>
      <trkpt lat="47.23507" lon="6.07054">
        <ele>436.832746</ele>
        <time>2020-10-11T12:02:57.681Z</time>
      </trkpt>
      <trkpt lat="47.23473" lon="6.07051">
        <ele>439.479786</ele>
        <time>2020-10-11T12:03:16.395Z</time>
      </trkpt>
      <trkpt lat="47.2346" lon="6.0705">
        <ele>440.221419</ele>
        <time>2020-10-11T12:03:19.241Z</time>
      </trkpt>
      <trkpt lat="47.23403" lon="6.07035">
        <ele>443.533222</ele>
        <time>2020-10-11T12:03:56.671Z</time>
      </trkpt>
      <trkpt lat="47.23391" lon="6.0704">
        <ele>444.24565</ele>
        <time>2020-10-11T12:04:00.317Z</time>
      </trkpt>
      <trkpt lat="47.23388" lon="6.07046">
        <ele>444.553853</ele>
        <time>2020-10-11T12:04:01.249Z</time>
      </trkpt>
      <trkpt lat="47.23387" lon="6.07049">
        <ele>444.686579</ele>
        <time>2020-10-11T12:04:05.016Z</time>
      </trkpt>
      <trkpt lat="47.23398" lon="6.07107">
        <ele>447.020101</ele>
        <time>2020-10-11T12:04:27.437Z</time>
      </trkpt>
      <trkpt lat="47.23431" lon="6.07188">
        <ele>451.843592</ele>
        <time>2020-10-11T12:05:09.440Z</time>
      </trkpt>
      <trkpt lat="47.23437" lon="6.07241">
        <ele>456.104981</ele>
        <time>2020-10-11T12:05:47.501Z</time>
      </trkpt>
      <trkpt lat="47.23447" lon="6.07279">
        <ele>459.320001</ele>
        <time>2020-10-11T12:06:20.250Z</time>
      </trkpt>
      <trkpt lat="47.23443" lon="6.073">
        <ele>461.002264</ele>
        <time>2020-10-11T12:06:34.235Z</time>
      </trkpt>
      <trkpt lat="47.23409" lon="6.0732">
        <ele>465.169999</ele>
        <time>2020-10-11T12:07:10.462Z</time>
      </trkpt>
      <trkpt lat="47.23402" lon="6.07333">
        <ele>466.479789</ele>
        <time>2020-10-11T12:07:19.634Z</time>
      </trkpt>
      <trkpt lat="47.23401" lon="6.07338">
        <ele>466.893104</ele>
        <time>2020-10-11T12:07:25.282Z</time>
      </trkpt>
      <trkpt lat="47.23399" lon="6.07351">
        <ele>467.946821</ele>
        <time>2020-10-11T12:07:34.646Z</time>
      </trkpt>
      <trkpt lat="47.23398" lon="6.07369">
        <ele>469.305585</ele>
        <time>2020-10-11T12:07:43.783Z</time>
      </trkpt>
      <trkpt lat="47.23397" lon="6.07398">
        <ele>471.149715</ele>
        <time>2020-10-11T12:08:03.026Z</time>
      </trkpt>
      <trkpt lat="47.23396" lon="6.07409">
        <ele>471.718232</ele>
        <time>2020-10-11T12:08:09.656Z</time>
      </trkpt>
      <trkpt lat="47.23392" lon="6.07464">
        <ele>474.542424</ele>
        <time>2020-10-11T12:08:39.947Z</time>
      </trkpt>
      <trkpt lat="47.2339" lon="6.07467">
        <ele>474.803784</ele>
        <time>2020-10-11T12:08:42.802Z</time>
      </trkpt>
      <trkpt lat="47.23394" lon="6.07495">
        <ele>476.304728</ele>
        <time>2020-10-11T12:08:56.224Z</time>
      </trkpt>
      <trkpt lat="47.23394" lon="6.07534">
        <ele>478.285302</ele>
        <time>2020-10-11T12:09:11.017Z</time>
      </trkpt>
      <trkpt lat="47.23383" lon="6.07592">
        <ele>481.372128</ele>
        <time>2020-10-11T12:09:34.903Z</time>
      </trkpt>
      <trkpt lat="47.23381" lon="6.07604">
        <ele>482.016063</ele>
        <time>2020-10-11T12:09:38.979Z</time>
      </trkpt>
      <trkpt lat="47.23379" lon="6.07618">
        <ele>482.729846</ele>
        <time>2020-10-11T12:09:43.407Z</time>
      </trkpt>
      <trkpt lat="47.23378" lon="6.07631">
        <ele>483.396201</ele>
        <time>2020-10-11T12:09:46.987Z</time>
      </trkpt>
      <trkpt lat="47.23377" lon="6.0764">
        <ele>483.837358</ele>
        <time>2020-10-11T12:09:48.584Z</time>
      </trkpt>
      <trkpt lat="47.23376" lon="6.07671">
        <ele>484.987223</ele>
        <time>2020-10-11T12:09:57.429Z</time>
      </trkpt>
      <trkpt lat="47.23375" lon="6.07674">
        <ele>485.086915</ele>
        <time>2020-10-11T12:09:58.725Z</time>
      </trkpt>
      <trkpt lat="47.23375" lon="6.07676">
        <ele>485.181301</ele>
        <time>2020-10-11T12:09:59.434Z</time>
      </trkpt>
      <trkpt lat="47.23375" lon="6.07679">
        <ele>485.283552</ele>
        <time>2020-10-11T12:10:00.088Z</time>
      </trkpt>
      <trkpt lat="47.23377" lon="6.07684">
        <ele>485.480514</ele>
        <time>2020-10-11T12:10:01.373Z</time>
      </trkpt>
      <trkpt lat="47.23379" lon="6.07685">
        <ele>485.583986</ele>
        <time>2020-10-11T12:10:01.962Z</time>
      </trkpt>
      <trkpt lat="47.23381" lon="6.07686">
        <ele>485.68652</ele>
        <time>2020-10-11T12:10:02.603Z</time>
      </trkpt>
      <trkpt lat="47.23383" lon="6.07685">
        <ele>485.787713</ele>
        <time>2020-10-11T12:10:03.225Z</time>
      </trkpt>
      <trkpt lat="47.23384" lon="6.07684">
        <ele>485.892678</ele>
        <time>2020-10-11T12:10:04.023Z</time>
      </trkpt>
      <trkpt lat="47.23397" lon="6.07688">
        <ele>486.562631</ele>
        <time>2020-10-11T12:10:10.713Z</time>
      </trkpt>
      <trkpt lat="47.23412" lon="6.07695">
        <ele>487.403468</ele>
        <time>2020-10-11T12:10:18.294Z</time>
      </trkpt>
      <trkpt lat="47.23426" lon="6.07703">
        <ele>488.193214</ele>
        <time>2020-10-11T12:10:24.478Z</time>
      </trkpt>
      <trkpt lat="47.2343" lon="6.07706">
        <ele>488.476523</ele>
        <time>2020-10-11T12:10:27.615Z</time>
      </trkpt>
      <trkpt lat="47.23439" lon="6.07711">
        <ele>488.948</ele>
        <time>2020-10-11T12:10:33.002Z</time>
      </trkpt>
      <trkpt lat="47.23481" lon="6.07747">
        <ele>491.537969</ele>
        <time>2020-10-11T12:10:57.930Z</time>
      </trkpt>
      <trkpt lat="47.23493" lon="6.07757">
        <ele>492.291423</ele>
        <time>2020-10-11T12:11:07.881Z</time>
      </trkpt>
      <trkpt lat="47.23515" lon="6.0777">
        <ele>493.503742</ele>
        <time>2020-10-11T12:11:19.078Z</time>
      </trkpt>
      <trkpt lat="47.23525" lon="6.07776">
        <ele>493.954467</ele>
        <time>2020-10-11T12:11:26.677Z</time>
      </trkpt>
      <trkpt lat="47.23525" lon="6.07785">
        <ele>494.21528</ele>
        <time>2020-10-11T12:11:32.728Z</time>
      </trkpt>
      <trkpt lat="47.23535" lon="6.07863">
        <ele>496.425107</ele>
        <time>2020-10-11T12:12:01.211Z</time>
      </trkpt>
      <trkpt lat="47.23536" lon="6.07869">
        <ele>496.59355</ele>
        <time>2020-10-11T12:12:05.682Z</time>
      </trkpt>
      <trkpt lat="47.23526" lon="6.07881">
        <ele>497.130689</ele>
        <time>2020-10-11T12:12:13.870Z</time>
      </trkpt>
      <trkpt lat="47.23506" lon="6.07913">
        <ele>498.341696</ele>
        <time>2020-10-11T12:12:28.245Z</time>
      </trkpt>
      <trkpt lat="47.23505" lon="6.07973">
        <ele>500.014735</ele>
        <time>2020-10-11T12:12:47.438Z</time>
      </trkpt>
      <trkpt lat="47.23507" lon="6.07986">
        <ele>500.397292</ele>
        <time>2020-10-11T12:12:51.374Z</time>
      </trkpt>
      <trkpt lat="47.23498" lon="6.07994">
        <ele>500.757154</ele>
        <time>2020-10-11T12:12:53.692Z</time>
      </trkpt>
      <trkpt lat="47.23494" lon="6.08011">
        <ele>500.475525</ele>
        <time>2020-10-11T12:12:58.352Z</time>
      </trkpt>
      <trkpt lat="47.23487" lon="6.08061">
        <ele>499.64782</ele>
        <time>2020-10-11T12:13:07.529Z</time>
      </trkpt>
      <trkpt lat="47.2349" lon="6.08079">
        <ele>499.344744</ele>
        <time>2020-10-11T12:13:10.619Z</time>
      </trkpt>
      <trkpt lat="47.23506" lon="6.08111">
        <ele>498.699332</ele>
        <time>2020-10-11T12:13:16.155Z</time>
      </trkpt>
      <trkpt lat="47.23512" lon="6.08113">
        <ele>498.550619</ele>
        <time>2020-10-11T12:13:17.528Z</time>
      </trkpt>
      <trkpt lat="47.23512" lon="6.08122">
        <ele>498.412552</ele>
        <time>2020-10-11T12:13:18.437Z</time>
      </trkpt>
      <trkpt lat="47.23519" lon="6.08157">
        <ele>497.826378</ele>
        <time>2020-10-11T12:13:21.734Z</time>
      </trkpt>
      <trkpt lat="47.23537" lon="6.08236">
        <ele>496.430061</ele>
        <time>2020-10-11T12:13:29.620Z</time>
      </trkpt>
      <trkpt lat="47.23558" lon="6.08303">
        <ele>493.518171</ele>
        <time>2020-10-11T12:13:36.140Z</time>
      </trkpt>
      <trkpt lat="47.23564" lon="6.08329">
        <ele>492.453669</ele>
        <time>2020-10-11T12:13:38.564Z</time>
      </trkpt>
      <trkpt lat="47.23565" lon="6.08345">
        <ele>491.818325</ele>
        <time>2020-10-11T12:13:39.894Z</time>
      </trkpt>
      <trkpt lat="47.23562" lon="6.08398">
        <ele>489.76169</ele>
        <time>2020-10-11T12:13:44.502Z</time>
      </trkpt>
      <trkpt lat="47.23552" lon="6.08434">
        <ele>488.201036</ele>
        <time>2020-10-11T12:13:48.169Z</time>
      </trkpt>
      <trkpt lat="47.23551" lon="6.08439">
        <ele>488.012124</ele>
        <time>2020-10-11T12:13:48.565Z</time>
      </trkpt>
      <trkpt lat="47.23544" lon="6.0845">
        <ele>487.447624</ele>
        <time>2020-10-11T12:13:49.763Z</time>
      </trkpt>
      <trkpt lat="47.23523" lon="6.08469">
        <ele>485.96035</ele>
        <time>2020-10-11T12:13:53.138Z</time>
      </trkpt>
      <trkpt lat="47.23514" lon="6.0847">
        <ele>485.233799</ele>
        <time>2020-10-11T12:13:54.185Z</time>
      </trkpt>
      <trkpt lat="47.23514" lon="6.0849">
        <ele>484.139751</ele>
        <time>2020-10-11T12:13:56.068Z</time>
      </trkpt>
      <trkpt lat="47.23507" lon="6.08491">
        <ele>483.617148</ele>
        <time>2020-10-11T12:13:56.873Z</time>
      </trkpt>
      <trkpt lat="47.23501" lon="6.08501">
        <ele>482.841415</ele>
        <time>2020-10-11T12:13:58.064Z</time>
      </trkpt>
      <trkpt lat="47.235" lon="6.08514">
        <ele>482.093563</ele>
        <time>2020-10-11T12:13:59.167Z</time>
      </trkpt>
      <trkpt lat="47.23506" lon="6.0859">
        <ele>477.843327</ele>
        <time>2020-10-11T12:14:05.692Z</time>
      </trkpt>
      <trkpt lat="47.23505" lon="6.08654">
        <ele>474.26672</ele>
        <time>2020-10-11T12:14:11.055Z</time>
      </trkpt>
      <trkpt lat="47.23502" lon="6.08664">
        <ele>473.615578</ele>
        <time>2020-10-11T12:14:12.022Z</time>
      </trkpt>
      <trkpt lat="47.23498" lon="6.08673">
        <ele>473.070094</ele>
        <time>2020-10-11T12:14:12.857Z</time>
      </trkpt>
      <trkpt lat="47.23495" lon="6.08677">
        <ele>472.685778</ele>
        <time>2020-10-11T12:14:13.403Z</time>
      </trkpt>
      <trkpt lat="47.23484" lon="6.08692">
        <ele>471.477679</ele>
        <time>2020-10-11T12:14:15.147Z</time>
      </trkpt>
      <trkpt lat="47.23482" lon="6.08692">
        <ele>471.343312</ele>
        <time>2020-10-11T12:14:15.355Z</time>
      </trkpt>
      <trkpt lat="47.23465" lon="6.08697">
        <ele>468.979804</ele>
        <time>2020-10-11T12:14:17.519Z</time>
      </trkpt>
      <trkpt lat="47.23454" lon="6.087">
        <ele>467.505079</ele>
        <time>2020-10-11T12:14:18.782Z</time>
      </trkpt>
      <trkpt lat="47.23395" lon="6.08713">
        <ele>459.555161</ele>
        <time>2020-10-11T12:14:25.879Z</time>
      </trkpt>
      <trkpt lat="47.23386" lon="6.08717">
        <ele>458.357501</ele>
        <time>2020-10-11T12:14:26.905Z</time>
      </trkpt>
      <trkpt lat="47.23366" lon="6.08728">
        <ele>455.505624</ele>
        <time>2020-10-11T12:14:29.461Z</time>
      </trkpt>
      <trkpt lat="47.23353" lon="6.08736">
        <ele>453.623126</ele>
        <time>2020-10-11T12:14:31.084Z</time>
      </trkpt>
      <trkpt lat="47.23343" lon="6.08748">
        <ele>451.838482</ele>
        <time>2020-10-11T12:14:32.668Z</time>
      </trkpt>
      <trkpt lat="47.23331" lon="6.08771">
        <ele>449.29053</ele>
        <time>2020-10-11T12:14:34.903Z</time>
      </trkpt>
      <trkpt lat="47.2333" lon="6.08774">
        <ele>448.959334</ele>
        <time>2020-10-11T12:14:35.196Z</time>
      </trkpt>
      <trkpt lat="47.2333" lon="6.08779">
        <ele>448.478012</ele>
        <time>2020-10-11T12:14:35.611Z</time>
      </trkpt>
      <trkpt lat="47.23326" lon="6.08815">
        <ele>445.22079</ele>
        <time>2020-10-11T12:14:38.578Z</time>
      </trkpt>
      <trkpt lat="47.23332" lon="6.08907">
        <ele>437.058285</ele>
        <time>2020-10-11T12:14:45.861Z</time>
      </trkpt>
      <trkpt lat="47.23343" lon="6.08972">
        <ele>431.126265</ele>
        <time>2020-10-11T12:14:51.208Z</time>
      </trkpt>
      <trkpt lat="47.23373" lon="6.09071">
        <ele>422.349213</ele>
        <time>2020-10-11T12:15:00.047Z</time>
      </trkpt>
      <trkpt lat="47.23378" lon="6.09088">
        <ele>421.231499</ele>
        <time>2020-10-11T12:15:01.629Z</time>
      </trkpt>
      <trkpt lat="47.2342" lon="6.0924">
        <ele>411.647869</ele>
        <time>2020-10-11T12:15:15.335Z</time>
      </trkpt>
      <trkpt lat="47.23474" lon="6.09343">
        <ele>405.574903</ele>
        <time>2020-10-11T12:15:26.345Z</time>
      </trkpt>
      <trkpt lat="47.23483" lon="6.0939">
        <ele>403.720591</ele>
        <time>2020-10-11T12:15:30.710Z</time>
      </trkpt>
      <trkpt lat="47.23483" lon="6.09391">
        <ele>403.682813</ele>
        <time>2020-10-11T12:15:30.790Z</time>
      </trkpt>
      <trkpt lat="47.23482" lon="6.09408">
        <ele>403.050355</ele>
        <time>2020-10-11T12:15:32.311Z</time>
      </trkpt>
      <trkpt lat="47.23478" lon="6.09419">
        <ele>402.566339</ele>
        <time>2020-10-11T12:15:33.465Z</time>
      </trkpt>
      <trkpt lat="47.23477" lon="6.09422">
        <ele>402.45944</ele>
        <time>2020-10-11T12:15:33.703Z</time>
      </trkpt>
      <trkpt lat="47.23472" lon="6.0943">
        <ele>402.042877</ele>
        <time>2020-10-11T12:15:34.730Z</time>
      </trkpt>
      <trkpt lat="47.23465" lon="6.0943">
        <ele>401.631157</ele>
        <time>2020-10-11T12:15:35.689Z</time>
      </trkpt>
      <trkpt lat="47.23459" lon="6.09434">
        <ele>401.279859</ele>
        <time>2020-10-11T12:15:36.534Z</time>
      </trkpt>
      <trkpt lat="47.23455" lon="6.09441">
        <ele>400.936305</ele>
        <time>2020-10-11T12:15:37.392Z</time>
      </trkpt>
      <trkpt lat="47.23453" lon="6.09448">
        <ele>400.637428</ele>
        <time>2020-10-11T12:15:38.126Z</time>
      </trkpt>
      <trkpt lat="47.23453" lon="6.09456">
        <ele>400.338981</ele>
        <time>2020-10-11T12:15:38.836Z</time>
      </trkpt>
      <trkpt lat="47.23454" lon="6.09462">
        <ele>400.122376</ele>
        <time>2020-10-11T12:15:39.374Z</time>
      </trkpt>
      <trkpt lat="47.23458" lon="6.0947">
        <ele>399.747248</ele>
        <time>2020-10-11T12:15:40.340Z</time>
      </trkpt>
      <trkpt lat="47.23464" lon="6.09475">
        <ele>399.370388</ele>
        <time>2020-10-11T12:15:41.212Z</time>
      </trkpt>
      <trkpt lat="47.23469" lon="6.09476">
        <ele>399.078615</ele>
        <time>2020-10-11T12:15:41.968Z</time>
      </trkpt>
      <trkpt lat="47.23479" lon="6.09488">
        <ele>398.373324</ele>
        <time>2020-10-11T12:15:43.745Z</time>
      </trkpt>
      <trkpt lat="47.23489" lon="6.09509">
        <ele>398.040614</ele>
        <time>2020-10-11T12:15:46.138Z</time>
      </trkpt>
      <trkpt lat="47.23515" lon="6.09605">
        <ele>396.702024</ele>
        <time>2020-10-11T12:15:56.213Z</time>
      </trkpt>
      <trkpt lat="47.23522" lon="6.09627">
        <ele>396.382923</ele>
        <time>2020-10-11T12:15:59.059Z</time>
      </trkpt>
      <trkpt lat="47.23541" lon="6.09719">
        <ele>395.135945</ele>
        <time>2020-10-11T12:16:12.049Z</time>
      </trkpt>
      <trkpt lat="47.23543" lon="6.09729">
        <ele>394.997134</ele>
        <time>2020-10-11T12:16:13.395Z</time>
      </trkpt>
      <trkpt lat="47.23607" lon="6.10032">
        <ele>393.720353</ele>
        <time>2020-10-11T12:16:52.999Z</time>
      </trkpt>
      <trkpt lat="47.237" lon="6.10477">
        <ele>391.007772</ele>
        <time>2020-10-11T12:17:48.910Z</time>
      </trkpt>
      <trkpt lat="47.23702" lon="6.10489">
        <ele>390.924296</ele>
        <time>2020-10-11T12:17:50.151Z</time>
      </trkpt>
      <trkpt lat="47.23834" lon="6.11198">
        <ele>382.901911</ele>
        <time>2020-10-11T12:19:08.576Z</time>
      </trkpt>
      <trkpt lat="47.23845" lon="6.11259">
        <ele>382.379624</ele>
        <time>2020-10-11T12:19:17.340Z</time>
      </trkpt>
      <trkpt lat="47.23892" lon="6.11525">
        <ele>383.422155</ele>
        <time>2020-10-11T12:20:03.885Z</time>
      </trkpt>
      <trkpt lat="47.23959" lon="6.11881">
        <ele>384.98383</ele>
        <time>2020-10-11T12:21:02.437Z</time>
      </trkpt>
      <trkpt lat="47.24017" lon="6.12209">
        <ele>387.683471</ele>
        <time>2020-10-11T12:22:06.989Z</time>
      </trkpt>
      <trkpt lat="47.2402" lon="6.12242">
        <ele>387.997837</ele>
        <time>2020-10-11T12:22:14.004Z</time>
      </trkpt>
      <trkpt lat="47.24033" lon="6.12313">
        <ele>388.691473</ele>
        <time>2020-10-11T12:22:28.353Z</time>
      </trkpt>
      <trkpt lat="47.24034" lon="6.12324">
        <ele>388.800256</ele>
        <time>2020-10-11T12:22:30.730Z</time>
      </trkpt>
      <trkpt lat="47.24036" lon="6.12336">
        <ele>388.921449</ele>
        <time>2020-10-11T12:22:33.057Z</time>
      </trkpt>
      <trkpt lat="47.24031" lon="6.12343">
        <ele>389.020244</ele>
        <time>2020-10-11T12:22:35.118Z</time>
      </trkpt>
      <trkpt lat="47.24029" lon="6.12353">
        <ele>389.119116</ele>
        <time>2020-10-11T12:22:36.910Z</time>
      </trkpt>
      <trkpt lat="47.2403" lon="6.12363">
        <ele>389.218521</ele>
        <time>2020-10-11T12:22:39.044Z</time>
      </trkpt>
      <trkpt lat="47.24033" lon="6.1237">
        <ele>389.306554</ele>
        <time>2020-10-11T12:22:40.967Z</time>
      </trkpt>
      <trkpt lat="47.24038" lon="6.12375">
        <ele>389.395811</ele>
        <time>2020-10-11T12:22:42.667Z</time>
      </trkpt>
      <trkpt lat="47.24045" lon="6.12389">
        <ele>389.567977</ele>
        <time>2020-10-11T12:22:46.094Z</time>
      </trkpt>
      <trkpt lat="47.24049" lon="6.12403">
        <ele>389.70699</ele>
        <time>2020-10-11T12:22:48.856Z</time>
      </trkpt>
      <trkpt lat="47.24066" lon="6.12488">
        <ele>390.571713</ele>
        <time>2020-10-11T12:23:06.308Z</time>
      </trkpt>
      <trkpt lat="47.24074" lon="6.12522">
        <ele>390.928407</ele>
        <time>2020-10-11T12:23:13.570Z</time>
      </trkpt>
      <trkpt lat="47.24092" lon="6.12617">
        <ele>392.013041</ele>
        <time>2020-10-11T12:23:32.268Z</time>
      </trkpt>
      <trkpt lat="47.24134" lon="6.12849">
        <ele>395.117902</ele>
        <time>2020-10-11T12:24:22.260Z</time>
      </trkpt>
      <trkpt lat="47.24148" lon="6.12932">
        <ele>396.640965</ele>
        <time>2020-10-11T12:24:42.126Z</time>
      </trkpt>
      <trkpt lat="47.24197" lon="6.13206">
        <ele>402.570889</ele>
        <time>2020-10-11T12:25:57.960Z</time>
      </trkpt>
      <trkpt lat="47.24202" lon="6.13236">
        <ele>403.278958</ele>
        <time>2020-10-11T12:26:07.017Z</time>
      </trkpt>
      <trkpt lat="47.24239" lon="6.13429">
        <ele>407.395361</ele>
        <time>2020-10-11T12:27:00.954Z</time>
      </trkpt>
      <trkpt lat="47.24259" lon="6.13533">
        <ele>409.492909</ele>
        <time>2020-10-11T12:27:26.540Z</time>
      </trkpt>
      <trkpt lat="47.24279" lon="6.13642">
        <ele>411.034134</ele>
        <time>2020-10-11T12:27:50.752Z</time>
      </trkpt>
      <trkpt lat="47.24283" lon="6.137">
        <ele>411.757728</ele>
        <time>2020-10-11T12:28:02.437Z</time>
      </trkpt>
      <trkpt lat="47.24283" lon="6.13892">
        <ele>414.159019</ele>
        <time>2020-10-11T12:28:42.568Z</time>
      </trkpt>
      <trkpt lat="47.24282" lon="6.13998">
        <ele>415.484218</ele>
        <time>2020-10-11T12:29:05.913Z</time>
      </trkpt>
      <trkpt lat="47.24281" lon="6.14246">
        <ele>417.507499</ele>
        <time>2020-10-11T12:29:56.487Z</time>
      </trkpt>
      <trkpt lat="47.24274" lon="6.14666">
        <ele>416.981212</ele>
        <time>2020-10-11T12:30:50.341Z</time>
      </trkpt>
      <trkpt lat="47.2427" lon="6.14849">
        <ele>415.895878</ele>
        <time>2020-10-11T12:31:11.712Z</time>
      </trkpt>
      <trkpt lat="47.2427" lon="6.14867">
        <ele>415.787233</ele>
        <time>2020-10-11T12:31:13.748Z</time>
      </trkpt>
      <trkpt lat="47.24322" lon="6.15423">
        <ele>411.434248</ele>
        <time>2020-10-11T12:32:17.861Z</time>
      </trkpt>
      <trkpt lat="47.24325" lon="6.15461">
        <ele>411.188852</ele>
        <time>2020-10-11T12:32:22.243Z</time>
      </trkpt>
      <trkpt lat="47.24325" lon="6.15465">
        <ele>411.16698</ele>
        <time>2020-10-11T12:32:22.575Z</time>
      </trkpt>
      <trkpt lat="47.2436" lon="6.16374">
        <ele>405.813466</ele>
        <time>2020-10-11T12:34:10.097Z</time>
      </trkpt>
      <trkpt lat="47.24367" lon="6.16534">
        <ele>405.720438</ele>
        <time>2020-10-11T12:34:33.260Z</time>
      </trkpt>
      <trkpt lat="47.24392" lon="6.17204">
        <ele>408.448244</ele>
        <time>2020-10-11T12:36:20.627Z</time>
      </trkpt>
      <trkpt lat="47.24397" lon="6.17361">
        <ele>410.8463</ele>
        <time>2020-10-11T12:36:59.193Z</time>
      </trkpt>
      <trkpt lat="47.24398" lon="6.17371">
        <ele>411.03238</ele>
        <time>2020-10-11T12:37:01.901Z</time>
      </trkpt>
      <trkpt lat="47.24407" lon="6.17608">
        <ele>414.328845</ele>
        <time>2020-10-11T12:38:01.971Z</time>
      </trkpt>
      <trkpt lat="47.24411" lon="6.17694">
        <ele>414.926854</ele>
        <time>2020-10-11T12:38:16.291Z</time>
      </trkpt>
      <trkpt lat="47.24412" lon="6.17713">
        <ele>415.054684</ele>
        <time>2020-10-11T12:38:18.935Z</time>
      </trkpt>
      <trkpt lat="47.24413" lon="6.17743">
        <ele>415.268081</ele>
        <time>2020-10-11T12:38:23.104Z</time>
      </trkpt>
      <trkpt lat="47.24415" lon="6.17788">
        <ele>415.35838</ele>
        <time>2020-10-11T12:38:28.712Z</time>
      </trkpt>
      <trkpt lat="47.24416" lon="6.17808">
        <ele>415.107448</ele>
        <time>2020-10-11T12:38:30.949Z</time>
      </trkpt>
      <trkpt lat="47.24424" lon="6.1786">
        <ele>414.438758</ele>
        <time>2020-10-11T12:38:36.513Z</time>
      </trkpt>
      <trkpt lat="47.24469" lon="6.18">
        <ele>412.487172</ele>
        <time>2020-10-11T12:38:52.133Z</time>
      </trkpt>
      <trkpt lat="47.24472" lon="6.18022">
        <ele>412.207873</ele>
        <time>2020-10-11T12:38:54.313Z</time>
      </trkpt>
      <trkpt lat="47.24474" lon="6.18039">
        <ele>412.181157</ele>
        <time>2020-10-11T12:38:56.172Z</time>
      </trkpt>
      <trkpt lat="47.24475" lon="6.1806">
        <ele>412.206606</ele>
        <time>2020-10-11T12:38:58.416Z</time>
      </trkpt>
      <trkpt lat="47.24476" lon="6.18093">
        <ele>412.2471</ele>
        <time>2020-10-11T12:39:02.343Z</time>
      </trkpt>
      <trkpt lat="47.24477" lon="6.18215">
        <ele>412.396366</ele>
        <time>2020-10-11T12:39:21.420Z</time>
      </trkpt>
      <trkpt lat="47.24477" lon="6.18278">
        <ele>412.473133</ele>
        <time>2020-10-11T12:39:33.842Z</time>
      </trkpt>
      <trkpt lat="47.24481" lon="6.18305">
        <ele>412.729713</ele>
        <time>2020-10-11T12:39:40.036Z</time>
      </trkpt>
      <trkpt lat="47.24493" lon="6.18323">
        <ele>413.10724</ele>
        <time>2020-10-11T12:39:45.581Z</time>
      </trkpt>
      <trkpt lat="47.24499" lon="6.18327">
        <ele>413.261052</ele>
        <time>2020-10-11T12:39:48.050Z</time>
      </trkpt>
      <trkpt lat="47.24509" lon="6.18333">
        <ele>413.500786</ele>
        <time>2020-10-11T12:39:51.560Z</time>
      </trkpt>
      <trkpt lat="47.24531" lon="6.1835">
        <ele>414.073732</ele>
        <time>2020-10-11T12:40:00.182Z</time>
      </trkpt>
      <trkpt lat="47.24554" lon="6.18374">
        <ele>414.700202</ele>
        <time>2020-10-11T12:40:09.506Z</time>
      </trkpt>
      <trkpt lat="47.24556" lon="6.18378">
        <ele>414.775815</ele>
        <time>2020-10-11T12:40:11.228Z</time>
      </trkpt>
      <trkpt lat="47.24562" lon="6.18394">
        <ele>415.065277</ele>
        <time>2020-10-11T12:40:15.530Z</time>
      </trkpt>
      <trkpt lat="47.2457" lon="6.18428">
        <ele>415.602878</ele>
        <time>2020-10-11T12:40:24.154Z</time>
      </trkpt>
      <trkpt lat="47.24572" lon="6.1844">
        <ele>415.783988</ele>
        <time>2020-10-11T12:40:27.051Z</time>
      </trkpt>
      <trkpt lat="47.24577" lon="6.18471">
        <ele>416.276361</ele>
        <time>2020-10-11T12:40:34.228Z</time>
      </trkpt>
      <trkpt lat="47.24577" lon="6.18481">
        <ele>416.434669</ele>
        <time>2020-10-11T12:40:36.990Z</time>
      </trkpt>
      <trkpt lat="47.24576" lon="6.18501">
        <ele>416.766768</ele>
        <time>2020-10-11T12:40:41.248Z</time>
      </trkpt>
      <trkpt lat="47.24574" lon="6.18521">
        <ele>417.148749</ele>
        <time>2020-10-11T12:40:45.430Z</time>
      </trkpt>
      <trkpt lat="47.24571" lon="6.18538">
        <ele>417.453448</ele>
        <time>2020-10-11T12:40:49.737Z</time>
      </trkpt>
      <trkpt lat="47.24567" lon="6.18562">
        <ele>417.906296</ele>
        <time>2020-10-11T12:40:54.485Z</time>
      </trkpt>
      <trkpt lat="47.24555" lon="6.18635">
        <ele>419.269207</ele>
        <time>2020-10-11T12:41:10.970Z</time>
      </trkpt>
      <trkpt lat="47.24554" lon="6.1864">
        <ele>419.371866</ele>
        <time>2020-10-11T12:41:12.530Z</time>
      </trkpt>
      <trkpt lat="47.24545" lon="6.18695">
        <ele>420.392041</ele>
        <time>2020-10-11T12:41:26.416Z</time>
      </trkpt>
      <trkpt lat="47.24541" lon="6.18719">
        <ele>420.834547</ele>
        <time>2020-10-11T12:41:32.767Z</time>
      </trkpt>
      <trkpt lat="47.24535" lon="6.18759">
        <ele>421.777536</ele>
        <time>2020-10-11T12:41:44.383Z</time>
      </trkpt>
      <trkpt lat="47.2453" lon="6.18788">
        <ele>422.744548</ele>
        <time>2020-10-11T12:41:53.413Z</time>
      </trkpt>
      <trkpt lat="47.24522" lon="6.18842">
        <ele>424.488064</ele>
        <time>2020-10-11T12:42:11.088Z</time>
      </trkpt>
      <trkpt lat="47.24516" lon="6.18879">
        <ele>425.696673</ele>
        <time>2020-10-11T12:42:23.925Z</time>
      </trkpt>
      <trkpt lat="47.2451" lon="6.18934">
        <ele>427.479688</ele>
        <time>2020-10-11T12:42:42.635Z</time>
      </trkpt>
      <trkpt lat="47.24515" lon="6.18977">
        <ele>428.852509</ele>
        <time>2020-10-11T12:42:57.471Z</time>
      </trkpt>
      <trkpt lat="47.2452" lon="6.19005">
        <ele>429.780555</ele>
        <time>2020-10-11T12:43:07.111Z</time>
      </trkpt>
      <trkpt lat="47.24521" lon="6.19014">
        <ele>430.024713</ele>
        <time>2020-10-11T12:43:10.704Z</time>
      </trkpt>
      <trkpt lat="47.24535" lon="6.19067">
        <ele>431.534683</ele>
        <time>2020-10-11T12:43:29.585Z</time>
      </trkpt>
      <trkpt lat="47.24537" lon="6.19074">
        <ele>431.73897</ele>
        <time>2020-10-11T12:43:32.104Z</time>
      </trkpt>
      <trkpt lat="47.24639" lon="6.1947">
        <ele>441.303272</ele>
        <time>2020-10-11T12:45:26.562Z</time>
      </trkpt>
      <trkpt lat="47.2465" lon="6.1952">
        <ele>441.926046</ele>
        <time>2020-10-11T12:45:35.122Z</time>
      </trkpt>
      <trkpt lat="47.24654" lon="6.19566">
        <ele>441.90843</ele>
        <time>2020-10-11T12:45:42.645Z</time>
      </trkpt>
      <trkpt lat="47.24652" lon="6.19613">
        <ele>441.890227</ele>
        <time>2020-10-11T12:45:49.465Z</time>
      </trkpt>
      <trkpt lat="47.24642" lon="6.19675">
        <ele>441.866183</ele>
        <time>2020-10-11T12:45:57.539Z</time>
      </trkpt>
      <trkpt lat="47.24638" lon="6.19732">
        <ele>441.844016</ele>
        <time>2020-10-11T12:46:04.247Z</time>
      </trkpt>
      <trkpt lat="47.24638" lon="6.19775">
        <ele>441.74831</ele>
        <time>2020-10-11T12:46:09.329Z</time>
      </trkpt>
      <trkpt lat="47.24704" lon="6.20234">
        <ele>438.338799</ele>
        <time>2020-10-11T12:47:04.284Z</time>
      </trkpt>
      <trkpt lat="47.248" lon="6.21155">
        <ele>427.873512</ele>
        <time>2020-10-11T12:48:43.687Z</time>
      </trkpt>
      <trkpt lat="47.24854" lon="6.21704">
        <ele>424.928015</ele>
        <time>2020-10-11T12:49:52.287Z</time>
      </trkpt>
      <trkpt lat="47.24853" lon="6.21802">
        <ele>424.440727</ele>
        <time>2020-10-11T12:50:04.042Z</time>
      </trkpt>
      <trkpt lat="47.24846" lon="6.2243">
        <ele>420.038987</ele>
        <time>2020-10-11T12:51:18.594Z</time>
      </trkpt>
      <trkpt lat="47.24836" lon="6.22509">
        <ele>418.597141</ele>
        <time>2020-10-11T12:51:26.412Z</time>
      </trkpt>
      <trkpt lat="47.24751" lon="6.22844">
        <ele>413.076757</ele>
        <time>2020-10-11T12:52:01.057Z</time>
      </trkpt>
      <trkpt lat="47.24716" lon="6.22984">
        <ele>414.752592</ele>
        <time>2020-10-11T12:52:31.677Z</time>
      </trkpt>
      <trkpt lat="47.24711" lon="6.23004">
        <ele>415.227165</ele>
        <time>2020-10-11T12:52:38.186Z</time>
      </trkpt>
      <trkpt lat="47.2467" lon="6.23172">
        <ele>419.779368</ele>
        <time>2020-10-11T12:53:36.258Z</time>
      </trkpt>
      <trkpt lat="47.2466" lon="6.23214">
        <ele>421.356669</ele>
        <time>2020-10-11T12:53:51.824Z</time>
      </trkpt>
      <trkpt lat="47.24656" lon="6.2323">
        <ele>421.95626</ele>
        <time>2020-10-11T12:53:57.293Z</time>
      </trkpt>
      <trkpt lat="47.24653" lon="6.23242">
        <ele>422.401812</ele>
        <time>2020-10-11T12:54:01.305Z</time>
      </trkpt>
      <trkpt lat="47.24619" lon="6.23376">
        <ele>427.46174</ele>
        <time>2020-10-11T12:54:50.551Z</time>
      </trkpt>
      <trkpt lat="47.24615" lon="6.23398">
        <ele>428.231516</ele>
        <time>2020-10-11T12:54:58.068Z</time>
      </trkpt>
      <trkpt lat="47.24612" lon="6.2341">
        <ele>428.649334</ele>
        <time>2020-10-11T12:55:03.308Z</time>
      </trkpt>
      <trkpt lat="47.24608" lon="6.23462">
        <ele>430.351538</ele>
        <time>2020-10-11T12:55:21.874Z</time>
      </trkpt>
      <trkpt lat="47.24605" lon="6.23595">
        <ele>434.662263</ele>
        <time>2020-10-11T12:56:05.435Z</time>
      </trkpt>
      <trkpt lat="47.24603" lon="6.23665">
        <ele>436.631649</ele>
        <time>2020-10-11T12:56:26.320Z</time>
      </trkpt>
      <trkpt lat="47.24602" lon="6.23698">
        <ele>437.078301</ele>
        <time>2020-10-11T12:56:34.945Z</time>
      </trkpt>
      <trkpt lat="47.24602" lon="6.23725">
        <ele>437.454809</ele>
        <time>2020-10-11T12:56:41.397Z</time>
      </trkpt>
      <trkpt lat="47.24601" lon="6.23744">
        <ele>437.71455</ele>
        <time>2020-10-11T12:56:45.981Z</time>
      </trkpt>
      <trkpt lat="47.246" lon="6.23778">
        <ele>438.176531</ele>
        <time>2020-10-11T12:56:53.342Z</time>
      </trkpt>
      <trkpt lat="47.246" lon="6.23801">
        <ele>438.491117</ele>
        <time>2020-10-11T12:56:58.363Z</time>
      </trkpt>
      <trkpt lat="47.246" lon="6.23827">
        <ele>438.856523</ele>
        <time>2020-10-11T12:57:03.527Z</time>
      </trkpt>
      <trkpt lat="47.24598" lon="6.23917">
        <ele>440.052186</ele>
        <time>2020-10-11T12:57:19.478Z</time>
      </trkpt>
      <trkpt lat="47.24598" lon="6.23956">
        <ele>440.08949</ele>
        <time>2020-10-11T12:57:25.169Z</time>
      </trkpt>
      <trkpt lat="47.24594" lon="6.24132">
        <ele>440.259186</ele>
        <time>2020-10-11T12:57:49.869Z</time>
      </trkpt>
      <trkpt lat="47.24592" lon="6.24285">
        <ele>440.75658</ele>
        <time>2020-10-11T12:58:11.807Z</time>
      </trkpt>
      <trkpt lat="47.24589" lon="6.24351">
        <ele>441.036048</ele>
        <time>2020-10-11T12:58:22.220Z</time>
      </trkpt>
      <trkpt lat="47.24589" lon="6.24365">
        <ele>441.097293</ele>
        <time>2020-10-11T12:58:24.537Z</time>
      </trkpt>
      <trkpt lat="47.24579" lon="6.24864">
        <ele>446.164161</ele>
        <time>2020-10-11T13:00:03.773Z</time>
      </trkpt>
      <trkpt lat="47.24571" lon="6.25266">
        <ele>452.42469</ele>
        <time>2020-10-11T13:01:39.584Z</time>
      </trkpt>
      <trkpt lat="47.24566" lon="6.25508">
        <ele>455.152749</ele>
        <time>2020-10-11T13:02:30.061Z</time>
      </trkpt>
      <trkpt lat="47.24573" lon="6.25603">
        <ele>454.976721</ele>
        <time>2020-10-11T13:02:43.922Z</time>
      </trkpt>
      <trkpt lat="47.24594" lon="6.25698">
        <ele>454.79031</ele>
        <time>2020-10-11T13:02:56.248Z</time>
      </trkpt>
      <trkpt lat="47.24708" lon="6.26202">
        <ele>451.377398</ele>
        <time>2020-10-11T13:03:57.089Z</time>
      </trkpt>
      <trkpt lat="47.24797" lon="6.26594">
        <ele>450.467298</ele>
        <time>2020-10-11T13:04:50.452Z</time>
      </trkpt>
      <trkpt lat="47.24899" lon="6.27047">
        <ele>452.849027</ele>
        <time>2020-10-11T13:06:11.264Z</time>
      </trkpt>
      <trkpt lat="47.25212" lon="6.28444">
        <ele>472.44685</ele>
        <time>2020-10-11T13:11:34.734Z</time>
      </trkpt>
      <trkpt lat="47.2524" lon="6.28556">
        <ele>473.23263</ele>
        <time>2020-10-11T13:11:56.202Z</time>
      </trkpt>
      <trkpt lat="47.25421" lon="6.29497">
        <ele>468.774209</ele>
        <time>2020-10-11T13:13:53.966Z</time>
      </trkpt>
      <trkpt lat="47.25623" lon="6.30574">
        <ele>464.31771</ele>
        <time>2020-10-11T13:16:13.490Z</time>
      </trkpt>
      <trkpt lat="47.25626" lon="6.30588">
        <ele>464.219404</ele>
        <time>2020-10-11T13:16:15.327Z</time>
      </trkpt>
      <trkpt lat="47.25706" lon="6.31013">
        <ele>460.187495</ele>
        <time>2020-10-11T13:17:06.167Z</time>
      </trkpt>
      <trkpt lat="47.25734" lon="6.31096">
        <ele>458.420198</ele>
        <time>2020-10-11T13:17:15.361Z</time>
      </trkpt>
      <trkpt lat="47.25831" lon="6.31317">
        <ele>448.431453</ele>
        <time>2020-10-11T13:17:38.590Z</time>
      </trkpt>
      <trkpt lat="47.25842" lon="6.31376">
        <ele>444.864292</ele>
        <time>2020-10-11T13:17:43.674Z</time>
      </trkpt>
      <trkpt lat="47.25835" lon="6.31461">
        <ele>439.83713</ele>
        <time>2020-10-11T13:17:50.787Z</time>
      </trkpt>
      <trkpt lat="47.25839" lon="6.31503">
        <ele>437.375084</ele>
        <time>2020-10-11T13:17:54.239Z</time>
      </trkpt>
      <trkpt lat="47.25857" lon="6.31552">
        <ele>434.09387</ele>
        <time>2020-10-11T13:17:58.859Z</time>
      </trkpt>
      <trkpt lat="47.25966" lon="6.31738">
        <ele>420.643098</ele>
        <time>2020-10-11T13:18:19.335Z</time>
      </trkpt>
      <trkpt lat="47.26091" lon="6.31953">
        <ele>412.744862</ele>
        <time>2020-10-11T13:18:45.766Z</time>
      </trkpt>
      <trkpt lat="47.26069" lon="6.32055">
        <ele>412.434239</ele>
        <time>2020-10-11T13:18:58.588Z</time>
      </trkpt>
      <trkpt lat="47.26038" lon="6.32146">
        <ele>412.138538</ele>
        <time>2020-10-11T13:19:13.825Z</time>
      </trkpt>
      <trkpt lat="47.25767" lon="6.32589">
        <ele>416.600346</ele>
        <time>2020-10-11T13:21:04.066Z</time>
      </trkpt>
      <trkpt lat="47.25744" lon="6.32626">
        <ele>417.720467</ele>
        <time>2020-10-11T13:21:15.242Z</time>
      </trkpt>
      <trkpt lat="47.25737" lon="6.32637">
        <ele>418.0391</ele>
        <time>2020-10-11T13:21:18.486Z</time>
      </trkpt>
      <trkpt lat="47.25689" lon="6.32715">
        <ele>420.392127</ele>
        <time>2020-10-11T13:21:45.428Z</time>
      </trkpt>
      <trkpt lat="47.25492" lon="6.33024">
        <ele>434.164692</ele>
        <time>2020-10-11T13:24:08.325Z</time>
      </trkpt>
      <trkpt lat="47.25444" lon="6.33074">
        <ele>437.226753</ele>
        <time>2020-10-11T13:24:39.475Z</time>
      </trkpt>
      <trkpt lat="47.25342" lon="6.33159">
        <ele>442.004759</ele>
        <time>2020-10-11T13:25:36.991Z</time>
      </trkpt>
      <trkpt lat="47.25275" lon="6.33196">
        <ele>443.765544</ele>
        <time>2020-10-11T13:26:01.407Z</time>
      </trkpt>
      <trkpt lat="47.25209" lon="6.33211">
        <ele>445.127046</ele>
        <time>2020-10-11T13:26:18.290Z</time>
      </trkpt>
      <trkpt lat="47.25158" lon="6.33207">
        <ele>444.542599</ele>
        <time>2020-10-11T13:26:27.047Z</time>
      </trkpt>
      <trkpt lat="47.25103" lon="6.33186">
        <ele>443.87985</ele>
        <time>2020-10-11T13:26:36.271Z</time>
      </trkpt>
      <trkpt lat="47.25074" lon="6.33187">
        <ele>443.552108</ele>
        <time>2020-10-11T13:26:40.594Z</time>
      </trkpt>
      <trkpt lat="47.25046" lon="6.33215">
        <ele>443.152703</ele>
        <time>2020-10-11T13:26:45.869Z</time>
      </trkpt>
      <trkpt lat="47.2503" lon="6.33255">
        <ele>443.00672</ele>
        <time>2020-10-11T13:26:50.864Z</time>
      </trkpt>
      <trkpt lat="47.2504" lon="6.3331">
        <ele>442.828885</ele>
        <time>2020-10-11T13:26:57.638Z</time>
      </trkpt>
      <trkpt lat="47.25122" lon="6.33415">
        <ele>442.335631</ele>
        <time>2020-10-11T13:27:18.886Z</time>
      </trkpt>
      <trkpt lat="47.25131" lon="6.33449">
        <ele>442.86437</ele>
        <time>2020-10-11T13:27:25.903Z</time>
      </trkpt>
      <trkpt lat="47.25133" lon="6.33501">
        <ele>443.675434</ele>
        <time>2020-10-11T13:27:36.949Z</time>
      </trkpt>
      <trkpt lat="47.25123" lon="6.3353">
        <ele>444.188646</ele>
        <time>2020-10-11T13:27:44.467Z</time>
      </trkpt>
      <trkpt lat="47.25107" lon="6.33553">
        <ele>444.709741</ele>
        <time>2020-10-11T13:27:52.406Z</time>
      </trkpt>
      <trkpt lat="47.24966" lon="6.33677">
        <ele>449.076781</ele>
        <time>2020-10-11T13:28:56.515Z</time>
      </trkpt>
      <trkpt lat="47.24942" lon="6.33701">
        <ele>449.941418</ele>
        <time>2020-10-11T13:29:07.984Z</time>
      </trkpt>
      <trkpt lat="47.2493" lon="6.33727">
        <ele>450.572793</ele>
        <time>2020-10-11T13:29:16.056Z</time>
      </trkpt>
      <trkpt lat="47.24924" lon="6.33761">
        <ele>451.272494</ele>
        <time>2020-10-11T13:29:24.589Z</time>
      </trkpt>
      <trkpt lat="47.24918" lon="6.339">
        <ele>452.745685</ele>
        <time>2020-10-11T13:29:54.795Z</time>
      </trkpt>
      <trkpt lat="47.24909" lon="6.33938">
        <ele>453.073438</ele>
        <time>2020-10-11T13:30:02.183Z</time>
      </trkpt>
      <trkpt lat="47.24849" lon="6.34087">
        <ele>453.656062</ele>
        <time>2020-10-11T13:30:28.939Z</time>
      </trkpt>
      <trkpt lat="47.24838" lon="6.34153">
        <ele>453.279974</ele>
        <time>2020-10-11T13:30:37.441Z</time>
      </trkpt>
      <trkpt lat="47.24829" lon="6.34258">
        <ele>452.694728</ele>
        <time>2020-10-11T13:30:49.471Z</time>
      </trkpt>
      <trkpt lat="47.24822" lon="6.34288">
        <ele>452.498087</ele>
        <time>2020-10-11T13:30:52.962Z</time>
      </trkpt>
      <trkpt lat="47.24774" lon="6.34397">
        <ele>449.746059</ele>
        <time>2020-10-11T13:31:06.193Z</time>
      </trkpt>
      <trkpt lat="47.2476" lon="6.3445">
        <ele>448.534546</ele>
        <time>2020-10-11T13:31:11.739Z</time>
      </trkpt>
      <trkpt lat="47.24761" lon="6.34472">
        <ele>448.072502</ele>
        <time>2020-10-11T13:31:13.673Z</time>
      </trkpt>
      <trkpt lat="47.24776" lon="6.34517">
        <ele>447.007115</ele>
        <time>2020-10-11T13:31:18.302Z</time>
      </trkpt>
      <trkpt lat="47.24791" lon="6.34539">
        <ele>446.085159</ele>
        <time>2020-10-11T13:31:21.259Z</time>
      </trkpt>
      <trkpt lat="47.24831" lon="6.3457">
        <ele>443.956376</ele>
        <time>2020-10-11T13:31:27.123Z</time>
      </trkpt>
      <trkpt lat="47.24839" lon="6.34577">
        <ele>443.565248</ele>
        <time>2020-10-11T13:31:28.190Z</time>
      </trkpt>
      <trkpt lat="47.24847" lon="6.34585">
        <ele>443.072912</ele>
        <time>2020-10-11T13:31:29.661Z</time>
      </trkpt>
      <trkpt lat="47.24854" lon="6.34592">
        <ele>442.721602</ele>
        <time>2020-10-11T13:31:30.679Z</time>
      </trkpt>
      <trkpt lat="47.24858" lon="6.34597">
        <ele>442.450193</ele>
        <time>2020-10-11T13:31:31.440Z</time>
      </trkpt>
      <trkpt lat="47.24863" lon="6.34603">
        <ele>442.16634</ele>
        <time>2020-10-11T13:31:32.177Z</time>
      </trkpt>
      <trkpt lat="47.24903" lon="6.34675">
        <ele>439.230806</ele>
        <time>2020-10-11T13:31:40.786Z</time>
      </trkpt>
      <trkpt lat="47.24907" lon="6.3468">
        <ele>438.991333</ele>
        <time>2020-10-11T13:31:41.423Z</time>
      </trkpt>
      <trkpt lat="47.24913" lon="6.34686">
        <ele>438.662449</ele>
        <time>2020-10-11T13:31:42.346Z</time>
      </trkpt>
      <trkpt lat="47.24922" lon="6.34694">
        <ele>438.527073</ele>
        <time>2020-10-11T13:31:44.005Z</time>
      </trkpt>
      <trkpt lat="47.24927" lon="6.34697">
        <ele>438.512998</ele>
        <time>2020-10-11T13:31:45.018Z</time>
      </trkpt>
      <trkpt lat="47.24932" lon="6.34699">
        <ele>438.496695</ele>
        <time>2020-10-11T13:31:45.959Z</time>
      </trkpt>
      <trkpt lat="47.24947" lon="6.34704">
        <ele>438.456275</ele>
        <time>2020-10-11T13:31:47.945Z</time>
      </trkpt>
      <trkpt lat="47.24953" lon="6.34707">
        <ele>438.437945</ele>
        <time>2020-10-11T13:31:48.933Z</time>
      </trkpt>
      <trkpt lat="47.24961" lon="6.34711">
        <ele>438.415823</ele>
        <time>2020-10-11T13:31:51.074Z</time>
      </trkpt>
      <trkpt lat="47.25014" lon="6.34774">
        <ele>438.230135</ele>
        <time>2020-10-11T13:32:03.230Z</time>
      </trkpt>
      <trkpt lat="47.25039" lon="6.34805">
        <ele>438.141887</ele>
        <time>2020-10-11T13:32:10.766Z</time>
      </trkpt>
      <trkpt lat="47.25055" lon="6.34828">
        <ele>438.082104</ele>
        <time>2020-10-11T13:32:18.817Z</time>
      </trkpt>
      <trkpt lat="47.25095" lon="6.34934">
        <ele>442.15287</ele>
        <time>2020-10-11T13:32:57.411Z</time>
      </trkpt>
      <trkpt lat="47.2511" lon="6.35028">
        <ele>445.744642</ele>
        <time>2020-10-11T13:33:34.299Z</time>
      </trkpt>
      <trkpt lat="47.25113" lon="6.35058">
        <ele>446.878454</ele>
        <time>2020-10-11T13:33:46.239Z</time>
      </trkpt>
      <trkpt lat="47.25117" lon="6.35104">
        <ele>449.00293</ele>
        <time>2020-10-11T13:34:04.696Z</time>
      </trkpt>
      <trkpt lat="47.2513" lon="6.35189">
        <ele>453.980037</ele>
        <time>2020-10-11T13:34:42.243Z</time>
      </trkpt>
      <trkpt lat="47.25165" lon="6.353">
        <ele>461.113537</ele>
        <time>2020-10-11T13:35:43.750Z</time>
      </trkpt>
      <trkpt lat="47.2518" lon="6.3549">
        <ele>472.553458</ele>
        <time>2020-10-11T13:37:18.673Z</time>
      </trkpt>
      <trkpt lat="47.25169" lon="6.35633">
        <ele>480.856585</ele>
        <time>2020-10-11T13:38:26.199Z</time>
      </trkpt>
      <trkpt lat="47.25182" lon="6.36">
        <ele>495.091238</ele>
        <time>2020-10-11T13:40:51.160Z</time>
      </trkpt>
      <trkpt lat="47.25161" lon="6.36161">
        <ele>497.266677</ele>
        <time>2020-10-11T13:41:18.500Z</time>
      </trkpt>
      <trkpt lat="47.25162" lon="6.36164">
        <ele>497.173547</ele>
        <time>2020-10-11T13:41:22.305Z</time>
      </trkpt>
      <trkpt lat="47.25163" lon="6.36166">
        <ele>497.096137</ele>
        <time>2020-10-11T13:41:22.564Z</time>
      </trkpt>
      <trkpt lat="47.2517" lon="6.36168">
        <ele>496.838295</ele>
        <time>2020-10-11T13:41:23.637Z</time>
      </trkpt>
      <trkpt lat="47.25174" lon="6.36161">
        <ele>496.630293</ele>
        <time>2020-10-11T13:41:24.503Z</time>
      </trkpt>
      <trkpt lat="47.25177" lon="6.36109">
        <ele>495.353976</ele>
        <time>2020-10-11T13:41:29.507Z</time>
      </trkpt>
      <trkpt lat="47.25201" lon="6.36003">
        <ele>492.630843</ele>
        <time>2020-10-11T13:41:39.366Z</time>
      </trkpt>
      <trkpt lat="47.25212" lon="6.35792">
        <ele>489.190911</ele>
        <time>2020-10-11T13:41:58.637Z</time>
      </trkpt>
      <trkpt lat="47.25218" lon="6.3579">
        <ele>489.062006</ele>
        <time>2020-10-11T13:41:59.911Z</time>
      </trkpt>
      <trkpt lat="47.25223" lon="6.35797">
        <ele>488.920236</ele>
        <time>2020-10-11T13:42:01.290Z</time>
      </trkpt>
      <trkpt lat="47.25218" lon="6.35867">
        <ele>487.921598</ele>
        <time>2020-10-11T13:42:13.666Z</time>
      </trkpt>
      <trkpt lat="47.25224" lon="6.3604">
        <ele>494.467315</ele>
        <time>2020-10-11T13:43:12.150Z</time>
      </trkpt>
      <trkpt lat="47.25198" lon="6.36153">
        <ele>499.441265</ele>
        <time>2020-10-11T13:44:06.175Z</time>
      </trkpt>
      <trkpt lat="47.25207" lon="6.36215">
        <ele>502.792878</ele>
        <time>2020-10-11T13:44:35.834Z</time>
      </trkpt>
      <trkpt lat="47.25203" lon="6.36255">
        <ele>504.948648</ele>
        <time>2020-10-11T13:44:54.876Z</time>
      </trkpt>
      <trkpt lat="47.25182" lon="6.36325">
        <ele>509.030758</ele>
        <time>2020-10-11T13:45:29.546Z</time>
      </trkpt>
      <trkpt lat="47.25148" lon="6.36358">
        <ele>512.196291</ele>
        <time>2020-10-11T13:45:53.962Z</time>
      </trkpt>
      <trkpt lat="47.25126" lon="6.36394">
        <ele>513.819562</ele>
        <time>2020-10-11T13:46:12.295Z</time>
      </trkpt>
      <trkpt lat="47.25119" lon="6.36429">
        <ele>514.989181</ele>
        <time>2020-10-11T13:46:25.296Z</time>
      </trkpt>
      <trkpt lat="47.25123" lon="6.36501">
        <ele>517.298094</ele>
        <time>2020-10-11T13:46:49.130Z</time>
      </trkpt>
      <trkpt lat="47.25091" lon="6.36566">
        <ele>519.855659</ele>
        <time>2020-10-11T13:47:13.736Z</time>
      </trkpt>
      <trkpt lat="47.25094" lon="6.366">
        <ele>520.849075</ele>
        <time>2020-10-11T13:47:22.026Z</time>
      </trkpt>
      <trkpt lat="47.2513" lon="6.3669">
        <ele>521.049915</ele>
        <time>2020-10-11T13:47:42.036Z</time>
      </trkpt>
      <trkpt lat="47.25137" lon="6.36695">
        <ele>521.070222</ele>
        <time>2020-10-11T13:47:45.034Z</time>
      </trkpt>
      <trkpt lat="47.25155" lon="6.36705">
        <ele>521.124377</ele>
        <time>2020-10-11T13:47:48.348Z</time>
      </trkpt>
      <trkpt lat="47.25173" lon="6.36729">
        <ele>521.195457</ele>
        <time>2020-10-11T13:47:54.001Z</time>
      </trkpt>
      <trkpt lat="47.25176" lon="6.36776">
        <ele>521.28579</ele>
        <time>2020-10-11T13:47:59.820Z</time>
      </trkpt>
      <trkpt lat="47.25176" lon="6.36786">
        <ele>521.304686</ele>
        <time>2020-10-11T13:48:00.840Z</time>
      </trkpt>
      <trkpt lat="47.25176" lon="6.36807">
        <ele>521.344773</ele>
        <time>2020-10-11T13:48:02.969Z</time>
      </trkpt>
      <trkpt lat="47.2518" lon="6.36826">
        <ele>520.874374</ele>
        <time>2020-10-11T13:48:05.609Z</time>
      </trkpt>
      <trkpt lat="47.25244" lon="6.36944">
        <ele>516.799083</ele>
        <time>2020-10-11T13:48:19.481Z</time>
      </trkpt>
      <trkpt lat="47.2526" lon="6.36987">
        <ele>515.466655</ele>
        <time>2020-10-11T13:48:23.882Z</time>
      </trkpt>
      <trkpt lat="47.25267" lon="6.37047">
        <ele>513.918804</ele>
        <time>2020-10-11T13:48:29.370Z</time>
      </trkpt>
      <trkpt lat="47.25259" lon="6.37107">
        <ele>512.703268</ele>
        <time>2020-10-11T13:48:34.844Z</time>
      </trkpt>
      <trkpt lat="47.25188" lon="6.37279">
        <ele>508.958457</ele>
        <time>2020-10-11T13:48:54.558Z</time>
      </trkpt>
      <trkpt lat="47.25059" lon="6.3757">
        <ele>513.842306</ele>
        <time>2020-10-11T13:50:11.181Z</time>
      </trkpt>
      <trkpt lat="47.2493" lon="6.37774">
        <ele>521.229904</ele>
        <time>2020-10-11T13:51:43.942Z</time>
      </trkpt>
      <trkpt lat="47.24888" lon="6.37885">
        <ele>524.54692</ele>
        <time>2020-10-11T13:52:20.152Z</time>
      </trkpt>
      <trkpt lat="47.24846" lon="6.37933">
        <ele>525.195471</ele>
        <time>2020-10-11T13:52:36.562Z</time>
      </trkpt>
      <trkpt lat="47.24838" lon="6.37987">
        <ele>525.022918</ele>
        <time>2020-10-11T13:52:45.048Z</time>
      </trkpt>
      <trkpt lat="47.24861" lon="6.38084">
        <ele>524.700129</ele>
        <time>2020-10-11T13:52:56.922Z</time>
      </trkpt>
      <trkpt lat="47.24854" lon="6.38111">
        <ele>524.609245</ele>
        <time>2020-10-11T13:52:59.902Z</time>
      </trkpt>
      <trkpt lat="47.24828" lon="6.38153">
        <ele>524.053639</ele>
        <time>2020-10-11T13:53:05.588Z</time>
      </trkpt>
      <trkpt lat="47.24827" lon="6.38167">
        <ele>523.804656</ele>
        <time>2020-10-11T13:53:07.007Z</time>
      </trkpt>
      <trkpt lat="47.24837" lon="6.38204">
        <ele>523.119658</ele>
        <time>2020-10-11T13:53:10.841Z</time>
      </trkpt>
      <trkpt lat="47.24877" lon="6.3827">
        <ele>521.595727</ele>
        <time>2020-10-11T13:53:19.401Z</time>
      </trkpt>
      <trkpt lat="47.24903" lon="6.38376">
        <ele>519.882969</ele>
        <time>2020-10-11T13:53:30.869Z</time>
      </trkpt>
      <trkpt lat="47.24931" lon="6.38455">
        <ele>519.658806</ele>
        <time>2020-10-11T13:53:41.005Z</time>
      </trkpt>
      <trkpt lat="47.24931" lon="6.38509">
        <ele>519.525544</ele>
        <time>2020-10-11T13:53:48.090Z</time>
      </trkpt>
      <trkpt lat="47.24917" lon="6.38552">
        <ele>519.404256</ele>
        <time>2020-10-11T13:53:55.479Z</time>
      </trkpt>
      <trkpt lat="47.24862" lon="6.38627">
        <ele>520.088099</ele>
        <time>2020-10-11T13:54:15.750Z</time>
      </trkpt>
      <trkpt lat="47.24847" lon="6.38643">
        <ele>520.495029</ele>
        <time>2020-10-11T13:54:21.540Z</time>
      </trkpt>
      <trkpt lat="47.24811" lon="6.38656">
        <ele>521.359869</ele>
        <time>2020-10-11T13:54:34.069Z</time>
      </trkpt>
      <trkpt lat="47.2478" lon="6.38673">
        <ele>522.099009</ele>
        <time>2020-10-11T13:54:45.930Z</time>
      </trkpt>
      <trkpt lat="47.24759" lon="6.38688">
        <ele>522.637949</ele>
        <time>2020-10-11T13:54:54.595Z</time>
      </trkpt>
      <trkpt lat="47.24758" lon="6.38692">
        <ele>522.71112</ele>
        <time>2020-10-11T13:54:55.703Z</time>
      </trkpt>
      <trkpt lat="47.24756" lon="6.387">
        <ele>522.839182</ele>
        <time>2020-10-11T13:54:58.135Z</time>
      </trkpt>
      <trkpt lat="47.24753" lon="6.38746">
        <ele>523.645522</ele>
        <time>2020-10-11T13:55:09.650Z</time>
      </trkpt>
      <trkpt lat="47.24757" lon="6.38765">
        <ele>524.082402</ele>
        <time>2020-10-11T13:55:14.863Z</time>
      </trkpt>
      <trkpt lat="47.24758" lon="6.38773">
        <ele>524.280044</ele>
        <time>2020-10-11T13:55:17.040Z</time>
      </trkpt>
      <trkpt lat="47.24761" lon="6.3879">
        <ele>524.680596</ele>
        <time>2020-10-11T13:55:21.381Z</time>
      </trkpt>
      <trkpt lat="47.24767" lon="6.38815">
        <ele>525.276979</ele>
        <time>2020-10-11T13:55:29.094Z</time>
      </trkpt>
      <trkpt lat="47.24789" lon="6.38863">
        <ele>526.58158</ele>
        <time>2020-10-11T13:55:45.338Z</time>
      </trkpt>
      <trkpt lat="47.24815" lon="6.38987">
        <ele>529.463227</ele>
        <time>2020-10-11T13:56:20.576Z</time>
      </trkpt>
      <trkpt lat="47.24817" lon="6.39021">
        <ele>529.962853</ele>
        <time>2020-10-11T13:56:29.697Z</time>
      </trkpt>
      <trkpt lat="47.24818" lon="6.39046">
        <ele>530.331639</ele>
        <time>2020-10-11T13:56:35.824Z</time>
      </trkpt>
      <trkpt lat="47.24823" lon="6.39094">
        <ele>531.037099</ele>
        <time>2020-10-11T13:56:47.109Z</time>
      </trkpt>
      <trkpt lat="47.24837" lon="6.39174">
        <ele>532.241453</ele>
        <time>2020-10-11T13:57:05.520Z</time>
      </trkpt>
      <trkpt lat="47.24878" lon="6.39386">
        <ele>533.855235</ele>
        <time>2020-10-11T13:57:44.411Z</time>
      </trkpt>
      <trkpt lat="47.24892" lon="6.39767">
        <ele>534.608899</ele>
        <time>2020-10-11T13:58:40.170Z</time>
      </trkpt>
      <trkpt lat="47.24896" lon="6.3979">
        <ele>534.655605</ele>
        <time>2020-10-11T13:58:43.464Z</time>
      </trkpt>
      <trkpt lat="47.24905" lon="6.39823">
        <ele>534.725502</ele>
        <time>2020-10-11T13:58:48.982Z</time>
      </trkpt>
      <trkpt lat="47.24918" lon="6.39858">
        <ele>534.804007</ele>
        <time>2020-10-11T13:58:54.949Z</time>
      </trkpt>
      <trkpt lat="47.25017" lon="6.4004">
        <ele>535.316041</ele>
        <time>2020-10-11T13:59:31.350Z</time>
      </trkpt>
      <trkpt lat="47.25045" lon="6.40074">
        <ele>535.460203</ele>
        <time>2020-10-11T13:59:39.772Z</time>
      </trkpt>
      <trkpt lat="47.25076" lon="6.401">
        <ele>535.599475</ele>
        <time>2020-10-11T13:59:47.922Z</time>
      </trkpt>
      <trkpt lat="47.25113" lon="6.4015">
        <ele>535.798288</ele>
        <time>2020-10-11T13:59:59.549Z</time>
      </trkpt>
      <trkpt lat="47.25189" lon="6.40308">
        <ele>536.240456</ele>
        <time>2020-10-11T14:00:29.642Z</time>
      </trkpt>
      <trkpt lat="47.25452" lon="6.41023">
        <ele>537.709798</ele>
        <time>2020-10-11T14:02:31.742Z</time>
      </trkpt>
      <trkpt lat="47.2553" lon="6.41279">
        <ele>538.721531</ele>
        <time>2020-10-11T14:03:16.728Z</time>
      </trkpt>
      <trkpt lat="47.25567" lon="6.41403">
        <ele>539.480441</ele>
        <time>2020-10-11T14:03:40.379Z</time>
      </trkpt>
      <trkpt lat="47.25572" lon="6.41423">
        <ele>539.61353</ele>
        <time>2020-10-11T14:03:43.821Z</time>
      </trkpt>
      <trkpt lat="47.25609" lon="6.41547">
        <ele>540.496137</ele>
        <time>2020-10-11T14:04:08.639Z</time>
      </trkpt>
      <trkpt lat="47.25645" lon="6.41633">
        <ele>541.185001</ele>
        <time>2020-10-11T14:04:26.907Z</time>
      </trkpt>
      <trkpt lat="47.25661" lon="6.41673">
        <ele>541.506644</ele>
        <time>2020-10-11T14:04:35.375Z</time>
      </trkpt>
      <trkpt lat="47.25691" lon="6.41778">
        <ele>542.284905</ele>
        <time>2020-10-11T14:04:55.414Z</time>
      </trkpt>
      <trkpt lat="47.25697" lon="6.4183">
        <ele>542.631339</ele>
        <time>2020-10-11T14:05:05.042Z</time>
      </trkpt>
      <trkpt lat="47.25702" lon="6.41866">
        <ele>542.858171</ele>
        <time>2020-10-11T14:05:11.925Z</time>
      </trkpt>
      <trkpt lat="47.25706" lon="6.41903">
        <ele>543.090007</ele>
        <time>2020-10-11T14:05:18.779Z</time>
      </trkpt>
      <trkpt lat="47.25709" lon="6.41986">
        <ele>543.597525</ele>
        <time>2020-10-11T14:05:33.380Z</time>
      </trkpt>
      <trkpt lat="47.25696" lon="6.42124">
        <ele>544.376424</ele>
        <time>2020-10-11T14:05:56.824Z</time>
      </trkpt>
      <trkpt lat="47.25704" lon="6.42363">
        <ele>545.587314</ele>
        <time>2020-10-11T14:06:36.653Z</time>
      </trkpt>
      <trkpt lat="47.25718" lon="6.4244">
        <ele>546.155688</ele>
        <time>2020-10-11T14:06:50.277Z</time>
      </trkpt>
      <trkpt lat="47.25814" lon="6.42766">
        <ele>549.10333</ele>
        <time>2020-10-11T14:07:57.584Z</time>
      </trkpt>
      <trkpt lat="47.25828" lon="6.42848">
        <ele>549.886496</ele>
        <time>2020-10-11T14:08:15.121Z</time>
      </trkpt>
      <trkpt lat="47.25827" lon="6.4297">
        <ele>550.991863</ele>
        <time>2020-10-11T14:08:39.603Z</time>
      </trkpt>
      <trkpt lat="47.25827" lon="6.43027">
        <ele>551.509591</ele>
        <time>2020-10-11T14:08:50.621Z</time>
      </trkpt>
      <trkpt lat="47.25844" lon="6.43192">
        <ele>552.399698</ele>
        <time>2020-10-11T14:09:19.645Z</time>
      </trkpt>
      <trkpt lat="47.25851" lon="6.43383">
        <ele>552.94652</ele>
        <time>2020-10-11T14:09:47.327Z</time>
      </trkpt>
      <trkpt lat="47.25872" lon="6.43561">
        <ele>553.350084</ele>
        <time>2020-10-11T14:10:14.982Z</time>
      </trkpt>
      <trkpt lat="47.25872" lon="6.436">
        <ele>553.438578</ele>
        <time>2020-10-11T14:10:21.421Z</time>
      </trkpt>
      <trkpt lat="47.25867" lon="6.43623">
        <ele>553.504573</ele>
        <time>2020-10-11T14:10:25.262Z</time>
      </trkpt>
      <trkpt lat="47.25847" lon="6.43673">
        <ele>553.728519</ele>
        <time>2020-10-11T14:10:34.961Z</time>
      </trkpt>
      <trkpt lat="47.25827" lon="6.43726">
        <ele>553.960341</ele>
        <time>2020-10-11T14:10:45.049Z</time>
      </trkpt>
      <trkpt lat="47.2581" lon="6.4381">
        <ele>554.302418</ele>
        <time>2020-10-11T14:10:59.861Z</time>
      </trkpt>
      <trkpt lat="47.25792" lon="6.43868">
        <ele>554.496154</ele>
        <time>2020-10-11T14:11:10.173Z</time>
      </trkpt>
      <trkpt lat="47.25789" lon="6.43907">
        <ele>554.487665</ele>
        <time>2020-10-11T14:11:15.689Z</time>
      </trkpt>
      <trkpt lat="47.25793" lon="6.43985">
        <ele>554.470694</ele>
        <time>2020-10-11T14:11:26.349Z</time>
      </trkpt>
      <trkpt lat="47.25792" lon="6.44019">
        <ele>554.463276</ele>
        <time>2020-10-11T14:11:30.955Z</time>
      </trkpt>
      <trkpt lat="47.25789" lon="6.44067">
        <ele>554.452676</ele>
        <time>2020-10-11T14:11:37.486Z</time>
      </trkpt>
      <trkpt lat="47.25789" lon="6.4414">
        <ele>554.451592</ele>
        <time>2020-10-11T14:11:47.220Z</time>
      </trkpt>
      <trkpt lat="47.25793" lon="6.44234">
        <ele>554.500888</ele>
        <time>2020-10-11T14:12:00.045Z</time>
      </trkpt>
      <trkpt lat="47.25823" lon="6.44609">
        <ele>554.89539</ele>
        <time>2020-10-11T14:12:57.196Z</time>
      </trkpt>
      <trkpt lat="47.2583" lon="6.44665">
        <ele>554.944133</ele>
        <time>2020-10-11T14:13:05.223Z</time>
      </trkpt>
      <trkpt lat="47.25833" lon="6.44689">
        <ele>554.937619</ele>
        <time>2020-10-11T14:13:08.582Z</time>
      </trkpt>
      <trkpt lat="47.25848" lon="6.44758">
        <ele>554.918123</ele>
        <time>2020-10-11T14:13:18.734Z</time>
      </trkpt>
      <trkpt lat="47.25869" lon="6.44834">
        <ele>554.896268</ele>
        <time>2020-10-11T14:13:29.895Z</time>
      </trkpt>
      <trkpt lat="47.25898" lon="6.44926">
        <ele>554.953092</ele>
        <time>2020-10-11T14:13:43.938Z</time>
      </trkpt>
      <trkpt lat="47.25928" lon="6.45079">
        <ele>555.30573</ele>
        <time>2020-10-11T14:14:08.187Z</time>
      </trkpt>
      <trkpt lat="47.25934" lon="6.45149">
        <ele>555.463415</ele>
        <time>2020-10-11T14:14:19.906Z</time>
      </trkpt>
      <trkpt lat="47.25934" lon="6.45311">
        <ele>556.406045</ele>
        <time>2020-10-11T14:14:47.410Z</time>
      </trkpt>
      <trkpt lat="47.25965" lon="6.45613">
        <ele>558.559233</ele>
        <time>2020-10-11T14:15:42.319Z</time>
      </trkpt>
      <trkpt lat="47.25967" lon="6.4574">
        <ele>559.724738</ele>
        <time>2020-10-11T14:16:06.900Z</time>
      </trkpt>
      <trkpt lat="47.25944" lon="6.46088">
        <ele>563.421577</ele>
        <time>2020-10-11T14:17:19.129Z</time>
      </trkpt>
      <trkpt lat="47.25919" lon="6.46302">
        <ele>565.33121</ele>
        <time>2020-10-11T14:18:00.398Z</time>
      </trkpt>
      <trkpt lat="47.25919" lon="6.46446">
        <ele>566.361652</ele>
        <time>2020-10-11T14:18:25.634Z</time>
      </trkpt>
      <trkpt lat="47.25911" lon="6.46564">
        <ele>566.893892</ele>
        <time>2020-10-11T14:18:46.468Z</time>
      </trkpt>
      <trkpt lat="47.25878" lon="6.46634">
        <ele>567.22776</ele>
        <time>2020-10-11T14:19:00.304Z</time>
      </trkpt>
      <trkpt lat="47.25872" lon="6.46674">
        <ele>567.390633</ele>
        <time>2020-10-11T14:19:06.678Z</time>
      </trkpt>
      <trkpt lat="47.25867" lon="6.46725">
        <ele>567.550231</ele>
        <time>2020-10-11T14:19:14.402Z</time>
      </trkpt>
      <trkpt lat="47.25855" lon="6.4676">
        <ele>567.550231</ele>
        <time>2020-10-11T14:19:20.255Z</time>
      </trkpt>
      <trkpt lat="47.25831" lon="6.46785">
        <ele>567.550231</ele>
        <time>2020-10-11T14:19:26.406Z</time>
      </trkpt>
      <trkpt lat="47.25815" lon="6.46808">
        <ele>567.550231</ele>
        <time>2020-10-11T14:19:31.075Z</time>
      </trkpt>
      <trkpt lat="47.25786" lon="6.46828">
        <ele>567.550231</ele>
        <time>2020-10-11T14:19:37.717Z</time>
      </trkpt>
    </trkseg>
  </trk>
</gpx>